GFSSGP_prec_cloud_003.txt.gz
Cloud_Cover
1 0 34 2 97 100 100 73 98 9 8 46 99 100 16 84 90 84 100 100 100 100 100 100 100 100 100 100 100 100 100 100 100 100 100 100 100 100 100 100 100 100 98 88 4 11 3 14 1
0 5 12 87 97 100 100 100 90 23 5 4 25 90 24 93 46 89 58 94 100 100 100 100 100 100 100 100 100 100 100 100 100 100 100 100 100 100 100 53 5 2 0 0 0 0 5 4 0
0 4 48 93 100 100 94 100 100 100 97 54 86 76 64 98 100 97 78 69 96 100 100 100 100 100 100 100 100 100 100 100 100 100 100 85 76 62 5 3 1 0 0 0 0 0 0 5 1
4 40 62 34 70 91 59 94 100 100 100 100 49 6 26 93 100 100 100 87 92 79 92 100 100 63 80 100 100 69 6 46 6 0 0 0 2 1 0 0 0 0 0 0 2 1 0 0 13
9 55 83 73 91 97 56 57 4 77 100 10 2 31 5 5 5 79 86 100 96 88 22 61 71 53 55 82 82 13 4 4 0 0 0 0 0 0 0 0 0 0 0 0 0 0 0 0 2
100 95 63 100 98 98 84 13 0 0 0 0 0 0 28 35 16 14 32 55 89 81 56 16 14 5 5 2 2 0 0 0 0 0 0 0 6 0 0 0 0 1 5 1 0 0 0 0 15
96 81 36 79 97 100 100 80 0 0 0 0 0 0 0 4 19 48 34 66 100 91 100 47 43 36 0 4 2 0 0 0 0 0 0 0 0 0 0 0 0 0 0 0 0 5 63 80 7
2 100 83 100 93 100 97 84 56 0 0 0 0 0 0 0 0 0 4 19 100 43 64 45 41 33 5 0 0 0 0 0 0 0 0 0 0 0 0 0 0 0 0 0 0 49 62 100 100
71 82 63 100 95 98 93 71 3 0 0 0 0 0 0 0 0 0 4 0 1 7 38 87 100 70 96 70 1 0 0 5 0 0 0 0 3 67 33 88 1 3 0 4 0 90 13 100 100
97 99 13 76 50 97 100 93 6 2 0 0 0 0 0 0 0 0 0 3 2 22 59 56 6 8 51 100 0 15 6 1 6 8 69 7 47 63 11 22 0 1 0 0 0 4 35 100 100
100 50 3 3 60 97 43 40 83 28 5 0 0 0 0 0 0 0 0 0 1 22 20 6 100 59 84 100 38 56 30 51 1 14 100 100 96 99 99 100 20 91 81 52 87 92 77 100 73
6 5 21 4 8 100 64 3 0 17 1 0 0 0 0 0 0 0 0 0 11 13 11 19 36 40 42 92 24 96 100 55 99 100 13 16 1 66 38 74 63 42 98 78 73 92 85 67 40
83 5 5 3 63 5 2 0 0 0 0 0 0 0 0 0 0 0 0 0 0 15 16 12 44 80 33 4 35 90 34 74 83 94 75 17 100 100 56 89 50 83 26 19 45 6 31 70 59
5 5 5 4 1 0 2 0 0 0 0 0 0 0 0 0 0 0 0 0 0 0 22 24 37 73 7 1 0 0 18 46 98 97 84 100 18 100 100 100 100 100 91 62 12 5 28 11 8
5 5 5 5 14 3 1 0 0 0 0 0 0 0 13 40 11 1 0 0 0 2 97 100 100 96 4 20 15 4 1 19 79 98 99 11 30 98 100 100 100 75 100 100 50 30 74 12 75
6 29 86 6 4 100 100 18 0 0 0 0 2 14 18 42 26 33 41 98 98 100 100 57 56 56 21 0 15 14 1 8 55 82 90 91 81 100 100 100 100 88 65 96 100 100 36 91 78
21 100 99 100 18 89 81 11 0 0 0 0 0 0 0 1 2 50 50 100 91 76 79 96 28 65 5 0 41 24 28 44 81 100 100 99 99 100 100 100 100 100 100 74 70 100 100 100 99
33 98 98 100 39 32 99 100 0 0 0 0 0 0 0 1 6 0 2 8 26 34 43 69 92 40 21 24 2 6 0 3 20 68 14 56 79 64 93 100 100 100 100 100 100 100 54 51 100
12 57 100 6 100 99 89 97 0 0 0 0 0 0 0 0 0 0 0 0 0 6 7 6 70 20 48 9 21 14 19 16 5 5 5 28 5 21 14 14 5 29 100 100 100 100 100 100 100
0 3 68 100 33 16 100 68 1 0 0 0 0 0 0 0 0 0 0 0 0 0 0 0 0 94 38 8 17 4 3 0 1 4 2 0 22 88 55 4 0 1 0 0 70 100 100 100 72
0 0 4 39 8 1 77 100 3 0 0 0 0 0 0 0 0 0 0 0 0 0 0 0 0 0 24 2 0 0 0 0 0 0 49 41 26 2 0 0 0 0 0 9 2 7 95 100 100
0 0 0 5 28 83 15 64 94 35 7 0 0 0 0 0 0 0 0 0 0 0 0 0 0 0 0 0 0 0 0 0 0 0 0 0 0 0 0 0 0 4 4 0 3 52 84 91 100
37 5 0 0 5 15 78 89 10 65 85 0 0 0 0 0 0 0 0 0 0 0 0 0 1 0 0 0 0 0 0 0 0 0 0 0 0 0 0 6 66 45 46 57 4 15 7 44 55
0 0 1 5 13 82 90 99 100 11 53 62 0 0 0 0 0 0 4 0 0 0 0 0 0 0 0 0 0 0 0 0 0 0 0 0 0 0 45 2 0 1 2 12 9 5 11 1 4
0 4 5 47 91 99 100 86 100 100 91 18 4 1 0 0 0 0 1 0 0 0 0 0 0 0 0 0 0 0 0 0 0 0 0 0 0 0 1 0 13 1 1 0 0 0 0 0 1
0 5 48 67 87 100 66 0 0 0 8 2 0 6 0 0 0 0 0 13 9 0 0 0 0 0 0 0 0 0 0 0 0 0 0 0 0 0 0 0 0 0 0 6 14 25 30 0 0
3 0 4 5 10 18 86 32 7 0 0 0 0 0 3 0 0 0 6 23 5 0 0 0 0 0 0 0 0 0 0 0 0 0 0 0 0 0 0 2 0 3 58 29 2 21 4 1 0
5 7 2 5 10 98 98 76 37 12 0 0 0 0 0 1 0 0 10 31 0 0 0 0 0 0 0 0 0 0 0 0 0 0 0 0 0 0 0 0 0 18 95 99 96 61 50 0 0
0 4 5 84 74 100 94 100 100 5 2 0 1 0 0 0 0 0 0 14 4 0 0 0 0 0 2 0 0 0 0 0 0 0 0 0 0 0 1 0 0 0 8 15 11 0 9 1 0
5 22 22 5 55 7 6 100 93 49 11 2 0 0 0 0 0 0 0 18 16 0 0 0 0 0 2 0 0 0 0 0 0 0 0 0 0 0 0 0 0 0 0 0 3 1 0 19 13

GFSSGP_prec_cloud_006.txt.gz
Cloud_Cover
4 5 66 100 100 37 99 100 88 4 48 98 100 100 99 100 95 100 100 100 100 88 100 92 100 100 100 100 100 100 100 100 100 100 100 100 100 100 100 100 100 100 92 52 0 1 0 0 2
5 2 14 99 100 100 75 21 7 36 12 69 17 43 34 100 100 100 100 100 100 100 100 100 100 100 100 100 100 100 100 100 100 100 100 100 100 100 98 34 9 0 0 0 1 5 0 2 0
46 23 59 100 81 7 92 100 100 6 15 29 5 7 46 22 43 39 80 96 94 100 100 100 100 100 100 100 100 100 100 100 100 100 100 100 100 43 1 0 0 0 0 3 0 0 0 5 1
99 47 100 7 6 51 5 100 100 82 21 5 2 9 5 25 80 49 100 100 100 99 100 100 100 100 100 100 100 100 100 97 100 62 20 6 1 0 0 0 0 0 0 0 0 0 0 0 12
100 100 91 2 47 77 89 52 100 100 99 35 52 60 55 27 35 82 100 100 100 100 100 100 56 39 6 94 96 17 55 16 2 0 0 0 0 0 0 0 0 0 0 0 0 0 0 0 0
96 92 51 1 46 68 14 6 74 55 100 100 100 100 88 91 100 19 24 21 29 78 25 40 83 70 100 100 85 48 4 0 0 0 0 0 0 0 0 0 0 0 0 0 0 0 0 0 0
100 100 100 54 84 100 100 34 0 0 0 4 44 82 17 4 3 40 48 80 12 88 48 55 84 99 16 0 0 0 0 0 0 0 0 0 0 0 0 36 100 21 0 0 0 0 97 100 98
91 18 86 95 66 9 99 10 6 0 0 0 0 0 0 0 73 17 22 47 56 20 72 1 0 0 0 0 0 1 0 0 0 0 0 0 0 0 7 100 100 100 3 0 0 0 84 66 100
98 100 59 75 100 12 38 98 99 0 0 0 0 0 0 0 43 0 69 29 29 28 80 100 54 1 0 0 0 0 0 0 0 0 0 0 0 73 100 100 100 25 4 4 4 5 5 98 96
100 100 94 61 100 33 100 100 36 22 16 0 0 0 0 0 5 28 6 19 34 0 0 14 97 42 60 53 0 0 0 0 0 0 0 5 26 51 18 100 27 53 0 0 0 0 4 98 60
95 100 16 20 100 25 100 94 97 100 100 96 0 0 0 0 0 21 77 0 100 0 31 0 0 0 20 92 0 0 0 0 0 0 0 0 51 81 18 96 18 0 41 6 1 0 17 100 68
96 89 18 0 45 79 96 5 100 100 100 100 0 0 0 0 0 0 24 1 14 0 100 27 85 49 11 100 69 22 71 52 98 88 77 0 0 0 2 1 5 4 97 52 0 0 0 6 30
99 2 1 14 92 47 1 0 8 87 100 100 0 0 0 0 0 0 11 3 43 0 78 24 57 65 35 96 9 90 100 97 17 34 40 57 3 90 90 22 28 8 66 30 22 3 2 0 5
42 25 23 62 2 4 0 0 0 0 1 7 0 0 0 0 4 9 6 9 3 8 22 10 62 14 0 0 0 16 5 96 15 14 98 81 97 89 93 100 80 60 72 59 92 4 2 0 0
65 5 13 4 30 5 4 0 0 0 0 0 0 0 11 15 4 9 4 14 0 1 93 91 92 1 0 0 0 0 0 0 7 100 43 61 14 8 100 100 100 100 99 9 5 27 31 5 4
5 50 10 46 5 81 38 2 0 0 0 0 1 0 2 0 9 1 7 6 53 100 100 56 100 64 7 0 0 0 0 0 84 10 93 59 54 61 100 100 100 91 100 96 100 91 100 41 92
5 64 39 80 51 66 21 16 0 0 0 0 2 1 2 1 85 23 21 80 91 100 40 68 49 36 18 0 0 1 13 4 5 94 100 100 74 65 100 100 100 100 100 100 100 100 100 100 86
3 96 98 30 0 0 4 90 1 2 0 0 0 0 0 0 0 0 0 42 33 91 96 100 90 74 44 0 4 4 19 3 0 8 2 98 4 1 9 8 31 78 53 85 100 100 100 100 100
50 100 46 79 100 0 0 0 0 1 1 0 0 0 0 0 2 2 0 1 14 3 19 100 96 57 0 0 0 0 0 5 0 0 0 0 2 5 5 0 0 0 0 0 0 1 30 100 100
100 22 97 100 100 28 18 28 100 8 0 0 0 0 0 0 0 0 0 0 0 76 0 0 0 0 0 0 0 0 0 0 0 0 0 11 14 79 26 1 0 0 0 0 0 0 0 0 73
18 1 49 100 96 3 6 59 82 91 0 0 0 0 0 0 0 0 0 0 0 0 0 0 0 0 0 0 0 0 0 0 0 38 96 80 65 7 0 0 0 0 0 0 50 2 0 0 0
0 0 0 12 87 12 15 3 39 97 10 76 5 0 0 0 0 0 0 0 0 0 0 0 0 0 0 0 0 0 0 0 0 0 0 0 0 0 0 0 0 0 4 0 0 0 0 0 6
0 0 0 5 5 5 82 67 24 56 2 4 3 0 0 0 0 0 0 0 0 0 0 0 0 0 0 0 0 0 0 0 0 0 0 0 0 0 1 17 0 0 0 0 0 0 0 0 2
0 0 5 2 1 5 9 22 32 87 57 5 94 78 29 0 2 0 0 0 0 0 0 0 0 0 0 0 0 0 0 0 0 0 0 0 18 3 63 59 0 0 0 0 0 0 0 0 0
0 3 13 34 5 0 79 100 76 83 53 51 69 79 69 0 0 0 56 1 0 0 0 0 0 0 0 0 0 0 0 0 0 0 0 0 0 4 0 0 0 0 0 0 0 0 0 0 0
0 0 5 5 100 99 100 79 7 100 86 23 30 75 16 3 0 0 23 44 0 0 0 0 0 0 0 0 0 0 0 0 0 0 0 0 0 0 0 0 0 0 0 0 0 0 0 0 0
0 0 10 100 90 9 95 28 4 0 0 0 0 0 5 9 92 0 0 26 0 0 0 0 0 0 0 0 0 0 0 0 0 0 0 0 0 0 73 0 0 0 0 60 26 0 0 0 0
2 9 0 3 15 81 49 76 73 99 1 1 0 0 2 5 7 66 5 22 0 0 0 0 0 0 0 0 0 0 0 0 0 0 0 0 0 0 0 0 0 0 0 0 0 0 0 0 0
17 31 16 26 6 59 32 85 17 68 6 5 1 0 0 0 1 58 1 89 0 0 0 0 0 0 0 0 1 0 0 0 0 0 0 0 0 0 0 0 0 0 0 0 0 0 0 0 3
64 25 54 5 74 4 62 100 6 0 0 0 0 0 0 0 0 34 0 0 0 0 0 0 0 0 0 0 3 15 0 0 0 0 0 0 0 0 0 0 0 0 0 0 0 0 0 0 0

GFSSGP_prec_cloud_009.txt.gz
Cloud_Cover
98 68 100 72 19 94 88 96 58 53 99 93 93 100 100 100 100 100 100 100 93 100 100 100 46 100 100 99 100 100 100 100 100 100 100 100 97 82 100 100 100 98 11 0 0 0 0 0 0
80 88 100 100 100 28 5 14 40 94 16 32 79 100 97 100 100 100 100 100 100 100 90 97 100 88 99 100 100 100 97 79 96 100 100 100 100 100 97 36 2 0 0 0 0 0 0 0 0
100 76 96 96 25 52 51 7 31 100 19 28 14 20 74 98 100 100 100 100 100 100 100 96 99 100 97 98 93 99 100 99 100 100 100 100 55 5 0 0 0 0 0 0 0 0 0 2 0
100 45 57 100 100 99 60 82 99 98 82 21 5 0 2 3 53 98 100 100 100 100 100 100 100 100 100 100 100 100 100 100 100 100 91 5 2 0 0 0 0 0 3 0 0 0 0 0 4
84 100 94 5 18 99 12 99 100 100 100 65 12 70 85 5 5 9 14 13 27 98 100 100 100 100 100 100 100 100 100 99 73 5 0 0 0 0 0 0 0 16 5 4 0 0 0 0 0
68 6 9 3 5 4 4 9 96 100 100 100 23 5 11 3 4 3 12 7 54 100 100 96 99 100 100 100 100 100 57 1 0 0 0 0 0 0 0 46 61 22 5 1 0 0 0 56 38
100 93 100 54 5 5 3 4 4 4 6 98 100 100 88 94 64 5 16 64 93 29 38 51 36 100 75 17 7 1 0 0 0 0 0 0 0 0 99 100 25 26 5 0 0 0 51 100 100
84 99 63 100 100 1 26 23 0 0 0 0 0 28 97 98 93 71 54 0 0 0 2 1 1 0 0 0 0 0 0 0 0 0 0 0 0 82 100 99 100 31 5 4 0 1 5 56 45
77 99 77 100 43 1 3 5 4 0 0 0 0 0 13 0 0 0 5 91 0 0 0 0 0 0 0 0 0 0 0 0 0 0 0 0 1 98 100 74 58 5 0 1 1 2 4 10 51
84 81 89 94 100 71 78 3 5 28 4 1 0 0 20 33 3 0 66 6 0 0 0 0 0 0 0 0 0 0 0 0 0 0 0 0 1 97 93 45 3 0 1 1 0 1 1 62 36
56 97 100 80 32 100 69 23 100 98 96 98 9 0 2 20 0 0 0 0 0 0 0 0 0 0 0 0 0 0 0 0 0 0 0 0 0 8 3 5 80 0 0 0 0 0 0 0 2
98 100 44 5 41 11 91 0 100 98 98 100 100 8 0 25 1 96 83 0 100 6 0 25 3 0 48 100 33 0 36 0 0 0 37 1 0 0 5 5 44 5 5 25 3 0 0 1 3
100 95 90 3 8 0 2 1 100 99 9 100 100 100 11 0 0 17 54 0 13 81 100 100 21 64 0 53 4 2 88 78 32 5 0 77 88 2 8 5 8 38 5 5 5 5 5 5 0
82 5 1 5 4 0 0 0 41 100 100 100 100 83 0 0 0 4 0 0 42 64 100 100 6 0 0 0 0 0 99 4 54 42 3 88 98 37 9 31 39 63 91 5 4 4 5 0 0
100 18 45 7 3 4 0 0 0 0 2 0 1 0 0 0 0 0 0 0 0 0 11 100 2 0 0 0 1 0 0 0 1 0 99 10 7 93 5 8 5 80 16 60 5 11 5 5 2
75 9 0 5 3 3 0 0 0 0 0 0 0 0 0 0 0 0 0 0 0 0 100 46 44 2 0 0 0 0 5 5 6 64 95 93 100 87 19 97 100 83 88 67 8 33 15 5 5
0 0 11 5 5 5 0 0 0 0 0 0 1 20 5 0 0 1 0 0 0 8 83 100 58 11 0 0 0 0 0 3 0 0 24 100 68 100 3 2 58 100 100 100 100 100 89 93 99
2 87 88 48 29 5 0 25 0 0 0 0 1 0 0 0 0 0 0 0 0 50 52 20 28 0 94 0 0 0 0 0 0 0 0 0 30 70 89 17 4 5 36 15 22 26 11 6 86
46 35 62 99 43 48 1 0 0 0 0 0 0 0 0 0 0 0 0 0 0 3 13 5 50 27 0 0 0 0 0 0 0 0 0 0 8 0 0 0 0 0 0 0 0 0 0 0 2
71 100 23 50 6 8 21 28 0 86 20 0 1 0 0 0 0 0 0 0 0 0 0 0 0 0 0 0 0 0 0 0 0 0 0 0 6 26 61 0 0 0 0 0 0 0 0 0 0
6 100 99 35 5 54 20 5 0 82 99 90 5 1 0 0 0 0 0 0 0 0 0 0 0 0 0 0 0 0 0 0 0 6 100 65 96 32 0 0 0 0 0 0 0 0 0 0 0
5 33 50 91 47 65 7 0 0 11 5 61 18 0 0 0 0 0 0 0 0 0 0 0 0 0 0 0 0 0 0 0 0 0 0 0 0 0 0 0 0 0 0 0 0 0 0 0 9
0 4 1 5 84 90 13 5 0 37 0 3 54 46 94 56 0 0 0 0 0 0 0 0 0 0 0 0 0 0 0 0 0 0 0 0 0 0 0 0 0 0 0 0 0 0 0 0 0
0 0 0 4 3 0 0 0 0 0 3 46 46 24 38 13 0 0 0 0 0 0 0 0 0 0 0 0 0 0 0 0 0 0 0 0 0 0 0 0 0 0 0 0 0 0 0 0 0
0 0 0 0 0 0 2 0 3 6 5 5 4 0 2 2 0 0 0 0 0 1 0 0 0 0 0 0 0 0 0 0 0 0 0 0 0 0 0 0 0 0 0 0 0 0 0 0 0
0 0 0 0 16 14 18 82 6 89 84 2 0 0 0 0 0 32 9 92 87 100 4 0 0 0 1 0 0 0 0 0 0 0 0 0 0 0 0 0 0 0 0 0 0 0 0 0 0
0 0 0 46 100 100 100 4 79 5 5 0 0 0 0 0 0 25 43 66 29 100 19 0 0 0 9 4 0 0 0 0 0 0 0 0 0 0 0 0 0 0 0 0 0 0 0 0 0
2 0 0 7 20 37 94 99 86 6 9 6 5 0 4 0 2 34 71 98 100 3 0 0 0 2 5 0 0 0 0 0 0 0 0 0 0 0 0 0 0 0 0 0 0 0 0 0 0
2 0 0 0 3 60 22 62 100 100 76 48 64 48 0 0 0 62 61 52 5 0 0 0 0 5 19 5 1 0 4 0 5 0 0 0 0 0 0 0 0 0 0 0 0 0 0 0 0
5 0 0 5 18 5 57 96 65 61 98 48 5 0 0 0 0 0 0 0 0 0 79 0 0 2 4 2 5 4 2 1 5 5 4 0 0 0 0 5 5 0 0 0 0 0 0 0 0

GFSSGP_prec_cloud_012.txt.gz
Cloud_Cover
98 5 31 41 100 100 100 91 76 64 100 96 100 100 100 100 82 97 100 100 100 100 91 100 100 100 90 93 80 100 80 72 96 97 100 100 100 100 100 100 87 4 1 92 77 5 0 0 0
100 22 85 47 100 100 98 95 100 48 100 100 92 89 86 100 100 100 100 100 100 76 89 100 100 100 100 86 94 89 100 100 75 100 100 100 100 100 49 4 3 0 0 15 6 41 3 0 0
46 93 55 6 67 100 98 100 64 5 8 12 91 100 97 81 95 100 100 100 100 100 100 91 100 100 100 96 100 96 62 97 100 100 100 100 94 16 1 0 0 59 2 5 30 84 1 3 2
98 10 44 85 5 43 12 5 46 5 5 0 1 7 100 82 92 99 100 100 100 100 100 100 99 100 100 39 99 100 100 100 100 100 100 100 1 0 0 0 5 32 2 34 23 0 0 0 4
5 6 43 5 4 3 58 60 73 60 91 53 16 32 42 1 2 5 5 5 60 97 100 100 87 77 99 100 100 100 100 100 100 99 29 0 0 0 0 1 5 7 5 5 5 0 0 0 4
76 27 12 26 5 4 100 49 100 100 100 100 100 28 32 5 2 1 3 3 1 17 34 22 100 100 100 100 100 100 46 11 2 0 0 0 0 0 4 8 7 9 4 3 0 0 1 30 11
17 67 2 5 0 5 45 10 79 100 100 100 100 100 58 28 3 46 76 20 4 32 38 10 7 8 6 5 4 1 0 0 0 0 0 0 0 5 5 5 13 5 1 0 0 0 5 85 9
100 99 41 5 2 4 2 0 0 0 93 96 44 95 100 100 100 100 100 100 80 6 4 6 0 0 0 0 0 0 0 0 0 0 0 0 1 5 5 5 5 25 6 5 0 0 5 5 5
89 87 91 80 31 5 5 4 0 0 0 0 0 0 1 0 22 58 27 0 0 0 0 0 0 12 3 0 0 0 0 0 0 0 0 0 0 1 4 5 2 0 28 4 5 2 1 5 7
54 62 95 28 34 5 3 0 2 17 1 0 0 0 0 0 0 0 0 0 0 0 0 0 0 0 0 1 0 2 0 0 0 0 0 0 0 0 0 0 0 0 3 9 22 4 1 4 28
63 9 36 5 6 38 0 5 98 96 100 43 71 0 0 0 0 0 0 0 0 0 0 0 0 0 0 0 21 26 10 3 0 0 0 0 0 0 0 5 5 4 5 5 5 3 2 0 2
88 6 21 6 5 28 4 100 26 26 100 100 100 32 1 0 0 0 0 0 0 0 0 0 0 0 0 1 1 11 1 0 0 0 0 0 0 0 4 4 5 5 5 3 5 87 72 5 1
1 0 14 5 0 4 5 60 37 73 6 80 92 100 89 17 1 15 0 0 0 0 0 0 0 0 1 63 9 0 11 12 3 47 0 0 86 8 5 4 17 58 6 13 5 5 41 4 2
50 52 90 1 0 0 0 2 0 20 100 94 59 46 8 1 0 0 0 0 0 0 82 97 42 0 0 0 0 0 12 8 0 61 33 5 48 48 0 0 0 3 16 87 100 18 5 5 0
23 9 2 0 0 0 0 0 0 0 7 92 7 0 0 0 0 0 0 0 0 0 100 100 53 0 0 0 0 0 10 0 0 28 2 86 6 55 19 1 5 44 68 77 18 58 10 5 5
77 4 0 0 2 5 0 0 0 0 0 0 0 0 0 0 0 0 0 0 0 0 0 55 42 0 0 0 0 0 0 0 0 0 0 59 80 88 92 10 2 4 5 97 100 99 30 66 5
76 25 3 0 3 5 0 0 0 0 0 0 0 0 0 0 0 0 0 0 0 0 0 0 0 0 11 0 0 0 0 0 0 0 0 2 86 100 80 4 2 0 4 21 65 100 84 99 91
6 0 0 1 4 5 5 2 3 0 0 0 0 0 0 0 0 0 0 0 0 0 0 27 15 3 0 0 0 0 0 0 0 0 0 0 0 0 81 88 99 0 0 0 0 3 24 71 24
4 34 4 5 5 4 5 5 0 0 0 0 0 0 0 0 0 0 0 0 0 0 0 0 0 0 0 0 0 0 0 0 0 0 0 0 0 32 1 0 0 0 0 0 0 0 0 0 0
50 69 29 93 35 5 4 5 0 0 10 0 2 0 0 0 0 0 0 0 0 0 0 0 0 0 0 0 0 0 0 0 0 0 0 0 2 27 54 0 0 0 0 0 0 0 0 0 0
72 94 86 42 96 99 11 5 18 0 3 5 41 0 0 0 0 0 0 0 0 0 0 0 0 0 0 0 0 0 0 0 0 0 0 100 100 53 18 0 0 0 0 0 0 0 0 0 0
90 5 66 6 34 16 2 5 4 2 0 4 2 0 4 5 0 0 0 0 0 0 0 0 0 0 0 0 0 0 0 0 0 0 0 0 0 0 0 0 0 0 0 0 0 0 0 0 0
3 5 81 95 99 5 0 20 0 0 0 1 1 0 41 7 5 0 0 0 0 0 0 0 3 3 0 0 0 0 0 0 0 0 0 0 0 0 0 0 0 0 0 0 0 0 0 0 0
0 5 85 100 63 3 0 0 1 0 2 2 4 1 14 1 4 0 0 0 0 4 23 36 38 0 0 0 0 0 0 0 0 0 0 0 0 0 0 0 0 0 0 0 0 0 0 0 0
0 2 2 0 13 0 2 0 0 0 0 31 4 0 0 0 0 0 0 0 0 0 0 29 51 0 4 0 0 0 0 0 0 0 0 0 0 0 0 0 0 0 0 0 0 0 0 0 0
0 0 0 0 0 0 0 5 4 98 4 5 3 0 0 0 0 0 0 3 2 0 0 100 69 0 0 0 0 3 5 2 5 5 5 0 0 0 0 0 0 0 0 0 0 0 0 0 0
0 0 0 0 0 0 77 7 0 5 5 5 0 0 0 0 0 0 0 0 0 0 0 0 1 0 0 0 95 66 100 22 0 5 3 0 0 0 0 4 1 0 0 0 0 5 0 0 0
0 0 0 0 0 4 0 0 4 41 70 20 1 0 0 0 0 0 0 0 0 28 26 1 0 0 7 4 100 100 100 2 1 3 5 0 5 1 4 5 5 0 0 0 1 4 0 0 0
0 0 0 0 0 4 1 2 5 23 5 5 29 21 1 0 0 0 0 0 0 0 0 0 0 6 14 5 91 84 5 5 6 5 5 5 12 5 5 5 5 4 0 0 0 0 0 0 0
0 0 0 0 0 0 4 1 2 8 5 3 92 88 0 0 0 0 0 0 0 0 0 0 0 16 7 1 25 8 5 100 97 68 5 21 100 58 5 24 47 2 0 0 0 0 0 0 0

GFSSGP_prec_cloud_015.txt.gz
Cloud_Cover
28 54 69 100 100 87 24 54 66 68 71 66 76 86 100 96 59 90 78 100 85 35 97 100 71 100 100 99 100 100 100 100 98 71 100 80 100 100 100 100 76 5 30 10 12 39 66 2 0
31 11 78 100 100 98 89 45 17 93 96 70 100 90 93 100 91 82 95 61 98 88 83 100 94 35 71 99 100 100 100 63 100 100 94 100 100 100 100 100 96 5 5 0 93 94 5 0 0
52 3 90 13 30 96 76 6 5 48 100 100 100 95 63 95 99 100 100 100 100 44 99 99 47 100 98 84 27 96 97 100 99 99 100 100 100 100 82 1 0 4 2 6 81 5 3 1 0
90 100 74 100 100 100 5 6 5 3 17 99 100 75 47 27 6 6 7 42 100 100 24 100 65 34 85 100 100 100 100 100 100 100 100 100 80 0 0 0 0 1 5 11 5 5 0 5 0
5 15 100 96 100 100 43 3 4 5 5 42 31 74 76 3 2 3 3 3 5 22 51 100 100 100 100 100 99 100 100 100 100 90 0 0 0 0 0 4 1 4 5 0 5 5 3 4 5
5 1 5 5 7 40 17 13 8 0 3 5 5 10 27 1 0 0 5 0 0 8 1 12 17 63 56 4 93 99 76 7 0 0 8 0 0 0 4 0 1 0 0 6 5 5 3 0 27
90 1 0 0 3 2 5 83 10 12 5 5 48 94 96 81 39 33 4 4 4 14 5 27 50 0 0 0 0 0 0 0 0 0 0 0 4 5 5 5 5 5 6 15 64 5 2 5 1
8 5 3 0 5 5 0 25 100 61 100 100 100 62 89 78 84 98 100 100 76 98 100 100 62 0 1 0 0 0 0 0 0 0 0 1 5 5 5 0 0 10 45 99 57 34 5 5 5
88 5 1 5 5 1 3 5 0 0 25 74 100 38 88 21 27 69 51 40 47 47 33 24 20 17 13 0 0 2 0 0 0 0 0 0 0 0 0 0 0 0 4 19 12 95 4 5 4
31 45 5 5 8 1 0 10 0 0 0 0 0 0 0 0 0 0 32 64 84 78 69 22 23 21 18 0 2 0 0 0 0 0 0 0 0 0 14 0 0 0 1 8 31 23 65 8 14
3 5 64 60 1 0 1 0 0 2 3 1 1 0 0 0 0 0 0 0 5 7 20 26 25 21 18 1 20 34 26 19 14 0 0 1 0 0 0 0 3 3 4 7 5 54 63 98 10
64 5 0 3 0 0 1 1 0 0 3 5 5 3 5 6 1 0 0 0 0 0 0 0 0 11 8 17 30 28 25 26 26 11 0 6 7 5 5 4 0 4 8 6 5 5 63 38 98
6 5 0 2 3 0 4 5 0 0 0 6 44 7 9 2 4 0 0 0 0 0 0 0 0 0 0 2 21 28 25 9 0 0 0 1 2 80 4 0 4 0 0 10 24 47 59 5 71
5 2 1 0 0 0 0 1 0 0 5 2 4 6 1 1 0 0 0 0 0 0 0 0 0 0 0 0 1 3 0 0 27 4 67 0 0 58 0 0 2 4 3 5 56 57 66 100 42
5 0 0 3 5 12 3 0 0 0 0 0 0 0 0 0 0 0 0 0 0 0 52 99 0 0 0 0 0 0 0 0 0 4 12 0 80 8 84 74 11 7 3 3 5 33 100 94 46
5 1 0 3 10 84 4 0 0 0 0 0 0 0 0 0 0 0 0 0 0 0 0 86 98 0 0 0 0 0 0 0 0 0 0 0 4 4 57 40 1 0 0 0 0 0 32 93 26
4 0 0 20 97 15 4 0 0 0 0 0 0 0 0 0 0 0 0 0 0 0 0 0 1 0 0 0 0 0 0 0 0 0 0 0 0 0 89 40 0 0 10 0 0 0 0 0 47
1 1 0 0 4 5 5 4 0 0 0 0 0 0 0 0 0 0 0 0 0 0 0 0 0 0 0 0 0 1 0 0 0 0 0 0 7 2 6 6 96 28 5 0 0 0 0 0 0
0 2 3 5 5 4 5 11 0 0 0 0 0 0 0 0 0 0 0 0 0 0 0 0 0 0 3 10 0 0 0 0 0 0 0 0 0 1 0 4 0 0 0 0 0 0 0 0 2
0 4 7 92 9 60 100 11 51 5 0 0 0 0 0 0 0 0 0 0 0 0 0 0 0 0 0 0 0 0 0 0 0 0 0 0 0 0 0 36 0 0 0 0 0 0 0 0 1
5 0 8 5 39 99 99 15 5 9 2 3 2 2 0 0 1 0 0 0 0 0 0 0 2 5 0 0 0 0 1 1 0 0 0 0 40 94 86 26 0 0 0 0 0 0 0 0 3
0 3 5 28 5 1 0 0 5 14 3 0 5 0 5 0 0 2 0 0 0 0 1 4 3 5 1 0 0 0 3 0 0 0 0 0 0 0 0 0 0 0 0 0 0 0 0 0 0
0 12 53 58 5 3 0 0 0 0 0 0 0 3 5 0 0 0 0 0 0 0 0 0 0 30 40 0 0 10 0 0 0 0 0 0 0 0 0 0 0 0 0 0 4 1 0 0 0
4 98 100 14 4 0 0 0 0 0 0 0 0 2 1 4 0 0 0 0 0 0 0 0 0 4 21 5 0 1 0 0 5 5 5 0 0 0 0 0 1 0 0 1 4 2 0 0 4
0 100 31 4 0 0 0 0 0 0 0 0 0 0 0 2 0 0 0 0 0 0 0 0 0 0 0 0 0 0 3 3 12 9 5 5 5 5 5 5 4 5 1 2 0 1 0 0 0
0 72 7 4 0 0 0 0 0 0 5 5 4 0 0 0 1 0 0 0 5 5 0 0 0 0 0 5 0 3 0 3 58 100 88 22 99 39 5 5 3 5 5 5 5 5 5 0 7
0 4 0 0 0 0 0 0 0 4 28 5 0 0 0 0 0 0 0 2 33 62 4 0 0 0 0 1 17 88 4 20 100 35 19 100 100 5 5 1 5 5 5 14 5 4 5 3 4
0 0 0 0 0 0 0 0 0 0 85 0 0 0 0 0 0 0 0 0 0 33 1 0 0 0 0 2 5 98 5 68 100 45 100 99 74 100 30 6 5 5 6 84 5 5 4 2 6
0 0 0 0 0 0 0 0 0 1 0 0 3 4 0 0 0 0 0 0 0 0 0 0 0 0 0 0 34 79 35 82 95 18 100 100 100 100 100 13 5 5 54 75 5 5 9 5 1
0 0 0 0 0 0 0 0 0 0 0 0 0 1 0 5 1 2 3 3 3 0 0 0 0 0 0 17 100 15 5 5 16 88 100 100 100 100 100 9 8 93 77 27 15 99 41 33 0

GFSSGP_prec_cloud_018.txt.gz
Cloud_Cover
82 98 100 100 100 55 41 5 5 9 93 5 35 84 55 22 15 77 92 79 46 86 42 82 17 100 100 100 100 100 100 96 100 100 77 5 45 100 100 100 100 79 12 0 2 5 5 7 7
90 3 5 56 100 82 98 16 5 16 12 10 25 15 86 99 35 52 66 52 37 74 70 75 93 100 100 100 100 100 100 26 41 73 100 50 100 100 100 84 5 4 0 1 0 3 23 2 12
93 98 100 32 100 76 95 40 5 99 70 21 84 85 69 90 49 59 36 82 75 66 100 96 86 89 95 8 12 12 96 95 100 100 100 100 100 100 31 5 3 0 0 0 3 6 5 0 3
72 34 4 95 99 91 98 99 10 5 99 20 96 83 25 24 23 29 99 100 100 98 87 90 48 19 99 100 100 98 100 100 100 99 100 100 10 0 0 0 0 5 3 0 89 14 0 3 0
1 0 0 1 20 32 5 3 0 0 2 83 15 49 22 5 2 0 1 20 8 4 89 99 87 100 100 100 100 100 100 100 100 81 3 0 0 0 0 0 4 3 1 8 51 12 0 2 0
2 1 0 0 1 5 2 3 0 0 0 0 0 6 48 1 1 7 3 3 1 1 1 1 0 1 5 5 13 2 0 0 0 0 0 0 2 5 4 0 2 5 5 5 72 30 2 4 4
4 0 3 2 2 2 3 3 5 0 5 1 0 31 92 8 83 49 4 5 9 16 5 5 5 48 84 7 4 0 0 0 1 4 3 0 5 5 0 1 4 4 85 12 98 98 5 92 34
4 5 5 4 2 0 0 0 0 4 5 0 0 29 98 6 0 3 5 11 30 73 37 74 96 13 0 0 0 0 0 0 0 0 0 0 0 0 0 0 0 3 6 78 98 100 23 14 6
31 4 5 4 0 4 3 0 0 0 0 0 0 4 44 100 10 10 44 54 59 44 29 15 2 0 0 0 0 0 0 0 3 0 0 0 0 0 0 0 3 5 5 70 72 73 88 98 39
6 1 1 3 5 2 5 0 0 0 0 0 0 0 9 23 12 29 49 52 67 49 76 34 24 25 18 0 0 0 0 0 0 0 0 0 0 0 3 0 0 5 24 5 22 30 100 100 100
5 5 0 0 0 0 1 0 0 0 0 0 0 0 32 44 44 34 12 1 2 3 62 45 33 26 25 2 16 21 12 0 2 0 0 2 0 1 0 0 0 0 0 0 5 5 7 50 100
54 80 0 0 0 0 0 0 0 9 14 26 44 4 10 39 34 0 0 13 15 56 69 28 32 38 29 26 28 31 27 20 20 5 0 7 0 0 0 0 0 0 39 5 5 100 95 89 94
36 4 0 0 3 5 3 0 0 4 1 5 30 52 3 5 2 0 0 0 0 24 11 6 21 33 26 27 31 32 29 23 21 0 0 0 0 84 72 2 34 0 0 0 0 1 6 100 100
5 4 0 0 0 0 0 0 0 0 0 3 2 3 5 34 5 0 0 0 0 0 0 0 0 5 15 15 19 22 18 4 0 1 84 42 0 51 78 90 0 0 0 0 0 0 0 1 90
5 0 0 0 0 5 0 0 0 0 0 0 0 0 0 0 0 0 0 0 0 0 0 0 0 0 0 0 0 0 2 5 4 13 0 20 0 92 35 8 1 6 0 0 0 0 0 0 0
1 0 0 0 0 2 0 0 0 0 0 0 0 0 0 0 0 0 0 0 0 0 0 0 2 0 0 0 0 0 1 1 0 0 0 0 0 0 23 11 9 0 0 0 0 0 0 0 0
0 0 0 1 0 0 0 0 0 0 0 0 0 0 0 0 0 0 0 0 0 0 0 0 0 0 0 0 0 0 0 0 0 0 0 0 0 0 0 1 44 0 6 0 0 0 0 0 0
0 0 0 3 10 5 5 5 0 0 0 0 0 0 0 0 0 0 0 0 0 0 0 0 0 0 0 2 1 1 5 2 0 3 0 0 0 0 13 6 14 24 43 23 0 0 0 2 7
0 0 0 5 5 43 13 69 0 0 0 0 0 0 0 0 0 0 0 0 0 0 0 0 0 0 7 2 11 15 11 5 6 0 0 0 0 0 19 15 2 0 0 0 0 0 0 0 4
0 0 0 5 5 5 58 73 5 4 0 0 0 0 0 0 0 0 0 0 0 0 0 0 0 5 0 2 0 0 0 1 0 0 0 0 0 0 0 0 2 0 0 0 0 0 0 0 13
0 0 0 0 5 5 5 3 21 7 2 1 0 0 0 0 2 4 1 0 0 0 0 0 0 0 0 0 10 19 9 8 0 0 0 1 2 0 1 61 12 2 3 5 5 0 4 2 4
0 0 0 0 5 2 49 2 8 12 5 0 5 4 3 0 0 0 0 5 0 0 0 0 0 0 0 0 4 1 2 6 0 0 0 1 36 5 4 5 5 5 5 5 5 5 5 5 4
0 0 0 6 5 5 5 3 0 4 0 5 0 6 33 1 0 0 0 0 0 0 0 0 0 0 0 0 0 0 3 0 0 0 0 5 19 9 5 36 30 23 5 5 14 6 5 5 7
0 3 54 91 47 4 0 0 0 0 2 0 0 84 87 5 0 0 0 0 0 0 0 0 0 0 0 0 0 0 0 0 0 0 5 100 84 22 14 77 72 36 5 23 12 7 5 5 6
0 4 87 83 85 5 0 0 0 0 0 0 0 20 5 4 0 0 0 0 0 0 0 0 0 0 0 0 0 0 0 0 0 0 2 46 98 100 100 67 9 5 26 4 5 5 5 5 55
0 0 3 59 5 4 5 0 0 0 2 0 4 1 0 0 3 0 0 0 0 0 0 0 0 0 0 0 0 3 0 47 1 31 5 6 27 89 100 51 23 5 5 5 5 5 5 5 42
0 0 1 99 9 4 2 0 0 0 0 0 0 0 0 0 5 5 0 0 0 0 4 0 30 0 1 0 0 0 0 69 12 61 85 7 8 15 100 100 90 7 50 21 10 64 5 5 43
0 0 3 70 7 3 0 0 0 0 0 0 0 0 0 0 0 2 0 0 0 0 1 4 0 0 0 0 0 1 53 4 100 1 5 59 78 92 51 100 92 21 5 5 5 78 57 6 36
0 0 0 2 5 2 0 0 0 0 0 0 48 3 0 0 0 0 0 0 0 0 0 0 0 0 0 0 0 22 98 31 29 57 100 100 100 100 90 59 94 22 85 49 86 100 99 5 5
0 0 0 0 0 3 0 0 0 0 0 3 5 5 0 0 0 0 2 0 0 0 0 0 0 0 0 0 46 92 100 62 83 100 100 100 100 100 100 98 92 100 95 100 100 100 100 23 39

GFSSGP_prec_cloud_021.txt.gz
Cloud_Cover
100 100 96 7 42 13 5 5 5 36 8 34 88 98 82 57 71 17 36 7 11 64 86 94 97 100 100 100 100 100 100 100 100 100 69 9 100 100 100 100 99 5 3 3 0 0 5 2 0
93 100 42 100 58 82 34 38 5 5 6 20 16 27 69 74 60 47 23 68 76 16 16 29 34 34 98 100 100 56 33 80 57 9 55 100 100 100 90 70 0 0 0 3 5 5 0 0 0
99 98 98 71 100 58 8 6 5 5 44 22 64 7 94 98 97 92 95 95 38 64 37 59 33 89 83 68 9 100 95 98 99 100 100 100 98 4 0 0 0 0 0 1 5 5 2 0 0
100 100 92 100 100 33 69 75 19 69 44 75 84 50 75 96 84 49 43 99 38 99 47 98 99 99 85 100 99 100 100 100 100 100 7 0 0 0 0 0 0 0 0 0 5 5 0 0 0
8 25 78 52 100 54 100 33 20 42 12 96 96 40 14 41 81 19 36 92 97 85 54 21 12 100 100 78 70 18 0 1 0 0 0 0 0 0 0 0 0 2 5 5 5 3 0 3 0
8 43 99 14 28 86 11 14 19 91 4 1 20 75 50 27 31 1 25 44 6 6 34 31 4 2 5 5 65 86 4 0 0 0 0 0 0 0 0 0 0 4 1 5 13 23 5 6 15
35 5 3 2 0 0 1 4 0 0 0 0 0 0 74 7 0 2 3 14 24 30 26 35 29 9 46 68 1 0 1 0 0 0 0 2 0 0 0 0 3 3 5 5 61 98 27 5 5
5 5 5 4 5 0 0 0 0 0 0 0 0 5 29 4 30 39 5 15 16 22 28 37 26 31 0 0 1 0 1 3 11 5 0 0 0 0 0 5 5 5 5 12 5 63 100 99 7
5 5 5 5 5 5 3 0 0 0 0 3 2 0 0 0 5 14 10 26 55 60 60 42 22 0 7 11 0 0 0 0 0 1 0 0 0 0 0 0 0 0 0 1 3 77 90 64 96
5 5 3 1 5 4 13 0 0 0 0 0 0 0 0 0 0 0 0 0 4 13 17 10 13 0 0 0 0 0 0 0 0 0 0 0 0 0 0 3 0 1 2 3 5 96 99 85 31
5 4 0 4 0 0 0 0 0 0 0 0 0 0 0 0 0 0 0 0 0 0 0 14 31 28 3 4 0 0 0 0 0 0 0 0 0 3 0 0 0 0 0 0 0 0 3 78 100
5 4 1 0 0 0 0 0 0 1 5 31 6 42 1 5 5 0 0 0 0 0 0 0 8 36 23 1 0 0 0 0 0 0 0 0 0 4 5 0 0 0 0 0 0 0 0 0 26
5 2 0 0 0 0 1 2 2 4 4 5 24 11 4 0 3 4 0 0 0 0 0 0 2 12 33 42 0 0 0 0 0 0 0 0 0 4 51 0 1 4 0 0 0 0 0 0 0
5 0 0 0 0 0 0 1 1 0 1 0 2 0 3 3 3 0 0 0 0 0 0 0 2 14 21 10 16 0 0 0 0 0 0 39 0 0 94 0 0 1 0 0 0 0 0 0 0
3 0 0 0 0 0 0 0 0 0 0 0 0 0 0 0 0 0 0 0 0 0 0 0 0 0 2 0 0 0 0 0 0 0 0 3 68 3 1 3 5 0 0 0 0 0 0 0 0
0 0 0 0 0 0 0 0 0 0 0 0 0 0 0 0 0 0 0 0 0 0 0 0 0 0 0 0 0 0 0 0 0 0 0 0 0 0 0 5 0 0 0 0 0 0 0 0 0
0 0 0 0 0 0 0 0 0 0 0 0 0 0 0 0 0 0 0 0 0 0 0 0 0 0 0 0 0 0 4 0 0 0 0 0 5 3 0 1 0 0 28 0 0 0 0 0 0
0 0 0 0 0 0 0 0 0 0 0 0 0 0 0 0 0 0 0 0 0 0 0 0 0 0 0 0 14 10 2 0 0 0 0 0 0 0 0 0 0 0 0 0 0 5 5 9 0
0 0 0 5 5 5 0 0 0 0 0 0 0 0 0 0 0 0 0 0 0 0 0 0 0 0 0 2 0 0 0 0 0 0 0 0 0 0 0 6 72 2 3 3 0 5 26 5 5
0 0 0 3 2 5 5 2 0 0 0 0 0 0 0 0 0 0 0 0 0 0 0 0 0 0 0 0 0 0 0 0 0 0 0 0 0 0 29 9 5 5 5 5 5 5 7 76 65
0 0 0 0 5 5 5 1 0 1 0 0 0 0 0 0 0 0 0 0 0 0 0 0 0 0 0 0 8 6 0 0 0 0 0 0 0 1 5 20 11 32 5 5 22 5 13 99 92
0 0 0 0 0 0 3 1 4 2 0 0 0 0 0 0 0 0 0 0 0 0 0 0 0 0 0 0 0 0 0 0 0 0 0 0 0 6 5 5 52 97 12 5 6 5 5 20 97
0 0 0 2 1 0 0 0 4 0 0 0 0 5 2 0 0 0 0 0 0 0 0 0 0 0 0 0 0 0 0 0 3 0 0 0 3 3 5 77 100 21 6 5 5 11 5 6 52
0 0 0 0 4 3 0 0 0 0 0 4 0 0 5 4 1 0 0 0 0 0 0 0 0 0 0 0 0 0 0 0 0 0 0 0 0 7 52 96 5 5 6 20 13 6 5 6 94
0 3 1 0 5 0 0 0 0 0 0 2 0 0 5 5 0 0 0 0 0 0 0 0 0 0 0 0 0 0 0 0 0 0 0 4 5 18 40 99 20 5 25 100 60 18 5 5 3
0 0 5 2 0 0 0 0 0 0 0 0 0 0 0 0 0 0 0 0 0 0 0 0 0 0 0 0 0 0 5 2 5 21 0 8 82 46 41 6 6 5 8 88 37 45 6 5 4
0 1 0 5 5 0 0 0 0 0 0 0 0 0 0 0 0 0 0 0 0 0 0 0 0 0 0 0 0 0 0 0 2 71 11 94 86 28 5 14 89 5 5 5 5 4 4 5 14
0 1 2 1 3 5 4 0 0 0 0 0 0 0 0 0 0 0 0 0 0 0 0 0 0 0 2 0 0 0 0 40 59 62 13 100 100 100 99 77 31 41 24 5 5 9 55 61 92
0 0 5 1 0 0 4 0 0 0 0 0 0 0 0 0 0 0 0 0 0 0 0 0 0 0 0 0 0 0 50 19 65 9 18 100 100 100 100 81 100 100 88 5 8 100 97 59 100
0 0 0 0 0 0 0 0 0 0 0 0 0 0 0 0 0 0 0 0 0 0 0 0 0 0 0 0 0 20 100 27 11 100 100 100 100 100 100 100 100 100 57 18 78 100 57 99 100

GFSSGP_prec_cloud_024.txt.gz
Cloud_Cover
82 94 25 90 100 87 100 78 100 99 93 43 83 37 62 31 75 58 99 98 100 70 54 86 100 100 100 100 100 100 100 100 99 83 87 51 29 100 100 89 0 0 0 0 0 1 5 3 0
100 74 86 61 99 100 46 65 100 88 38 13 49 35 19 85 71 97 97 100 96 100 92 89 64 93 90 100 97 88 96 44 60 74 100 100 100 100 5 0 0 0 0 0 0 2 5 3 0
79 97 86 73 74 66 11 47 42 9 38 6 44 9 10 97 87 90 100 100 100 100 98 80 13 96 100 96 89 91 77 99 100 100 95 56 11 0 0 0 0 1 2 5 1 5 3 0 0
100 100 14 32 95 43 5 5 5 4 5 14 94 9 28 71 80 38 100 100 100 64 100 49 7 95 100 100 100 100 100 48 16 0 0 0 0 0 0 0 3 5 5 5 5 5 3 5 0
100 100 98 70 100 94 47 4 43 50 5 56 55 18 14 41 16 58 65 93 68 100 100 98 100 90 5 22 71 49 5 4 0 0 0 0 0 0 0 0 0 0 0 5 6 6 2 5 4
98 100 100 100 89 100 15 31 99 97 96 99 74 42 92 28 28 59 43 55 96 84 60 9 0 2 5 5 5 19 0 0 0 0 0 0 0 0 0 0 2 4 5 5 48 19 5 5 23
5 47 62 46 43 42 72 97 80 26 60 20 2 0 23 20 29 53 66 83 72 80 95 56 24 0 1 0 0 0 0 0 0 0 0 0 0 0 0 0 2 4 5 5 77 5 5 5 5
100 93 66 5 5 0 0 0 0 0 0 0 0 0 4 7 6 23 59 58 98 48 100 61 73 17 0 0 0 0 0 0 0 1 0 0 0 0 0 0 0 0 0 9 85 100 97 11 5
5 55 90 28 6 4 0 0 0 0 0 0 0 1 0 0 0 2 22 38 61 62 95 88 92 25 29 29 2 0 0 0 0 0 0 0 3 0 0 17 0 0 0 3 74 100 100 100 23
5 82 95 9 5 5 3 0 0 0 0 0 0 0 0 0 0 0 0 8 21 45 94 29 34 31 34 43 6 1 0 0 0 0 1 0 0 0 1 0 0 0 0 0 0 0 2 71 100
5 83 5 4 5 4 2 0 0 0 0 0 0 0 0 0 0 0 0 0 0 2 2 1 3 21 28 29 4 6 0 0 0 0 0 0 0 16 22 40 83 69 20 47 94 91 100 28 22
5 1 2 0 0 0 0 0 0 0 0 0 0 0 0 0 0 4 0 0 0 0 0 6 7 3 1 5 0 0 1 0 0 0 0 0 1 15 11 59 69 10 98 1 35 93 25 72 83
5 0 0 0 0 0 0 5 0 0 0 1 4 15 1 0 0 2 1 0 0 0 0 0 2 30 28 14 0 0 0 0 0 0 0 0 18 37 44 42 0 17 21 85 4 48 51 72 93
4 0 0 0 0 0 0 0 0 0 0 0 0 0 0 0 0 1 0 0 0 0 0 0 0 2 3 2 1 0 0 0 2 4 1 0 0 23 33 6 65 17 22 44 11 1 8 21 100
3 1 0 0 0 0 0 0 0 0 0 0 0 0 0 0 0 0 0 0 0 0 0 0 0 0 0 0 0 0 0 0 11 7 12 99 53 4 33 84 75 16 88 0 19 9 81 47 64
5 4 3 0 0 0 0 2 0 0 0 0 0 0 0 0 0 0 0 0 0 0 0 0 0 0 1 0 0 0 3 21 27 7 1 7 13 0 37 54 3 6 0 79 20 17 71 33 0
5 34 10 0 0 0 0 65 0 0 0 0 0 0 0 0 0 0 0 0 0 0 0 0 0 0 0 0 4 5 19 3 32 29 0 9 13 2 4 0 36 9 14 18 67 5 6 1 4
5 6 26 0 0 0 0 17 0 0 0 0 0 0 0 0 0 0 0 0 0 0 0 0 0 0 0 7 18 1 0 3 0 23 8 22 2 6 28 17 6 5 59 43 80 5 0 1 3
98 2 5 5 0 5 0 0 0 0 0 0 0 0 0 0 0 0 0 0 0 0 0 0 0 0 0 7 5 6 2 0 19 24 22 23 20 1 15 26 3 0 28 20 3 4 0 1 4
3 5 5 8 5 4 4 0 0 0 0 0 0 0 0 0 0 0 0 0 0 0 0 0 0 0 0 0 0 13 46 29 7 23 19 4 17 21 9 9 38 5 4 5 6 5 5 5 0
0 2 5 71 5 5 5 0 0 0 0 0 0 0 0 0 0 0 0 0 0 0 0 0 0 0 0 0 3 16 8 3 23 3 3 0 3 2 13 5 1 2 5 0 0 1 4 5 5
0 0 4 77 7 5 0 5 5 1 0 0 0 0 0 0 0 0 0 0 0 0 0 0 0 0 0 0 0 0 0 0 0 0 0 0 0 0 0 5 0 5 5 5 4 0 0 0 3
0 0 0 37 40 90 66 4 5 2 0 0 0 0 0 0 0 0 0 0 0 0 0 0 0 0 0 0 0 0 0 0 0 0 0 0 0 4 100 7 1 5 5 5 5 5 0 0 2
0 2 0 5 92 91 81 46 5 4 0 0 0 0 0 0 0 0 0 0 0 0 0 0 0 0 0 0 0 0 0 0 0 0 0 0 0 90 100 88 65 16 5 5 2 4 5 0 0
0 0 2 5 46 53 95 35 2 6 4 4 2 0 0 0 0 0 0 0 0 0 0 0 0 0 0 0 0 0 0 0 0 6 2 0 3 50 100 99 54 32 72 3 0 0 4 5 1
0 0 1 5 66 76 22 16 0 0 0 3 5 0 0 0 0 0 0 0 0 0 0 0 0 0 0 0 0 0 0 0 0 7 0 1 23 84 87 100 100 79 19 5 86 5 5 5 9
0 0 0 51 79 90 14 6 0 1 4 0 0 0 0 0 0 0 0 0 0 0 0 0 0 0 0 0 0 0 0 0 0 1 5 96 8 70 100 80 100 100 100 66 94 72 54 70 29
0 0 0 2 75 100 5 11 0 0 0 0 0 0 0 0 0 0 0 0 0 0 0 0 0 0 0 0 0 0 0 0 1 59 3 5 4 84 98 100 100 95 100 100 86 92 100 5 37
0 0 0 4 5 38 8 0 0 0 0 0 0 0 3 4 0 0 0 0 0 0 0 0 0 0 0 0 0 0 0 0 5 37 51 64 6 14 100 100 100 100 100 97 100 100 58 68 86
0 0 0 0 2 5 13 4 5 1 0 0 0 0 0 0 0 0 0 0 0 0 0 0 0 0 0 0 0 0 0 0 0 5 78 4 96 80 44 100 100 100 100 100 100 99 100 90 100

GFSSGP_prec_cloud_027.txt.gz
Cloud_Cover
5 7 93 99 96 82 100 100 100 100 100 100 22 97 100 99 97 98 72 95 78 89 92 97 100 97 85 100 87 100 100 87 50 7 28 100 100 100 72 15 0 0 0 0 0 0 5 5 5
46 22 100 100 100 100 100 100 100 100 88 49 49 99 81 88 14 11 21 87 71 88 93 63 76 33 78 100 100 83 22 21 9 98 100 100 26 4 0 0 0 0 0 2 1 1 5 0 5
93 36 88 68 100 100 84 97 100 58 86 90 51 75 87 99 84 47 56 100 94 100 100 100 100 81 59 43 86 25 89 100 100 100 2 0 0 0 0 0 0 4 0 2 5 5 5 0 1
99 99 98 99 93 71 96 100 91 95 58 62 41 74 69 91 94 47 78 100 100 100 100 100 79 99 99 7 7 12 79 100 24 0 0 0 0 0 0 0 0 0 3 5 8 5 5 0 0
53 96 100 78 99 100 100 94 98 100 84 95 54 74 46 100 71 100 100 100 100 85 42 99 100 100 100 82 61 5 5 3 0 0 0 0 0 0 0 0 0 4 4 5 5 5 5 1 12
97 50 100 100 99 100 65 87 100 92 47 49 59 55 98 68 54 77 52 99 47 31 40 9 5 17 1 1 0 2 0 0 0 0 0 1 0 0 0 0 0 0 0 4 56 5 5 3 5
99 99 99 100 76 66 35 50 100 66 45 88 35 31 21 66 37 56 91 9 91 49 6 3 6 4 1 3 0 0 0 0 0 0 0 0 0 0 0 0 0 0 5 5 72 5 5 5 5
82 100 100 100 49 96 5 14 4 14 95 4 42 10 6 35 23 38 65 57 56 34 2 5 1 9 6 0 0 0 0 0 0 0 0 0 0 0 0 0 0 0 2 15 99 90 6 5 5
5 99 100 76 100 6 4 5 5 2 0 0 41 1 1 0 15 22 48 17 95 6 22 78 10 1 0 0 0 0 0 0 0 0 0 0 46 66 88 19 0 0 0 0 0 0 4 11 8
8 100 95 100 50 5 5 5 5 1 0 0 0 0 0 0 1 14 30 37 23 2 92 5 26 32 17 29 0 14 0 1 6 5 6 0 88 38 16 0 0 0 0 24 1 0 0 2 76
5 98 81 10 62 12 5 4 2 4 2 0 0 0 0 0 0 0 2 0 2 0 0 38 48 8 32 81 0 26 30 36 5 18 10 2 31 72 48 98 51 100 37 95 58 87 4 33 51
23 93 34 68 4 82 29 5 5 2 5 0 0 0 0 0 0 0 0 0 0 0 0 0 0 0 0 42 3 27 41 30 37 8 0 2 31 100 35 100 98 38 88 23 82 63 76 45 100
77 94 4 6 5 90 84 8 3 5 2 0 0 0 0 0 0 0 0 0 0 0 0 0 0 0 0 8 16 32 52 13 57 45 17 18 68 100 100 97 93 82 78 98 100 100 94 56 96
96 55 47 2 5 25 39 16 5 3 0 0 0 0 0 0 0 0 0 0 0 0 0 0 0 0 0 0 10 1 6 74 5 81 100 66 97 100 100 96 60 100 77 91 86 62 26 14 72
95 68 1 0 5 5 28 10 0 2 0 0 0 0 0 0 0 0 0 0 0 0 0 0 0 2 0 0 0 7 28 4 98 37 25 7 26 90 6 46 93 99 100 89 19 44 99 65 100
10 5 88 5 5 4 0 21 0 0 0 0 0 0 0 0 0 0 0 0 0 0 0 0 0 0 0 21 22 15 23 80 98 52 100 100 30 5 15 17 31 23 100 94 100 100 100 32 12
5 34 83 100 3 3 9 100 9 0 0 0 0 0 0 0 0 0 0 0 0 0 0 0 0 0 0 12 16 12 69 46 68 96 52 100 2 100 61 57 100 100 57 55 17 100 84 3 3
40 11 98 19 5 5 2 71 1 0 2 0 0 0 0 0 0 0 0 0 0 0 0 0 0 0 0 20 5 51 94 18 33 42 60 16 84 92 100 82 96 15 14 97 81 53 0 0 0
69 94 100 100 9 2 5 39 0 2 2 5 3 0 0 0 0 0 0 0 0 0 0 1 0 0 1 17 100 58 9 7 2 32 72 4 0 0 98 100 100 73 7 67 75 0 4 0 0
5 100 99 100 72 17 73 94 88 24 0 3 5 0 0 0 0 0 0 0 0 0 0 0 0 0 0 23 9 25 3 37 20 34 9 80 64 48 0 23 28 100 92 39 2 1 1 0 0
0 21 98 98 91 3 81 99 92 67 5 0 0 0 0 0 0 0 0 0 0 0 0 0 0 0 0 0 4 2 30 1 0 0 4 3 10 0 4 68 13 56 0 19 6 0 0 0 0
0 4 77 100 70 100 4 100 24 4 5 0 0 0 0 0 0 0 0 0 0 0 0 0 0 0 0 0 24 13 9 0 0 0 1 0 1 0 62 100 94 22 10 5 5 3 0 0 4
0 5 5 81 68 100 87 76 98 99 28 2 0 0 0 0 0 0 0 0 0 0 0 0 0 0 0 0 0 17 0 0 0 0 0 0 0 0 0 3 100 100 100 10 17 4 4 0 0
0 5 86 97 100 85 100 44 21 100 99 4 26 0 0 0 0 0 0 0 0 0 0 0 0 0 0 0 0 0 0 0 0 0 0 0 0 0 0 12 100 99 100 77 7 5 5 5 0
0 4 36 100 100 79 100 73 100 63 22 59 5 30 0 0 0 0 0 0 0 0 0 0 0 0 0 0 0 0 0 0 0 21 0 0 0 0 0 7 98 100 100 100 74 72 4 5 9
0 0 5 28 93 99 100 100 72 100 49 100 100 100 90 7 0 0 0 0 0 0 0 0 0 0 0 0 0 0 0 0 0 0 0 0 0 0 41 35 10 47 100 100 100 100 72 66 81
0 0 0 41 83 96 99 47 98 100 87 8 55 25 47 9 0 0 0 0 0 0 0 0 0 0 0 0 0 0 0 0 0 0 0 0 0 0 1 4 33 89 100 100 99 73 100 78 100
0 0 0 0 12 96 85 94 98 79 0 57 5 5 8 5 5 0 0 0 0 0 0 0 0 0 0 0 0 0 0 0 0 0 0 0 1 2 5 4 21 16 49 100 88 100 99 94 100
4 0 0 0 5 35 100 99 100 97 52 0 3 0 5 6 22 2 0 0 0 0 0 0 0 0 0 0 0 0 0 0 0 0 0 0 0 0 0 17 35 5 60 97 100 99 98 14 73
0 0 0 0 1 5 82 100 100 43 85 8 5 77 99 84 98 96 7 0 0 0 0 0 0 0 0 0 0 0 0 0 0 0 0 0 0 0 0 0 5 5 34 100 100 100 100 100 100

GFSSGP_prec_cloud_030.txt.gz
Cloud_Cover
5 37 100 100 100 100 100 100 100 98 44 95 95 100 100 100 100 71 52 95 63 74 42 99 99 30 28 100 100 100 100 100 5 5 20 100 100 88 0 0 0 0 2 5 6 7 9 5 5
5 79 100 100 100 100 100 100 100 100 86 99 100 100 100 53 5 47 60 95 55 70 61 6 5 5 86 100 100 100 77 38 6 73 100 100 57 0 0 0 3 0 0 1 2 5 3 5 5
19 100 100 100 100 100 100 100 100 100 100 100 100 83 26 5 8 25 47 100 93 96 26 74 100 100 100 100 100 59 33 87 58 2 0 0 3 0 0 0 0 0 0 2 5 5 5 2 1
14 87 100 100 100 100 100 96 88 100 100 41 14 99 32 48 12 7 85 92 100 100 100 100 100 100 100 88 100 100 41 3 0 0 0 6 0 0 0 0 0 0 0 0 5 3 5 5 0
5 100 100 100 100 100 100 90 87 85 94 81 48 72 18 30 95 98 26 91 77 87 74 90 32 28 75 77 63 2 0 0 0 4 0 0 0 0 0 0 0 0 0 3 0 0 4 5 6
48 70 93 100 34 100 88 89 45 88 73 26 79 95 94 6 61 75 52 48 57 96 22 1 0 0 0 0 0 0 0 0 0 0 0 0 0 0 0 0 0 0 0 2 4 1 0 0 3
99 94 100 95 100 100 100 86 80 85 29 22 22 93 74 95 11 43 32 10 2 8 7 5 8 5 5 0 0 0 0 0 0 0 0 0 0 0 0 0 0 0 0 5 1 1 0 1 0
100 98 7 100 99 94 58 100 100 8 100 2 0 94 100 83 3 0 4 14 81 5 4 0 0 0 0 0 0 0 0 0 0 0 0 0 0 0 0 0 0 0 0 1 0 0 2 5 5
100 92 88 87 73 79 86 7 45 100 36 96 59 72 22 7 99 2 8 94 46 0 1 10 2 0 0 0 0 0 0 0 0 0 0 0 74 15 100 0 0 0 0 5 0 0 0 76 33
81 100 98 100 97 0 4 4 0 2 0 73 64 60 2 33 2 0 0 0 1 0 68 0 8 0 4 0 0 0 0 0 0 0 0 0 94 44 3 1 2 66 83 54 12 56 6 100 98
100 100 100 100 100 0 1 5 4 10 4 6 34 0 0 8 36 54 0 0 1 20 64 0 12 0 20 34 0 0 0 0 0 54 0 7 100 46 88 90 87 47 100 50 91 87 40 100 99
95 100 100 100 2 8 11 1 5 11 54 4 0 0 0 0 0 2 36 2 0 0 2 13 57 0 92 90 0 0 0 28 36 8 76 96 53 100 40 10 38 92 100 98 98 79 82 9 9
100 98 44 45 0 54 22 2 0 63 65 2 0 0 0 0 0 0 5 0 0 0 80 100 0 0 45 100 0 100 100 68 10 89 4 8 100 100 81 65 15 32 34 100 51 54 0 25 0
100 98 100 53 43 95 63 43 0 2 8 2 0 0 0 0 0 0 2 0 0 0 35 10 0 0 0 0 8 14 13 99 84 94 85 0 57 72 100 0 28 36 31 100 19 12 0 6 56
35 96 12 1 18 90 36 83 0 4 2 0 0 0 0 0 0 0 0 0 0 0 0 0 0 0 0 0 0 0 0 2 98 58 16 2 2 5 0 0 0 87 3 55 2 100 98 37 2
0 34 90 65 36 57 56 100 98 71 1 2 0 0 0 0 0 0 0 0 0 0 0 0 0 0 0 0 4 0 0 6 85 11 89 49 85 23 0 0 0 30 5 6 76 1 84 68 8
0 8 30 95 99 72 100 100 100 90 2 1 0 0 0 0 0 0 0 0 0 0 0 0 0 24 0 0 0 0 45 25 54 84 83 2 24 16 0 48 91 98 76 73 99 0 99 0 0
0 1 58 10 85 99 100 100 100 6 5 4 2 0 0 0 0 0 0 0 0 0 0 0 0 1 56 0 0 2 17 99 76 45 29 88 0 86 6 49 14 100 98 12 97 32 92 0 0
0 4 5 100 100 69 63 100 100 3 5 5 3 0 0 0 0 0 0 0 0 0 0 0 0 0 22 0 0 1 0 30 0 0 12 4 95 1 29 10 100 94 56 65 100 6 0 0 0
0 84 61 100 98 100 74 5 1 63 0 0 1 0 0 0 0 0 0 0 0 0 0 0 0 0 0 0 2 0 0 40 0 1 61 23 2 100 67 6 83 74 70 84 1 0 0 0 0
0 4 26 100 87 6 93 72 64 79 3 0 1 0 0 0 0 0 0 0 0 0 0 0 0 0 0 0 0 18 97 51 100 19 100 82 2 1 13 26 65 100 100 72 11 0 4 0 0
0 0 38 99 100 11 14 98 5 48 1 0 0 0 0 0 0 0 0 0 0 0 0 0 0 0 0 0 6 0 0 0 32 6 35 96 5 0 38 12 59 72 97 97 44 5 0 0 0
0 0 13 89 99 98 35 86 78 85 100 48 0 0 0 0 0 0 0 0 0 0 0 0 0 0 0 0 0 0 0 0 0 38 31 0 0 0 75 100 3 0 5 78 82 100 20 42 10
0 0 0 42 95 85 67 82 8 39 61 100 74 0 0 0 0 0 0 0 0 0 0 0 0 0 0 0 0 0 56 0 0 59 0 0 0 0 0 0 0 0 0 2 16 80 72 100 82
0 0 0 0 5 56 97 80 41 100 90 100 96 83 4 0 0 0 0 0 0 0 0 0 0 0 0 0 0 0 0 0 0 0 0 0 0 0 0 0 5 5 6 78 27 70 99 31 54
1 0 0 0 0 4 1 88 9 27 4 100 100 100 96 45 0 2 0 0 0 0 0 0 0 0 0 0 0 0 0 0 0 0 0 0 0 0 0 5 51 0 25 8 42 100 91 48 100
31 0 0 0 4 5 63 73 0 63 39 100 43 86 33 74 72 0 0 0 0 0 0 0 0 0 0 0 0 0 0 0 0 0 0 0 1 0 0 0 37 70 1 10 5 8 68 27 77
42 98 0 0 1 0 2 16 65 71 73 100 91 87 63 26 73 46 0 0 0 0 0 0 0 0 0 0 0 0 0 0 0 0 0 0 0 0 0 62 0 0 4 3 5 40 44 99 100
0 5 3 0 0 0 0 1 0 48 68 30 5 69 96 59 31 4 0 0 0 0 0 0 0 0 0 0 0 0 0 0 0 0 0 0 0 0 0 16 0 0 5 5 5 5 5 7 9
0 0 5 0 0 0 0 0 32 100 19 25 96 88 80 1 0 5 2 0 0 0 0 0 0 0 0 0 0 0 0 0 0 0 0 0 0 0 0 0 3 11 0 0 1 4 5 16 29

GFSSGP_prec_cloud_033.txt.gz
Cloud_Cover
100 97 100 100 100 100 98 100 100 98 94 86 100 100 100 100 100 100 100 55 5 5 5 47 5 34 13 88 38 96 100 30 11 57 97 5 1 0 0 0 0 0 4 4 0 5 5 4 0
49 54 100 100 100 100 100 100 100 100 100 100 54 71 95 100 100 100 88 5 5 5 5 5 5 5 55 16 100 100 100 100 100 81 2 0 0 0 0 0 2 0 0 0 5 5 6 2 5
97 89 78 100 100 100 100 98 100 96 100 100 100 100 100 100 63 5 8 13 5 79 35 71 97 100 41 96 100 100 100 100 29 0 0 0 0 0 2 0 0 0 0 0 5 5 4 0 0
100 100 100 100 100 100 100 92 99 100 100 100 100 99 76 42 26 99 77 32 6 5 87 77 98 77 100 100 96 9 64 2 0 0 0 0 0 0 0 0 0 0 0 0 1 0 0 0 5
98 100 100 100 100 100 77 74 100 98 100 79 27 60 24 5 20 23 85 27 2 4 5 39 32 1 0 0 0 0 0 0 0 0 0 0 0 0 0 0 0 0 0 0 0 0 0 0 4
40 100 100 100 100 100 100 97 100 100 81 67 14 0 2 6 13 22 29 13 4 0 1 1 1 3 5 1 1 0 0 0 0 0 0 0 0 0 0 0 0 0 0 0 0 0 0 3 5
100 100 100 100 100 100 100 100 100 80 27 6 0 5 26 3 0 0 0 15 0 0 0 0 4 1 15 0 0 0 0 0 0 0 0 0 0 0 0 0 1 3 0 0 0 4 5 0 2
100 100 100 100 100 100 31 16 67 12 0 0 3 0 18 0 0 0 1 11 0 0 0 0 0 0 0 0 0 0 0 0 0 0 0 0 0 10 0 0 5 34 47 5 86 100 99 84 5
100 100 100 100 100 100 56 93 17 66 2 0 21 0 0 0 0 0 70 96 0 0 0 0 0 0 0 0 0 0 0 0 0 0 0 6 5 3 0 10 90 8 40 1 1 21 68 19 9
86 100 100 100 100 97 27 3 21 25 20 48 0 0 0 0 0 0 19 34 0 0 0 0 0 0 0 0 0 0 0 0 0 0 3 24 22 5 24 33 5 6 3 1 1 0 0 0 8
100 100 100 100 100 74 54 0 5 0 0 0 0 0 0 0 0 0 1 0 0 0 0 0 0 0 0 0 0 0 0 0 5 5 5 62 70 4 98 84 38 5 4 3 0 0 0 1 0
100 98 100 100 92 72 38 0 0 3 3 0 0 0 0 0 0 0 0 0 0 0 0 0 0 0 0 0 0 0 0 0 3 0 20 5 14 7 37 6 1 85 92 28 5 3 0 9 0
12 74 97 63 5 100 79 5 0 2 34 3 0 0 0 0 0 0 0 0 0 0 0 0 0 0 0 6 1 0 14 27 0 0 9 5 0 52 8 21 32 64 12 8 10 60 0 27 32
80 14 92 5 46 0 99 26 5 5 0 0 0 0 0 44 0 0 0 0 0 0 0 8 0 0 10 46 0 68 100 24 79 19 78 89 0 3 22 25 0 27 41 98 3 8 28 100 67
7 11 100 77 66 70 100 75 8 5 0 0 0 0 1 0 0 0 0 0 0 0 0 8 0 0 0 0 0 0 20 0 93 31 5 30 0 1 0 0 0 3 10 14 1 32 6 8 6
1 4 14 98 99 78 2 12 10 100 95 2 0 4 0 0 0 0 0 0 0 0 0 0 0 0 0 0 0 0 0 0 13 1 52 80 71 5 0 0 0 0 37 26 0 0 0 68 0
0 0 4 89 79 100 70 7 5 76 99 3 0 0 0 0 0 0 0 0 0 0 0 0 0 0 0 0 0 0 0 0 0 3 5 99 1 4 0 0 0 98 90 91 0 100 1 39 0
0 0 0 99 29 99 20 97 100 99 20 0 0 0 0 0 0 0 0 0 0 0 0 0 0 0 0 0 0 0 0 0 0 0 15 92 92 0 28 0 6 64 60 21 3 10 51 6 0
0 0 0 99 100 6 100 100 100 0 0 0 0 0 0 0 0 0 0 0 0 0 0 0 0 0 0 0 0 0 0 0 0 0 0 0 0 8 0 0 7 99 61 57 99 5 0 2 1
0 0 0 99 62 100 67 100 98 8 0 0 0 0 0 0 0 0 0 0 0 0 0 0 0 0 0 0 0 0 0 0 0 19 38 0 30 13 16 0 0 45 60 5 84 88 80 0 0
0 0 0 67 74 100 88 77 4 1 0 0 0 0 0 0 0 0 0 0 0 0 0 0 0 0 0 0 0 0 0 11 27 0 28 100 79 7 0 5 22 0 0 1 5 1 32 70 3
0 0 0 21 45 29 98 4 5 5 0 0 0 0 0 0 0 0 0 0 0 0 0 0 0 0 0 0 0 0 0 3 0 96 66 0 0 0 0 0 0 0 0 0 0 0 0 3 5
0 0 0 56 100 44 100 98 100 5 4 5 4 2 0 0 0 0 0 0 0 0 0 0 0 0 0 0 0 0 0 0 0 22 11 0 0 0 0 0 0 0 0 5 4 5 5 5 12
0 0 0 5 100 84 90 99 48 26 2 96 30 5 4 0 0 0 0 0 0 0 0 0 0 0 0 0 0 0 0 0 0 0 0 0 0 0 0 0 0 12 20 5 4 5 5 97 34
4 0 0 2 16 5 8 61 2 78 42 5 34 77 3 0 0 0 0 0 0 0 0 0 0 0 0 0 0 0 0 0 0 0 0 0 0 0 0 4 29 16 0 6 45 5 5 5 30
5 0 0 0 0 0 2 3 0 3 100 88 9 75 96 95 0 0 0 0 0 0 0 0 0 0 0 0 0 0 0 0 0 0 0 0 0 0 0 0 57 6 0 0 0 5 5 5 4
0 5 1 0 0 0 0 0 0 0 5 3 90 100 100 100 100 39 34 0 0 0 0 0 0 0 0 0 0 0 0 0 0 0 0 0 0 0 0 0 1 0 0 0 0 0 1 2 5
0 1 0 0 0 0 0 0 0 51 32 8 24 100 90 100 100 100 35 13 0 0 0 0 0 0 0 0 0 0 0 0 0 0 0 0 0 0 0 49 0 0 0 0 0 0 0 0 0
0 0 0 0 0 0 3 0 0 98 57 78 2 63 81 100 100 0 0 11 22 0 0 0 0 0 0 0 0 0 0 0 0 0 0 0 0 0 0 0 0 0 4 4 0 0 0 39 3
0 0 0 0 0 0 0 4 0 79 63 2 42 100 99 38 95 5 0 0 0 0 0 0 0 0 0 0 0 0 0 0 0 0 0 0 0 0 0 0 0 0 0 1 0 0 0 0 4

GFSSGP_prec_cloud_036.txt.gz
Cloud_Cover
54 100 100 94 100 100 100 99 100 100 100 100 100 96 100 98 49 91 43 100 82 4 5 7 5 5 25 52 5 14 90 93 100 100 99 0 0 0 0 0 0 12 0 0 7 7 5 0 0
93 100 83 100 100 100 100 100 100 83 100 80 67 92 98 100 68 83 100 96 22 5 5 5 3 5 5 10 93 92 100 100 68 7 0 0 0 0 0 0 0 0 2 5 5 5 5 3 1
78 83 82 77 96 100 100 99 100 100 100 91 100 100 100 100 100 100 100 34 87 3 2 39 76 8 19 13 100 100 66 1 0 0 0 0 0 0 0 0 0 0 0 0 5 5 5 5 5
100 95 97 100 85 100 100 99 86 100 100 100 100 100 73 100 98 71 40 2 1 1 2 5 8 99 36 100 0 0 0 0 0 0 0 0 0 0 0 0 0 0 5 0 2 5 5 3 5
22 100 100 100 96 96 100 19 50 86 100 97 100 100 91 94 73 0 2 5 5 5 3 0 0 0 0 1 3 0 0 0 0 0 0 0 0 0 0 0 0 0 0 4 5 4 5 5 5
98 100 100 100 100 55 100 82 92 100 100 100 100 100 68 27 1 4 5 3 68 90 1 6 0 0 0 0 0 0 0 0 0 0 0 0 0 0 0 2 5 5 0 0 5 5 3 5 4
100 100 100 100 100 100 100 100 100 100 99 96 100 100 3 0 0 0 0 0 0 0 0 0 0 1 0 0 1 0 0 0 0 0 0 0 0 1 4 5 1 2 59 100 84 26 5 4 83
100 100 100 100 100 100 100 100 100 100 100 96 96 21 36 0 0 0 0 0 0 0 0 0 0 0 0 0 9 0 0 0 0 2 0 1 4 54 97 5 5 0 0 0 5 5 7 97 53
100 100 100 100 100 100 100 100 48 49 5 4 0 0 0 0 0 0 0 0 0 0 0 0 0 4 0 0 0 0 0 0 0 4 56 3 37 61 6 4 2 5 0 0 0 0 3 0 2
100 100 100 99 100 91 100 100 100 2 4 5 2 0 0 0 0 0 0 0 0 0 0 0 0 0 0 0 0 0 0 0 2 34 95 0 1 51 5 5 5 5 5 2 0 0 0 0 9
100 100 100 98 87 100 98 100 100 12 0 0 0 0 0 0 0 0 0 0 0 0 0 0 0 0 0 0 0 5 0 0 0 5 28 26 4 0 0 0 1 0 5 4 0 0 2 0 3
81 81 69 84 100 78 92 96 72 27 0 0 0 0 0 0 0 0 0 0 0 0 0 0 0 0 0 0 0 0 0 0 0 0 1 0 4 0 0 0 0 0 5 3 3 10 0 0 0
5 80 41 15 10 22 26 37 10 2 0 0 0 0 0 0 0 0 0 0 0 0 0 0 0 0 0 0 0 0 0 0 0 0 6 5 0 2 0 23 0 0 6 90 56 4 0 0 19
1 41 58 100 100 89 7 50 5 1 1 0 0 0 0 0 0 0 0 0 0 0 0 0 0 0 0 0 0 0 0 0 5 43 16 80 0 0 0 15 0 0 59 1 0 0 0 0 20
0 4 5 100 100 70 75 3 3 3 0 0 0 0 0 0 0 0 0 0 0 0 0 0 0 0 0 0 0 0 83 37 37 84 0 12 0 0 0 0 0 0 21 0 0 0 0 0 0
0 0 3 5 56 51 93 14 5 1 2 0 0 0 0 3 0 0 0 0 0 0 0 0 0 0 0 0 0 0 30 16 28 5 0 0 0 0 0 0 0 0 12 28 0 0 10 25 92
0 0 0 26 32 60 64 47 5 5 70 100 10 0 0 0 0 0 0 0 0 0 0 0 0 0 0 0 0 0 0 0 0 0 0 0 0 0 0 0 0 1 24 16 0 48 68 30 0
0 0 2 59 2 25 14 10 2 100 99 41 0 0 0 0 0 0 0 0 0 0 0 0 0 0 0 0 0 0 0 0 0 0 0 3 80 86 2 0 0 0 97 48 4 3 3 1 0
0 0 3 5 60 4 51 6 5 5 4 0 0 0 0 0 0 0 0 0 0 0 0 0 0 0 0 0 0 0 0 0 0 0 0 0 0 13 22 0 0 0 0 100 3 5 16 32 15
0 0 1 0 0 8 92 49 100 5 0 2 0 0 0 0 0 0 0 0 0 0 0 0 0 0 0 0 0 0 0 0 0 0 0 0 0 48 0 0 0 0 0 0 0 0 0 0 2
0 0 0 0 0 5 97 99 96 44 5 2 0 0 0 0 0 0 0 0 0 0 0 0 0 0 0 0 0 0 0 0 0 0 0 0 36 50 2 0 0 0 0 0 0 0 0 0 0
0 0 0 0 0 65 18 83 100 5 5 1 0 0 0 0 0 0 0 0 0 0 0 0 0 0 0 0 0 0 0 0 0 0 0 0 8 0 0 0 0 0 0 0 0 0 0 0 5
0 0 0 1 0 2 70 84 50 5 1 2 0 1 0 0 0 0 0 0 0 0 0 0 0 0 0 0 0 0 0 0 0 0 100 0 0 0 0 0 0 0 0 0 0 0 0 0 2
0 0 0 4 3 1 3 0 17 8 2 0 0 1 1 0 0 0 0 0 0 0 0 0 0 0 0 0 0 0 0 0 0 0 0 0 0 0 0 0 0 0 0 0 0 0 0 0 0
0 0 0 0 2 0 0 0 0 50 21 0 0 0 2 0 0 0 0 0 0 0 0 0 0 0 0 0 0 0 0 0 0 0 0 0 0 0 0 0 0 0 0 0 0 0 0 0 0
0 0 0 0 0 0 0 0 0 2 5 0 0 0 0 3 7 2 0 0 0 0 0 0 0 0 0 0 0 0 0 0 0 0 0 0 0 0 0 0 0 0 0 0 0 0 8 53 0
0 0 0 0 0 0 0 0 0 37 23 2 0 3 1 0 3 16 32 9 0 0 0 0 0 0 0 0 0 0 0 0 0 0 0 0 0 0 0 0 0 0 0 0 0 0 0 30 0
0 0 0 0 0 0 0 0 5 0 0 0 0 5 0 0 45 23 57 100 30 9 0 0 0 0 0 0 0 0 0 0 0 0 0 0 0 0 0 0 0 0 0 0 0 0 0 0 0
0 0 0 0 0 0 0 1 2 0 0 5 66 4 2 5 8 100 100 100 100 100 47 0 0 0 0 0 0 0 0 0 0 0 0 0 0 0 0 0 0 0 0 0 4 5 3 3 1
0 0 0 0 0 0 0 55 0 0 0 5 5 5 5 6 100 100 100 100 100 100 1 0 0 0 0 0 0 0 0 0 0 0 0 0 0 0 0 0 0 0 0 1 5 0 0 5 11

GFSSGP_prec_cloud_039.txt.gz
Cloud_Cover
61 81 67 96 68 100 100 96 82 77 56 98 91 46 58 29 40 52 97 100 100 100 100 56 0 3 5 2 4 5 50 88 64 2 0 0 0 0 0 0 0 0 0 0 0 0 28 93 96
28 61 100 99 98 100 100 73 100 41 49 37 85 100 100 100 100 100 100 100 100 100 20 0 1 5 5 5 34 46 100 15 0 2 1 0 0 0 0 0 0 4 0 0 0 1 4 3 0
90 47 91 100 81 95 92 74 17 72 7 74 91 50 54 100 100 100 100 92 74 2 0 0 4 7 5 4 28 26 2 0 0 0 0 0 1 0 0 0 0 0 9 15 1 0 0 0 0
76 31 31 83 100 97 48 86 99 5 54 77 50 35 53 93 97 100 49 3 0 2 5 8 1 0 0 0 0 0 0 0 0 0 0 0 0 0 0 0 0 0 7 9 6 5 0 0 0
51 66 84 100 71 37 71 100 100 100 85 41 46 70 65 58 20 10 25 2 4 2 6 5 0 0 0 0 0 0 0 0 0 0 0 0 0 0 0 2 1 0 13 4 4 0 4 2 0
86 100 100 100 99 98 88 95 73 100 86 56 100 100 100 99 79 76 2 1 0 0 0 0 0 0 0 0 0 0 0 0 0 0 0 0 0 0 0 1 5 5 5 5 2 5 5 5 5
58 100 100 100 100 100 92 82 78 98 82 91 100 100 100 99 60 0 0 0 0 2 0 0 0 0 0 0 0 0 0 0 0 0 1 5 5 3 2 0 0 0 1 5 5 56 11 100 100
6 100 100 100 100 100 100 97 100 100 100 100 100 81 76 1 0 0 0 0 1 17 0 1 0 0 0 0 0 0 0 0 0 0 0 5 5 5 5 0 5 0 0 0 0 14 10 97 100
5 100 100 100 100 100 99 12 13 84 31 55 48 98 5 0 0 0 0 2 4 22 16 11 10 3 1 0 0 0 0 0 1 4 1 22 4 55 4 5 5 5 0 0 0 0 5 5 5
64 100 100 100 100 100 92 25 98 98 13 58 100 66 12 0 0 0 9 17 2 13 42 16 24 21 12 0 0 0 0 0 3 5 2 0 1 0 0 0 3 5 5 3 4 0 23 5 0
59 100 82 100 100 100 90 15 25 98 25 22 5 14 18 0 0 0 0 0 0 1 20 12 19 15 4 0 4 23 13 8 8 2 0 0 0 0 3 0 3 28 65 39 84 6 2 4 3
29 5 90 46 34 95 100 100 100 100 100 24 0 0 0 0 0 0 0 0 0 5 0 0 0 0 3 0 11 11 26 18 20 0 0 0 6 0 0 1 0 54 67 5 2 0 0 2 0
96 5 60 99 100 100 100 100 100 28 5 1 0 0 0 0 0 0 0 0 0 0 0 0 0 0 0 0 4 14 18 3 0 0 0 0 0 0 0 0 0 0 1 8 89 0 0 0 19
8 5 72 54 52 20 44 68 0 0 5 2 0 0 0 0 0 0 0 0 0 0 0 0 0 0 0 0 0 0 0 0 0 3 0 0 0 0 0 0 0 0 45 8 9 28 4 0 19
0 0 3 80 99 97 100 26 5 4 5 59 5 0 0 0 0 0 0 0 0 0 0 0 0 0 0 0 0 0 0 0 42 100 4 19 5 0 34 0 0 0 11 0 0 0 0 0 0
0 0 2 5 5 4 28 3 1 14 36 90 6 0 0 0 0 0 0 0 0 0 0 0 0 0 0 0 0 0 0 0 78 86 34 0 0 5 2 0 0 0 0 58 0 0 11 54 98
0 0 5 5 5 5 4 7 0 5 65 100 39 8 0 0 0 0 0 0 0 0 0 0 0 0 0 0 0 0 0 0 0 0 0 0 0 0 0 0 0 0 0 7 25 1 78 39 4
0 0 5 5 4 10 5 8 4 4 5 28 0 4 0 0 0 0 0 0 0 0 0 0 0 0 0 0 0 0 0 0 0 0 0 0 3 5 89 30 0 0 3 57 34 0 0 0 0
0 0 0 0 2 0 5 4 5 20 3 47 68 0 0 0 0 0 0 0 0 0 0 0 0 0 0 0 0 0 0 0 0 0 0 0 2 3 0 100 6 3 0 4 2 0 0 0 0
0 0 0 3 0 0 0 5 19 5 5 5 42 4 0 0 0 0 0 0 0 0 0 0 0 0 0 0 0 0 0 0 0 0 0 0 0 7 100 39 0 0 0 0 0 0 0 0 0
0 0 0 0 5 0 1 61 59 4 3 4 0 4 0 0 0 0 0 0 0 0 0 0 0 0 0 0 0 0 0 1 0 0 0 0 0 95 85 0 0 0 0 0 0 0 0 0 1
0 0 0 0 4 1 0 69 8 5 1 0 0 0 0 0 0 0 0 0 0 0 0 0 0 0 0 0 0 0 0 0 0 0 0 0 0 32 0 0 0 0 0 0 0 0 0 0 1
0 0 0 0 5 4 2 3 0 5 2 0 0 0 0 0 0 0 0 0 0 0 0 0 0 0 0 0 0 0 0 0 0 0 0 0 0 0 0 0 0 0 0 0 0 0 0 0 0
0 0 0 0 1 2 0 0 5 3 0 0 0 0 0 0 0 0 0 0 0 0 0 0 0 0 0 0 0 0 0 0 0 0 0 1 7 0 0 0 0 0 0 0 0 0 0 0 0
0 0 0 0 0 4 0 0 0 0 1 1 0 5 0 5 1 0 0 0 0 0 0 0 0 0 0 0 0 0 0 0 0 0 0 4 19 10 0 0 0 0 0 0 0 0 0 0 0
0 0 0 0 0 0 0 0 0 0 4 5 5 5 5 2 0 0 0 0 0 0 0 0 0 0 0 0 0 0 0 0 0 0 0 0 0 0 0 0 0 0 0 0 0 0 0 0 0
0 0 0 0 0 0 0 8 0 0 5 5 1 5 0 0 0 0 2 0 0 0 0 0 0 0 0 0 0 0 0 0 0 0 0 0 0 0 0 0 0 0 0 0 0 0 0 0 0
0 0 0 0 0 0 0 4 0 0 0 5 0 0 0 0 5 0 4 5 4 0 0 0 0 0 0 0 0 0 0 0 0 0 0 0 0 0 0 0 0 0 0 0 0 0 0 0 0
0 0 0 0 0 0 1 61 50 1 0 0 0 0 0 0 4 1 5 5 5 5 5 1 1 2 0 0 0 0 0 0 0 0 0 0 0 0 0 0 0 0 0 0 0 0 0 0 0
0 0 0 0 0 0 0 4 5 100 1 0 0 0 0 0 0 10 43 52 84 83 78 68 100 100 88 0 0 0 0 0 0 0 0 0 0 0 0 0 0 0 0 0 2 2 0 0 0

GFSSGP_prec_cloud_042.txt.gz
Cloud_Cover
100 97 95 92 95 98 100 100 100 100 100 93 84 61 32 100 100 100 100 100 100 100 66 10 6 100 93 5 5 5 4 79 3 0 0 3 0 0 4 0 0 0 5 1 0 69 100 100 7
86 100 99 100 88 100 86 99 10 9 86 23 45 44 88 100 100 100 100 100 100 99 8 5 5 17 10 0 0 0 0 0 0 0 0 0 0 4 0 2 0 13 2 0 6 1 7 27 3
99 73 74 100 77 88 97 22 5 10 20 5 5 30 77 75 41 62 84 60 97 57 0 4 5 0 0 0 0 0 0 0 0 0 0 0 0 0 0 2 12 1 0 0 0 0 0 1 2
39 29 75 91 59 87 100 45 96 5 19 68 90 36 18 98 93 52 99 100 90 14 0 3 0 0 0 0 0 2 0 0 0 6 0 0 0 0 0 7 2 0 0 0 0 0 0 0 0
44 73 74 100 94 91 41 44 28 66 43 90 61 81 87 36 100 99 98 97 41 4 0 6 0 0 0 29 1 0 0 0 0 0 0 0 0 0 0 0 6 0 2 0 0 0 0 1 0
98 100 96 100 19 63 63 62 68 79 100 100 96 60 87 100 100 19 0 0 0 0 0 10 0 0 0 0 0 1 0 0 0 0 0 2 0 0 0 0 0 0 5 3 2 3 82 80 95
87 99 100 82 100 93 49 5 81 80 84 99 66 83 100 79 76 3 0 0 0 0 0 0 0 0 0 0 0 0 0 0 0 0 0 0 0 0 0 0 0 0 0 5 3 10 78 100 96
48 51 87 99 100 100 100 89 100 98 100 80 69 19 98 58 80 3 0 0 2 3 0 2 0 0 0 0 0 0 0 0 0 2 5 0 0 0 0 0 0 0 0 0 0 1 5 72 100
38 78 91 100 36 44 100 95 95 49 3 1 1 5 51 25 10 35 55 53 56 27 16 14 9 0 0 0 0 0 0 0 2 0 4 0 0 0 0 0 3 5 5 14 100 43 5 5 5
84 22 100 97 94 100 14 2 4 3 68 53 2 5 6 7 31 59 100 98 65 47 62 25 23 13 8 0 0 0 0 0 1 0 0 0 0 4 0 0 5 5 2 0 0 3 0 5 4
100 93 95 100 29 12 61 95 96 15 5 19 82 81 41 30 28 41 55 24 13 20 63 29 28 22 19 2 3 11 1 0 1 0 0 0 0 1 0 1 9 5 0 0 0 0 1 0 0
14 75 13 5 9 58 53 37 100 70 87 54 70 100 100 22 25 10 6 0 0 7 38 30 32 41 28 9 18 13 18 12 11 0 0 0 1 0 5 2 5 0 0 0 0 0 3 0 0
26 16 35 75 38 6 5 85 84 92 100 100 100 70 1 0 0 0 0 0 0 0 0 13 35 49 29 9 20 22 25 15 2 0 0 0 0 6 0 0 6 1 0 0 18 2 0 0 0
67 5 31 11 4 2 23 76 48 54 36 100 56 0 0 0 0 0 0 0 0 0 0 0 22 26 5 3 8 14 14 1 0 0 0 0 0 0 0 0 0 21 31 1 0 0 0 0 30
19 5 5 5 5 4 4 0 5 54 78 100 68 0 0 0 0 0 0 0 0 0 0 0 0 2 6 0 0 0 0 0 0 0 29 12 0 0 0 0 0 0 0 0 0 0 0 0 0
5 4 3 2 5 4 5 5 5 5 64 96 83 3 0 0 0 0 0 0 0 0 0 0 0 0 0 0 0 0 0 0 0 62 69 23 0 0 0 0 0 0 0 0 0 0 0 68 97
0 0 0 1 1 3 4 44 5 5 6 74 30 0 4 0 0 0 0 0 0 0 0 0 0 0 0 0 0 0 0 0 0 86 96 0 0 0 0 17 0 0 0 0 39 0 8 54 78
0 0 0 0 1 0 3 9 5 57 5 35 4 12 65 0 0 0 0 0 0 0 0 0 0 0 0 0 0 0 0 0 0 0 0 0 0 0 24 98 11 0 14 92 66 9 0 0 0
0 0 0 5 4 0 5 5 2 26 5 13 100 9 0 0 0 0 0 0 0 0 0 0 0 0 0 0 0 0 0 0 0 0 0 0 0 5 100 59 100 1 0 0 0 0 0 0 0
0 0 0 0 2 0 0 3 0 4 19 32 81 100 13 0 0 0 0 0 0 0 0 0 0 0 0 0 0 0 0 0 0 0 0 0 0 0 99 70 57 0 0 0 0 0 0 0 0
0 0 0 0 0 0 0 0 1 12 4 2 3 40 35 0 0 0 0 0 0 0 0 0 0 0 0 0 0 0 0 0 0 0 0 0 0 0 63 96 0 0 0 0 0 0 0 0 0
0 0 0 0 0 0 0 0 2 8 2 0 0 0 0 0 0 0 0 0 0 0 0 0 0 0 0 0 0 0 0 0 0 0 0 0 0 0 0 0 0 0 0 0 0 0 0 0 0
0 0 0 0 0 1 0 0 0 1 0 0 0 0 0 0 0 0 0 0 0 0 0 0 0 0 0 0 0 0 0 0 0 0 0 0 0 0 0 0 0 0 0 0 0 0 0 0 0
0 0 0 0 0 4 0 0 0 64 82 7 0 0 1 0 0 0 0 0 0 0 0 0 0 0 0 0 0 0 0 0 0 0 0 0 0 0 0 0 0 0 0 0 0 0 0 0 0
0 0 0 0 0 66 0 0 0 7 0 0 0 0 0 0 0 0 0 0 0 0 0 0 0 0 0 0 0 0 0 0 0 0 0 0 0 0 0 0 0 0 0 0 0 0 0 0 0
0 0 0 0 2 0 0 4 0 2 0 0 0 5 9 0 5 1 3 0 0 0 0 0 0 0 0 0 0 0 0 0 0 0 0 0 0 0 0 0 0 0 0 0 0 0 0 0 0
0 0 0 0 0 0 4 13 0 0 0 3 3 5 3 0 0 0 0 0 0 0 0 0 0 0 0 0 0 0 0 0 0 0 0 0 0 0 0 0 0 0 0 0 0 0 0 0 0
0 0 0 0 0 0 0 1 0 0 0 0 5 1 0 0 4 0 0 1 5 3 0 0 0 0 0 0 0 0 0 0 0 0 0 0 0 0 0 0 0 0 0 0 0 0 0 0 0
0 0 0 0 0 0 0 0 0 0 0 0 4 39 21 0 0 5 7 13 23 73 4 0 0 0 0 0 0 0 0 0 0 0 0 0 0 0 0 0 0 0 0 0 0 0 0 2 2
0 0 0 0 0 0 0 0 0 0 0 2 0 31 48 5 0 3 5 65 77 80 78 0 0 5 31 4 57 55 5 1 0 0 0 0 0 0 0 0 0 0 0 0 0 0 0 0 5

GFSSGP_prec_cloud_045.txt.gz
Cloud_Cover
95 88 56 64 97 100 99 91 99 75 49 64 100 100 100 100 100 100 100 100 100 100 100 90 65 5 5 5 0 0 0 0 0 0 1 7 0 1 1 0 1 0 0 36 38 54 5 4 3
83 100 87 17 97 100 63 42 71 30 55 67 54 93 98 98 99 95 89 75 95 100 100 40 1 3 5 0 0 0 0 0 0 10 6 3 5 1 6 0 0 0 3 5 8 6 2 67 72
35 100 90 100 47 99 87 5 98 36 87 100 100 72 21 72 95 79 71 85 100 100 39 1 0 4 0 0 0 0 0 0 2 5 4 0 0 5 3 8 0 1 0 0 0 0 0 0 0
73 44 85 63 23 74 74 5 70 12 64 46 6 24 45 88 75 59 90 88 58 0 2 0 0 0 0 0 0 0 0 13 9 0 0 0 0 7 6 0 9 0 0 0 0 0 1 4 1
80 29 54 67 38 34 36 44 66 97 46 42 15 83 95 98 26 67 59 54 0 0 12 0 0 0 2 0 0 9 0 0 0 1 3 0 1 1 14 0 2 0 4 0 0 1 5 78 98
6 65 40 76 58 33 45 5 5 30 34 17 100 59 85 70 47 64 64 46 3 4 30 1 0 0 0 2 4 13 4 0 14 11 2 0 0 0 0 0 0 1 0 5 5 3 2 6 2
13 43 77 62 100 28 6 4 4 5 5 2 16 52 100 99 42 42 44 40 24 28 31 10 0 0 0 0 1 9 0 16 17 0 0 0 0 0 0 0 0 0 2 3 5 5 5 5 5
5 74 25 16 76 71 12 5 5 5 5 5 1 45 89 99 46 37 32 30 43 38 32 37 0 0 0 0 0 5 8 6 0 0 0 0 0 0 0 0 0 3 5 2 0 0 0 2 5
32 12 71 35 49 38 5 6 10 37 29 2 0 0 2 62 74 47 37 62 64 55 12 1 0 0 0 0 0 0 0 0 0 0 0 0 0 0 0 0 0 1 0 0 0 0 0 0 0
5 6 34 95 57 30 81 50 3 65 15 0 9 5 5 49 67 44 43 30 20 30 17 0 0 0 0 0 0 0 0 0 0 0 0 0 0 0 0 0 0 0 0 0 1 4 0 0 0
5 5 20 51 44 15 5 0 0 0 0 5 5 4 28 81 87 26 3 0 0 0 0 0 0 0 0 0 0 0 0 0 0 0 0 0 0 0 4 5 0 0 0 0 5 5 0 0 0
4 12 5 74 68 48 67 5 5 5 41 51 5 98 100 97 4 0 0 0 0 0 0 0 0 0 0 0 0 0 0 0 0 0 0 0 0 0 0 0 5 0 0 4 0 0 0 0 0
5 5 5 5 5 27 32 30 61 5 5 5 85 100 63 0 0 0 0 0 0 0 0 0 1 15 4 9 1 0 0 0 0 0 0 0 0 0 0 0 0 0 0 0 0 1 3 2 2
2 5 2 1 0 5 2 9 22 57 44 18 91 16 0 0 0 0 0 0 0 0 0 0 0 5 16 4 16 0 0 0 0 0 0 0 0 0 0 0 0 0 0 0 0 2 0 41 51
5 4 2 0 0 5 0 0 5 4 36 25 14 0 0 0 0 0 0 0 0 0 0 0 0 0 28 13 0 0 0 0 0 0 0 0 0 0 0 0 0 0 0 0 0 0 0 60 100
5 4 4 2 0 1 14 41 16 0 94 6 6 12 0 0 0 0 0 0 0 0 0 0 0 0 2 2 0 0 0 0 0 0 0 18 0 0 0 0 0 0 0 3 0 0 0 68 85
0 0 1 2 0 5 6 19 5 12 5 5 94 0 0 0 0 0 0 0 0 0 0 0 0 0 0 0 0 0 0 0 0 0 0 1 0 0 0 1 1 0 0 3 51 50 9 18 53
0 0 0 1 0 1 29 44 5 5 5 4 90 1 3 0 0 0 0 0 0 0 0 0 0 0 0 0 0 0 0 0 0 0 0 90 0 0 0 100 99 34 17 67 98 3 5 0 0
0 0 0 3 4 0 4 99 38 5 4 1 2 5 5 5 4 0 0 0 0 0 0 0 0 0 0 0 0 0 0 0 0 0 0 0 0 0 0 89 48 85 0 0 0 0 0 2 5
0 0 0 0 4 0 4 82 5 4 0 18 86 78 44 0 5 0 0 0 0 0 0 0 0 0 0 0 0 0 0 0 0 0 0 0 0 0 0 97 23 74 0 0 0 0 0 0 3
0 0 0 0 2 0 0 0 4 5 3 0 4 16 79 7 0 0 0 0 0 0 0 0 0 0 0 0 0 0 0 0 0 0 0 0 0 0 0 99 45 0 0 0 0 0 0 0 0
0 0 0 0 0 0 0 0 0 4 5 5 0 0 4 0 0 0 0 0 0 0 0 0 0 0 0 0 0 0 0 0 0 0 0 0 0 0 0 0 0 0 0 0 0 0 0 0 0
0 0 0 0 0 0 0 0 0 0 0 0 0 0 0 0 0 0 0 0 0 0 0 0 0 0 0 0 0 0 0 0 0 0 0 0 0 0 0 0 0 0 0 0 0 0 0 0 1
0 0 0 0 5 23 2 0 0 0 26 2 3 0 0 0 0 0 0 0 0 0 0 0 0 0 0 0 0 0 0 0 0 0 0 0 0 0 0 0 0 0 0 0 0 0 0 0 3
0 0 0 0 0 99 0 0 0 0 3 5 5 5 0 0 0 0 0 0 0 0 0 0 0 0 0 0 0 0 0 0 0 0 0 0 0 0 0 0 0 0 0 0 0 0 0 0 0
0 0 0 0 0 9 0 3 0 0 0 0 5 2 0 0 0 0 0 0 0 0 0 0 0 0 0 0 0 0 0 0 0 0 0 0 0 0 0 0 0 0 0 0 0 0 0 0 0
0 0 0 0 0 4 2 4 0 0 0 1 1 0 0 0 0 0 0 0 0 0 0 0 0 0 0 0 0 0 0 0 0 0 0 0 0 0 0 0 0 0 0 0 0 0 0 0 0
0 0 0 0 0 1 4 5 0 0 0 2 0 5 0 0 2 4 1 0 0 0 0 0 0 0 0 0 0 0 0 0 0 0 0 0 0 0 0 0 0 0 0 0 0 0 0 0 0
0 0 0 0 0 0 0 1 0 0 0 0 0 0 4 0 0 0 0 0 0 0 0 0 0 0 0 0 0 0 0 0 0 0 0 0 0 0 0 0 0 0 0 0 0 0 0 0 0
0 0 0 0 0 0 0 0 0 0 0 0 0 55 4 0 2 5 0 1 0 2 5 4 0 0 0 0 0 4 0 0 28 6 10 5 5 2 0 0 0 0 0 0 0 0 0 0 0

GFSSGP_prec_cloud_051.txt.gz
Cloud_Cover
65 40 93 90 100 80 100 98 100 100 100 100 99 100 100 99 98 100 99 100 100 94 44 48 27 0 0 0 0 0 0 0 0 0 0 0 0 0 0 0 4 5 6 3 4 6 5 5 24
100 92 93 83 89 100 100 100 100 100 55 73 53 97 98 99 74 100 100 100 100 73 27 44 0 0 2 0 0 0 0 0 0 0 0 0 0 0 0 0 0 3 6 5 5 5 7 12 92
19 80 100 72 34 95 100 98 100 100 100 100 80 100 75 99 74 97 99 100 71 46 45 10 4 0 8 0 0 0 0 0 0 0 0 0 3 0 0 2 0 1 0 0 1 6 13 5 78
77 68 46 99 100 100 100 100 72 72 96 100 100 33 52 100 78 77 45 77 81 66 67 1 1 0 0 0 0 0 0 0 0 0 0 0 0 8 12 9 1 2 0 0 31 5 3 4 5
98 30 10 99 100 64 94 75 67 91 90 93 95 88 68 100 94 8 65 97 100 100 10 11 0 0 0 0 0 0 3 0 0 0 0 0 0 3 4 1 0 2 0 0 27 42 2 3 5
98 40 96 100 100 18 90 33 96 40 20 18 20 72 74 98 14 78 48 91 94 18 0 0 0 0 0 0 0 2 0 0 0 0 0 0 0 0 4 0 0 0 0 0 0 0 0 0 0
32 94 24 100 90 24 90 30 100 5 7 58 32 77 92 100 100 95 98 71 100 32 0 0 0 0 0 0 0 0 0 0 0 0 0 0 0 0 0 0 0 0 0 0 0 0 0 0 0
85 6 13 76 54 100 7 96 5 4 0 2 37 53 98 75 100 92 100 67 100 26 0 0 0 0 0 0 0 0 0 0 0 0 0 0 0 0 0 0 0 0 0 0 0 0 0 0 0
0 8 71 78 93 100 49 40 21 5 3 6 57 14 40 99 100 80 100 100 100 79 0 0 0 0 0 0 0 0 0 0 0 0 0 18 95 84 2 0 0 0 0 0 0 0 0 1 0
2 84 100 100 48 100 90 28 14 53 72 80 100 34 39 84 100 100 100 100 100 70 6 0 0 0 0 0 0 0 0 0 45 38 16 100 76 54 66 0 0 5 4 5 0 0 22 44 34
0 100 100 51 75 100 8 88 5 7 62 100 68 34 25 52 100 100 100 97 37 59 30 0 1 0 0 24 0 0 0 6 58 60 30 58 37 78 20 9 41 30 8 46 69 100 84 100 43
1 94 73 87 100 38 99 100 100 79 23 4 3 0 1 27 18 84 97 32 97 68 8 0 0 0 1 1 0 0 0 16 35 24 0 36 76 5 94 100 85 42 60 9 97 95 6 76 10
5 47 15 36 49 84 57 89 75 99 12 21 1 5 7 33 28 79 51 55 84 35 1 0 1 4 0 1 0 3 0 0 17 3 0 30 87 39 44 22 100 20 23 93 33 86 86 100 74
43 7 96 100 94 94 60 99 99 98 62 5 17 3 5 24 31 42 27 14 12 2 0 0 0 0 0 0 10 3 0 0 0 0 5 0 19 100 100 65 98 100 92 39 79 5 34 12 22
100 36 12 67 100 95 29 62 5 58 89 27 5 9 8 0 3 4 0 0 0 0 0 0 0 0 0 1 1 0 0 0 0 0 1 0 0 3 10 93 97 100 98 5 70 44 72 100 10
5 41 99 81 93 60 0 100 13 9 15 1 0 0 0 0 0 0 0 0 0 0 0 0 0 0 0 0 0 0 0 0 0 0 0 0 0 0 6 28 100 51 3 42 27 47 97 5 20
2 5 7 100 69 78 4 91 100 29 0 0 0 0 0 0 0 0 0 0 0 0 0 0 0 0 0 0 0 0 0 0 0 0 0 0 0 0 0 77 100 34 100 27 87 96 24 43 5
0 0 84 52 70 67 27 93 93 83 3 8 0 0 0 0 0 0 0 0 0 0 0 0 0 0 0 0 0 0 0 0 0 0 0 10 0 8 8 24 13 0 97 100 81 22 62 25 0
5 2 84 39 100 26 94 95 7 100 56 100 3 0 0 0 0 0 0 0 0 0 0 0 0 0 0 0 0 0 0 0 0 0 0 0 0 4 0 16 100 5 51 1 0 0 1 100 2
0 5 30 100 26 98 100 89 85 98 56 46 67 0 0 0 0 0 0 0 0 0 0 0 0 0 0 0 0 0 0 0 0 0 0 0 5 36 13 3 61 97 7 39 0 0 99 20 0
0 0 4 87 70 98 88 73 92 56 99 65 47 2 0 0 0 0 0 0 0 0 0 0 0 0 0 0 0 0 0 0 0 0 0 0 0 0 7 53 0 17 1 60 16 14 0 100 1
0 0 0 3 99 92 12 50 28 45 58 7 13 41 4 0 0 0 0 0 0 0 0 0 0 0 0 0 0 0 0 0 0 0 0 0 0 0 0 11 1 0 0 99 17 0 19 0 7
0 0 0 0 5 63 64 26 5 51 21 8 4 31 6 0 0 0 0 0 0 0 0 0 0 0 0 0 0 0 0 0 0 0 0 0 4 0 0 9 11 2 0 20 2 31 0 10 0
0 0 0 0 0 0 1 5 5 49 79 76 4 6 21 5 0 0 0 0 0 0 0 0 0 0 0 0 0 0 0 0 0 0 0 0 0 0 0 0 0 0 0 19 11 0 1 0 0
0 0 0 0 0 0 0 0 0 5 5 5 5 5 4 0 0 0 0 0 0 0 0 0 0 0 0 0 0 0 0 0 0 0 0 0 0 0 0 0 0 0 0 7 1 0 0 3 0
0 0 0 0 0 0 0 0 0 0 3 5 5 5 4 0 0 0 0 0 0 0 0 0 0 0 0 0 0 0 0 0 0 0 0 0 0 0 0 0 0 0 0 0 0 0 1 0 0
0 0 0 0 0 0 0 0 0 0 0 0 0 5 5 1 0 0 0 0 0 0 0 0 0 0 0 0 0 0 0 0 0 0 0 0 0 0 0 0 0 0 0 0 0 0 0 0 0
0 0 0 0 0 0 0 0 0 0 0 0 0 0 1 2 1 0 0 0 0 0 0 0 0 0 0 0 0 0 0 0 0 0 0 0 0 0 0 0 0 0 0 0 0 0 0 0 3
0 0 0 0 0 0 0 0 0 0 0 0 0 1 93 54 2 0 0 0 0 0 0 0 0 0 0 0 0 0 0 0 0 0 0 0 0 0 0 2 2 0 3 4 0 0 0 0 0
0 0 0 0 0 0 0 0 0 0 0 4 0 0 92 53 5 0 0 0 0 0 0 0 0 0 0 0 0 0 0 0 0 0 0 0 0 0 74 100 98 38 19 5 0 5 5 0 2

GFSSGP_prec_cloud_054.txt.gz
Cloud_Cover
14 5 74 92 92 91 100 100 100 100 100 100 100 97 100 65 82 92 100 98 99 98 100 66 0 0 0 0 0 0 0 0 0 0 0 5 11 0 0 21 3 0 1 2 5 0 0 5 6
6 78 100 59 93 100 100 100 100 100 98 54 100 100 48 15 78 77 99 86 36 100 99 12 0 0 5 0 0 0 0 0 0 0 0 0 0 0 0 0 0 16 9 4 5 4 5 6 98
20 100 66 65 97 100 100 100 100 79 60 100 100 35 9 30 36 44 100 99 61 64 51 5 0 0 0 0 0 0 0 0 0 0 0 0 1 1 0 2 3 0 0 2 2 5 4 5 5
100 99 53 85 99 100 100 100 97 30 100 63 68 66 14 26 10 33 5 5 91 88 21 3 8 0 0 0 0 0 0 0 0 0 0 3 13 9 7 2 4 1 6 12 4 1 5 19 100
95 26 100 100 100 100 100 40 73 11 100 8 90 60 93 20 22 5 6 10 61 10 15 16 0 0 0 0 0 0 0 0 0 0 0 2 5 0 11 0 1 0 0 0 1 0 2 4 5
52 50 100 100 100 100 62 48 92 92 20 5 16 34 85 100 5 16 21 100 13 89 2 20 0 0 0 0 3 0 0 0 0 0 0 0 0 0 2 0 0 0 0 0 0 0 0 0 4
11 89 70 100 100 100 72 100 100 10 52 44 4 53 81 98 32 33 0 61 13 5 0 0 0 0 0 0 1 0 0 0 0 0 0 0 0 0 0 0 0 0 0 0 0 0 0 0 1
8 96 42 100 97 100 100 44 100 31 2 4 0 24 98 94 98 54 55 14 96 0 0 0 0 0 0 0 0 0 0 0 0 0 0 0 0 0 0 0 0 0 0 0 0 0 0 0 0
33 11 39 96 100 58 100 77 70 15 6 30 73 5 78 99 100 43 98 100 36 0 0 0 0 0 0 0 0 0 0 0 0 0 0 0 48 0 0 0 1 22 73 51 14 15 2 26 0
0 72 100 100 100 100 100 74 5 5 9 72 36 87 97 100 50 15 84 100 100 1 0 0 0 0 0 0 0 0 0 0 0 73 99 1 5 0 3 0 0 37 100 100 100 65 1 16 11
24 90 100 99 79 61 98 88 96 44 77 37 30 76 100 31 77 98 7 100 100 0 0 0 2 0 0 0 0 0 0 1 2 98 100 62 12 72 0 32 36 26 25 100 100 56 5 50 52
99 100 100 100 82 72 62 100 100 40 83 68 45 68 29 100 34 37 99 3 50 29 40 0 19 0 92 36 0 0 0 79 5 0 2 7 23 76 58 100 91 100 100 99 96 24 56 38 53
36 72 91 100 99 6 76 100 100 29 100 100 37 86 58 81 100 85 79 33 100 75 80 22 0 0 70 82 6 41 62 29 100 22 0 65 80 12 74 35 37 70 76 100 52 80 63 97 68
86 70 77 72 25 89 41 84 87 96 52 59 81 41 24 88 92 55 4 100 70 45 55 93 0 0 0 0 12 100 0 4 80 4 1 0 71 80 99 59 100 61 37 36 10 5 5 14 21
72 70 37 2 36 75 35 100 82 89 64 96 22 46 5 22 13 0 50 0 0 18 0 60 0 0 0 0 0 1 0 64 0 40 0 0 0 0 70 33 95 64 47 4 52 13 72 84 5
45 32 46 58 48 44 99 40 100 75 100 83 4 0 0 0 0 51 98 28 0 3 4 13 0 0 0 0 0 0 0 6 10 0 0 0 0 1 3 92 52 100 93 100 24 41 30 0 23
5 7 30 17 58 72 82 16 95 100 100 26 0 0 0 0 3 4 0 0 0 0 0 0 0 0 0 0 0 0 0 0 0 0 0 0 0 9 94 100 97 56 100 8 3 96 16 12 74
37 0 20 38 53 31 78 35 81 100 100 100 75 0 0 0 0 0 0 0 0 0 0 0 0 0 0 0 0 0 0 0 0 0 0 0 0 0 4 10 76 0 33 34 93 69 65 33 11
0 5 4 79 76 100 42 95 4 100 100 100 100 0 0 0 0 0 5 0 0 0 0 0 0 0 0 0 0 0 0 0 0 0 0 0 0 0 0 4 16 100 0 0 0 0 0 78 2
0 5 5 5 100 68 89 96 96 100 100 100 65 92 0 0 0 0 0 0 0 0 0 0 0 0 0 0 0 0 0 0 0 0 0 5 2 0 5 0 2 20 99 5 0 0 89 8 0
0 1 1 26 69 74 99 93 100 100 100 100 100 8 1 0 0 0 0 0 0 0 0 0 0 0 0 0 0 0 0 0 0 0 0 0 0 0 3 0 0 0 0 2 0 0 0 78 0
0 0 1 97 96 55 27 36 43 75 87 92 22 4 100 0 0 0 0 0 0 0 0 0 0 0 0 0 0 0 0 0 0 0 0 0 0 0 0 0 0 0 0 0 44 0 0 4 26
0 0 4 50 96 100 81 48 78 0 5 89 5 14 37 9 0 0 0 0 0 0 0 0 0 0 0 0 0 0 0 0 0 0 0 0 0 0 0 0 0 0 0 1 79 21 0 0 22
0 0 0 1 5 22 30 66 3 51 5 100 16 4 2 36 8 0 0 0 0 0 0 0 0 0 0 0 0 0 0 0 0 0 0 0 0 0 0 0 0 0 0 0 0 0 0 0 0
0 0 0 0 0 0 0 28 2 90 79 87 82 5 4 5 40 0 0 0 0 0 0 0 0 0 0 0 0 0 0 0 0 0 0 0 0 0 0 0 0 0 0 0 0 0 0 0 0
0 0 0 0 0 0 0 0 0 7 100 88 51 62 5 5 5 0 0 0 0 0 0 0 0 0 0 0 0 0 0 0 0 0 0 0 0 0 0 0 0 0 0 0 2 5 3 0 0
0 0 0 0 0 0 0 0 0 0 0 28 56 100 11 5 3 0 0 0 0 0 0 0 0 0 0 0 0 0 0 0 0 0 0 0 0 0 0 0 0 0 0 0 0 0 0 5 0
0 0 0 0 0 0 0 0 0 0 0 0 0 3 73 10 5 0 0 0 0 0 0 0 0 0 0 0 0 0 0 0 0 0 0 0 0 0 0 0 0 5 15 29 5 2 2 0 2
0 0 0 0 0 0 0 6 0 4 0 0 0 0 1 78 5 2 0 0 0 0 0 0 0 0 0 0 0 0 0 0 0 0 0 0 0 0 0 0 16 100 100 76 48 5 5 0 0
0 0 0 0 0 0 0 84 49 3 0 0 2 0 0 2 77 4 0 0 0 0 0 0 0 0 0 0 0 0 0 0 0 0 0 0 0 0 0 0 20 100 100 100 97 12 0 0 0

GFSSGP_prec_cloud_057.txt.gz
Cloud_Cover
5 4 41 100 88 88 100 100 100 100 100 100 100 100 100 100 100 30 54 66 5 6 5 1 0 0 0 0 0 0 0 0 0 0 0 1 0 11 2 0 0 0 6 0 0 0 5 6 19
5 5 61 85 100 100 100 100 100 100 82 51 89 100 100 100 72 52 70 64 8 5 4 0 0 0 0 0 0 0 0 0 0 0 0 0 1 2 0 1 2 1 2 0 0 2 4 10 20
5 62 56 96 100 100 100 100 100 100 100 100 8 11 76 94 61 9 30 65 12 0 0 2 0 0 0 0 0 0 0 0 0 0 0 0 0 2 0 0 0 9 3 4 0 0 0 2 5
40 100 50 75 100 100 100 100 100 16 39 95 54 0 8 6 5 7 11 2 0 0 0 0 1 0 0 0 0 0 0 0 0 0 0 0 16 7 0 4 5 4 0 0 0 3 3 5 75
100 41 88 100 94 100 100 100 100 13 5 0 10 7 41 35 5 20 2 0 0 0 0 16 0 0 0 0 0 0 0 0 0 0 1 9 10 5 4 12 7 5 14 0 0 0 0 5 5
59 100 100 100 100 100 100 100 93 94 0 0 0 4 56 4 5 5 4 0 0 0 0 8 0 0 0 0 0 0 0 0 0 0 6 3 6 0 0 0 0 0 0 0 0 0 0 5 5
7 87 100 100 100 100 99 100 92 25 1 2 0 20 86 0 4 0 6 0 0 0 0 0 0 0 0 0 0 0 0 0 0 0 0 0 0 0 0 0 0 0 0 0 0 0 0 1 2
4 11 94 100 100 100 100 100 10 2 5 0 0 55 86 0 3 1 0 0 0 0 0 0 0 0 0 0 0 0 0 0 0 0 0 0 0 0 0 6 36 5 3 0 0 0 0 0 0
10 50 95 100 100 100 100 100 46 0 2 5 17 0 10 73 2 17 0 30 0 0 0 0 0 0 0 0 0 0 0 23 100 11 0 0 0 0 2 5 5 98 100 5 7 0 0 3 0
51 10 6 100 100 84 80 100 9 4 5 3 5 2 8 7 5 2 0 23 1 4 0 0 0 0 0 0 0 0 2 98 100 7 0 0 0 4 5 19 91 100 100 100 15 48 59 2 3
18 0 1 16 100 99 98 56 78 7 73 96 40 22 45 8 5 78 9 0 0 0 0 0 0 0 0 0 0 0 80 28 90 2 0 0 0 5 5 84 72 100 100 100 50 2 2 98 0
29 83 44 83 98 44 86 7 98 100 56 57 36 55 77 96 5 25 46 62 0 0 0 0 0 0 0 0 0 0 18 93 64 5 6 70 9 82 12 35 99 100 100 100 47 1 89 62 0
93 19 81 93 100 88 71 91 100 94 5 91 84 34 49 5 7 35 94 45 14 0 0 0 0 0 0 0 0 0 1 1 57 48 87 79 42 2 4 19 4 73 4 1 5 41 5 5 3
1 8 100 100 100 19 65 100 45 51 5 8 21 39 41 78 93 100 5 39 74 0 0 0 0 0 16 53 0 2 0 6 8 12 0 8 37 66 3 0 23 1 0 0 2 3 10 5 6
7 100 100 70 98 11 99 85 100 33 56 9 96 10 11 11 96 3 0 0 0 0 28 0 0 0 0 0 0 98 16 22 95 33 0 0 0 3 75 0 4 52 0 41 32 94 18 81 5
12 100 84 100 89 92 79 43 36 100 100 80 100 9 0 2 0 0 0 0 0 0 41 21 0 0 0 0 0 0 0 63 0 0 0 6 86 7 0 9 4 8 56 4 59 26 34 50 90
4 5 7 4 91 100 76 89 100 98 100 100 100 76 30 53 0 0 0 0 0 0 0 0 0 0 0 0 0 0 0 0 0 0 5 15 62 20 0 3 0 1 0 10 0 2 53 8 51
0 4 7 2 5 21 57 100 99 100 100 99 100 97 90 5 0 0 3 99 8 0 0 0 0 0 0 0 0 0 0 0 0 0 5 96 87 1 0 0 22 0 56 46 0 29 0 1 4
0 2 55 0 47 100 91 5 5 98 100 100 100 100 63 49 0 42 1 7 0 0 0 0 0 0 0 0 0 0 0 0 0 0 0 0 5 30 0 0 0 8 4 0 0 0 0 44 0
0 4 31 4 36 100 96 74 6 94 97 100 100 100 100 100 56 88 84 4 0 0 0 0 0 0 0 0 0 0 0 0 0 1 2 1 5 5 0 0 6 6 0 0 0 0 25 0 0
0 0 0 3 99 98 96 100 32 46 100 100 100 100 40 100 25 0 0 0 0 0 0 0 0 0 0 0 0 0 0 0 0 0 5 0 3 5 0 0 0 15 0 0 0 0 0 15 0
0 0 0 0 89 66 79 100 86 87 100 100 100 66 40 16 0 0 0 0 0 0 0 0 0 0 0 0 0 0 0 0 0 0 0 0 0 1 0 0 0 0 0 0 8 0 0 0 0
0 0 0 0 68 100 9 81 74 79 63 100 100 100 70 1 4 0 0 0 0 0 0 0 0 0 0 0 0 0 0 0 0 0 0 0 0 0 0 0 0 0 0 0 0 0 0 0 0
0 0 0 1 78 93 40 97 93 70 2 88 100 100 62 6 0 0 0 0 0 0 0 0 0 0 0 0 0 0 0 0 0 0 0 0 0 0 0 0 0 0 0 0 0 0 3 0 0
0 0 0 3 6 18 2 89 2 84 12 1 1 45 2 4 4 0 0 0 0 0 0 0 0 0 0 0 0 0 0 0 0 0 0 0 0 0 0 0 0 0 0 0 0 0 0 0 1
0 0 0 0 0 0 2 5 0 4 100 96 90 11 8 5 3 0 0 0 0 0 0 0 0 0 0 0 0 0 0 0 0 0 0 0 0 0 0 0 0 0 0 0 0 0 2 1 0
0 0 0 0 0 0 0 0 0 0 16 85 59 100 5 5 1 0 0 0 0 0 0 0 0 0 0 0 0 0 0 0 0 0 0 0 0 0 0 0 0 0 3 10 5 5 3 5 0
0 0 0 0 0 0 0 0 0 0 0 5 6 43 100 16 0 0 0 0 0 0 0 0 0 0 0 0 0 0 0 0 0 0 0 0 0 0 0 0 0 0 100 100 88 6 5 5 2
0 0 0 0 0 0 0 0 0 0 0 0 0 4 2 7 5 0 0 0 0 0 0 0 0 0 0 0 0 0 0 0 0 0 0 0 0 0 0 0 0 0 38 11 96 89 82 78 5
1 0 0 0 0 0 0 0 0 0 0 3 0 0 0 5 2 0 0 0 0 0 0 0 0 0 0 0 0 0 0 1 0 0 0 0 0 0 0 0 0 0 0 0 33 99 100 0 0

GFSSGP_prec_cloud_060.txt.gz
Cloud_Cover
1 0 16 81 91 97 100 99 100 100 62 97 100 100 48 77 88 42 47 35 4 5 3 17 0 0 0 0 0 1 0 0 0 1 0 0 2 0 4 3 0 0 2 0 0 0 1 0 1
5 2 58 40 99 70 94 100 100 98 77 29 46 100 90 57 37 79 35 84 4 2 10 14 0 0 0 0 0 0 0 0 0 2 3 6 10 2 1 0 0 11 11 0 4 2 5 5 3
5 62 30 85 97 100 100 100 100 100 100 100 100 70 7 99 56 21 93 22 3 1 0 0 0 0 0 0 0 0 0 0 0 0 0 0 0 0 0 3 2 9 0 1 0 0 0 2 4
5 66 93 69 100 100 100 100 100 100 100 100 25 13 16 11 54 20 6 0 1 8 3 0 0 0 0 0 0 0 0 0 0 0 0 0 0 4 3 0 0 0 0 0 0 1 2 5 5
96 84 100 85 99 100 100 100 100 100 99 88 100 68 100 24 5 8 4 0 5 11 6 1 0 0 0 0 0 0 0 0 6 1 0 0 10 0 0 0 0 0 0 0 0 0 5 5 5
100 100 100 100 100 100 99 99 99 100 98 99 67 7 27 5 5 4 0 0 0 23 2 1 0 0 0 0 0 0 0 3 1 12 2 1 0 0 0 1 1 0 0 0 0 0 3 5 3
78 81 100 100 100 100 100 100 100 90 100 19 5 36 13 5 0 1 41 0 0 10 4 0 0 0 0 0 0 0 0 4 0 14 0 0 10 30 67 22 4 0 0 0 0 0 0 0 5
5 8 87 100 100 100 100 79 100 100 86 6 0 20 50 69 22 54 20 0 1 4 0 0 0 0 0 0 1 0 0 4 2 0 0 5 15 100 100 5 72 0 0 0 0 0 0 5 45
87 75 1 30 100 100 98 100 61 50 3 0 0 1 9 5 22 34 3 2 7 8 0 0 0 0 0 0 0 61 86 42 0 0 2 5 5 99 100 38 90 31 2 3 0 5 29 0 4
85 8 1 61 71 99 47 100 8 3 2 2 0 0 5 92 21 10 4 44 22 6 0 0 0 0 0 0 14 87 7 16 1 3 9 6 31 99 65 93 100 100 97 56 5 4 5 0 5
2 0 0 4 70 62 97 94 5 27 0 3 5 33 99 2 3 0 16 8 5 0 0 0 0 0 0 0 0 5 0 5 19 9 51 14 45 100 100 16 99 27 89 82 14 0 0 0 4
0 0 1 5 52 52 61 100 91 100 4 3 7 21 3 0 0 5 17 25 0 0 0 0 0 0 0 0 1 61 5 5 38 34 5 4 32 90 62 5 66 78 5 5 5 3 0 3 10
0 0 6 55 15 88 100 100 80 85 5 5 2 16 25 46 100 100 100 92 0 0 0 0 0 0 0 0 3 90 16 98 98 32 30 1 11 0 0 0 1 0 5 5 5 4 55 40 93
0 3 41 100 100 96 92 72 70 5 16 3 3 21 11 86 98 100 9 45 0 0 0 0 0 0 0 0 27 4 5 100 100 99 14 4 5 2 3 0 0 0 1 0 5 5 62 4 45
0 5 66 87 100 100 61 8 5 30 15 6 0 6 4 11 15 0 0 0 0 0 0 0 0 0 0 0 0 0 4 79 100 53 0 0 0 5 5 5 94 0 5 2 22 5 5 0 38
0 2 5 98 99 100 100 22 1 5 64 8 79 95 100 14 24 0 0 0 0 0 0 0 0 0 0 0 0 0 0 2 8 1 1 0 0 0 0 0 0 0 0 2 0 0 0 0 6
0 0 1 5 5 100 80 100 6 70 97 47 62 64 100 100 93 0 0 0 0 0 0 0 0 0 0 0 0 0 0 0 46 52 6 0 15 0 0 1 0 0 0 0 0 0 0 0 2
0 0 5 5 12 99 99 48 13 100 74 100 36 12 25 96 95 0 0 0 0 0 0 0 0 0 0 0 0 0 0 0 36 28 5 3 0 0 0 0 1 0 0 0 0 0 66 25 0
0 0 5 0 77 12 63 7 70 100 46 79 5 5 64 100 100 2 0 0 0 0 0 0 0 0 0 0 0 0 0 0 2 5 5 0 0 0 0 0 0 0 0 0 0 0 0 0 0
0 0 0 0 8 100 100 85 29 20 9 52 100 42 46 96 4 2 0 0 0 0 0 0 0 0 0 0 0 0 0 0 0 0 0 4 3 0 0 0 0 2 0 0 0 0 0 0 0
0 0 0 0 67 100 100 59 100 81 5 40 100 100 86 100 21 2 0 0 0 0 0 0 0 0 0 0 0 0 0 0 0 0 0 0 1 0 0 0 0 0 0 0 1 0 0 0 0
0 0 0 2 91 73 89 6 67 5 36 14 100 94 100 100 5 0 0 0 0 0 0 0 0 0 0 0 0 0 0 0 0 4 0 0 0 0 0 0 0 0 0 0 0 0 0 0 0
0 0 0 4 76 80 73 100 5 5 5 100 70 100 14 100 13 1 0 0 0 0 0 0 0 0 0 0 0 0 0 0 0 0 0 0 0 0 0 0 0 0 0 0 0 0 0 0 0
0 0 0 56 59 33 35 99 2 3 1 5 65 75 99 20 12 69 5 0 0 0 0 0 0 0 0 0 0 0 0 0 0 0 0 0 0 0 0 0 0 0 0 0 0 2 1 2 0
0 0 0 0 49 5 1 80 0 0 3 3 38 0 79 100 100 43 100 19 0 0 0 0 0 0 0 0 0 0 0 0 0 0 0 0 0 0 0 0 0 0 0 0 0 5 3 0 0
0 0 0 0 0 0 0 5 0 0 3 6 5 4 5 73 100 99 11 3 0 0 0 0 0 0 0 0 0 0 0 0 0 0 0 0 0 0 0 0 0 0 0 0 0 0 0 0 0
0 0 0 0 0 0 0 0 0 0 3 5 0 0 4 4 5 25 5 0 0 0 0 0 0 0 0 0 0 0 0 0 0 0 0 0 0 0 0 0 0 0 0 9 98 80 5 1 0
0 0 0 0 0 0 0 0 0 0 0 3 2 0 0 0 0 2 1 0 0 0 0 0 0 0 0 0 0 0 0 0 0 0 0 0 0 0 0 0 0 0 0 43 6 5 5 5 9
0 0 0 0 0 0 0 0 0 0 3 2 2 0 0 0 0 0 0 0 0 0 0 0 0 0 0 0 0 0 0 0 0 0 0 0 0 0 0 0 0 0 0 0 0 0 2 18 3
5 0 0 0 0 0 0 0 0 0 0 2 75 4 0 0 0 0 5 0 0 0 0 0 0 0 0 0 0 0 0 0 0 0 0 0 0 0 0 0 0 0 0 0 0 0 0 0 0

GFSSGP_prec_cloud_063.txt.gz
Cloud_Cover
12 6 10 92 63 88 99 100 100 100 100 100 100 100 100 100 96 31 98 91 5 5 8 0 0 1 0 0 0 0 0 0 0 0 0 0 0 0 0 2 2 0 3 19 0 9 0 0 5
5 10 63 81 82 81 95 100 100 100 100 100 100 100 100 70 30 81 100 66 5 6 25 9 0 0 0 0 2 4 0 1 8 5 18 10 2 6 5 4 0 2 0 1 0 1 2 5 4
5 44 70 100 80 96 97 100 100 100 95 65 100 100 100 88 82 75 98 34 0 18 6 6 0 0 0 8 10 0 0 0 1 0 0 0 3 4 1 1 0 3 6 6 0 0 0 5 5
6 44 88 94 71 100 100 100 99 100 100 100 100 100 100 64 8 25 10 8 33 37 2 0 0 0 0 33 8 0 0 0 15 1 0 2 0 3 0 1 2 1 0 0 1 0 5 5 4
25 36 90 97 100 100 100 100 100 100 100 100 100 100 100 100 26 5 15 21 45 41 1 5 0 0 0 8 11 0 0 2 10 0 1 0 14 6 0 0 0 0 0 0 3 5 5 5 2
94 92 44 90 100 100 100 100 100 95 100 100 100 100 100 71 5 23 17 35 34 42 2 0 0 0 0 0 0 3 0 0 0 2 5 12 3 0 8 10 0 0 0 0 2 5 4 0 1
96 22 92 100 100 100 100 95 78 100 100 100 100 100 100 13 6 15 10 21 23 21 0 0 0 5 0 9 0 2 0 0 0 5 55 100 8 2 6 4 0 1 2 4 4 2 13 55 68
91 13 9 99 100 100 100 100 100 100 100 100 100 99 75 6 16 8 22 39 43 34 8 2 0 0 0 0 2 12 1 0 1 35 100 79 46 28 100 44 55 100 50 2 4 1 4 5 4
6 64 7 10 99 58 100 86 94 92 100 99 99 3 47 50 34 98 65 84 90 55 16 8 0 4 0 2 93 85 10 6 32 53 85 100 100 100 100 100 100 100 97 2 5 5 0 0 0
9 46 5 30 9 95 100 100 95 85 99 12 0 0 0 56 91 78 89 100 100 88 42 12 17 19 1 100 20 7 51 8 44 61 86 100 73 10 63 26 45 100 100 5 2 0 0 0 0
1 9 4 3 40 5 14 20 36 34 0 0 0 4 5 30 38 43 78 82 59 50 44 21 22 9 0 8 7 13 5 19 99 68 100 95 11 5 5 4 8 89 7 0 0 0 0 0 0
0 0 5 56 31 17 14 4 5 22 0 0 4 5 5 0 43 100 100 100 77 25 5 12 0 3 0 4 19 9 51 49 87 28 58 0 4 4 0 0 0 4 0 0 0 0 0 0 0
0 4 4 26 5 33 88 5 3 30 2 4 4 2 2 5 74 100 100 100 4 0 0 2 0 0 0 5 13 7 6 3 31 5 0 0 0 1 2 0 0 5 5 0 0 9 80 0 0
0 50 5 5 24 76 100 25 5 8 1 0 0 2 0 1 98 100 100 30 0 0 0 0 0 0 0 5 4 5 34 5 16 5 0 0 4 2 2 0 0 4 4 2 0 4 97 0 1
0 64 43 5 45 64 100 60 5 14 3 6 5 0 0 0 6 100 68 0 0 0 0 0 0 0 0 44 5 46 39 94 21 5 0 0 0 0 0 19 0 0 2 0 0 0 0 0 0
0 7 5 6 5 50 22 86 5 33 32 6 62 6 6 5 92 88 0 0 0 0 0 0 0 0 4 2 0 48 57 24 0 5 0 0 0 0 0 0 0 1 3 0 0 0 0 0 0
0 0 4 8 5 96 94 69 7 16 6 20 6 5 42 39 74 54 0 0 0 0 0 0 0 0 0 0 0 52 4 1 0 0 0 0 0 0 0 0 0 0 0 0 0 0 0 2 26
0 0 1 11 2 3 42 69 100 5 11 61 5 5 71 44 93 99 5 0 0 0 0 0 0 0 0 0 0 0 0 0 0 0 5 0 0 0 0 0 0 0 0 0 0 80 28 10 0
0 0 0 5 5 1 2 5 60 5 2 10 84 11 38 100 71 20 0 0 0 0 0 0 0 0 0 0 0 0 6 5 5 0 1 0 1 0 0 0 0 0 0 0 0 0 5 0 0
0 0 0 3 6 5 5 2 24 9 19 53 61 5 18 5 5 2 0 0 0 0 0 0 0 0 0 0 0 0 5 5 2 0 0 0 0 0 0 0 0 0 0 0 0 0 0 0 0
0 0 0 2 5 5 31 26 24 2 5 14 51 47 4 34 0 3 1 0 0 0 0 0 0 0 0 0 0 0 0 5 5 0 0 0 0 0 0 0 0 0 0 0 0 0 0 0 0
0 0 0 0 46 20 5 5 5 4 13 0 5 5 2 84 5 1 4 0 0 0 0 0 0 0 0 0 0 0 0 0 0 0 0 0 0 0 0 0 0 0 0 0 32 0 0 0 0
0 0 0 0 79 100 28 5 0 5 0 0 3 5 5 22 7 8 0 0 0 0 0 0 0 0 0 0 0 0 0 0 0 0 0 0 0 0 0 0 0 0 0 0 0 0 0 0 0
0 0 0 0 51 99 30 18 0 0 0 0 4 5 4 4 26 7 56 3 0 0 0 0 0 0 0 0 0 0 0 0 0 0 0 0 0 0 0 0 0 0 0 0 0 0 0 0 0
0 0 0 0 2 7 8 74 0 0 0 0 2 4 2 4 19 39 44 5 5 3 1 0 0 0 0 0 0 0 0 0 0 0 0 0 0 0 0 0 0 0 0 0 0 0 0 0 1
0 0 0 0 1 3 0 5 0 0 0 0 2 5 91 99 10 54 100 99 5 10 6 0 0 0 0 0 0 0 0 0 0 0 0 0 0 0 0 0 0 0 0 0 0 5 5 5 0
0 0 0 0 0 0 0 0 0 0 0 1 0 2 4 5 5 0 0 48 5 30 5 5 0 0 0 0 0 0 0 0 0 0 0 0 0 0 0 0 0 0 0 0 2 43 5 0 2
0 0 0 0 0 0 0 0 0 0 0 0 5 0 0 0 5 32 52 0 5 5 3 0 0 0 0 0 0 0 0 0 0 0 0 0 0 0 0 0 0 0 0 0 0 0 0 0 1
0 0 0 0 0 0 0 0 0 0 0 0 0 0 0 3 0 2 8 5 0 0 0 0 0 0 0 0 0 0 0 0 0 0 0 0 0 0 0 0 0 0 0 0 0 0 0 0 0
0 0 0 0 0 0 0 0 0 0 0 0 0 0 0 8 97 0 4 81 0 0 0 0 0 0 0 0 0 0 0 0 0 0 0 0 0 0 0 0 0 0 0 0 0 0 0 0 0

GFSSGP_prec_cloud_066.txt.gz
Cloud_Cover
56 60 44 100 85 85 90 100 100 91 94 75 93 99 34 100 100 97 88 20 5 5 3 0 2 0 8 2 0 0 1 0 0 0 0 3 2 2 36 0 0 0 10 1 5 2 1 3 0
6 53 97 99 81 38 83 95 100 100 100 96 80 99 94 100 95 100 100 5 5 5 7 0 0 0 0 2 0 2 0 1 2 0 0 20 3 2 0 2 0 1 4 1 4 5 5 6 6
5 74 96 100 54 53 99 100 100 100 100 100 100 95 10 99 100 100 42 6 5 18 6 0 0 0 2 4 0 6 5 2 2 16 5 8 3 6 4 9 2 0 0 2 0 5 3 9 49
24 86 100 63 77 100 79 93 100 100 100 100 100 99 100 100 100 100 14 8 22 37 0 0 0 0 33 92 3 1 0 0 0 0 0 5 12 4 22 0 0 0 0 5 5 5 5 2 39
54 83 62 71 96 99 100 100 100 100 100 100 99 100 100 100 99 94 37 30 53 50 0 0 0 0 37 68 1 0 8 6 0 0 0 7 4 1 11 4 7 4 2 10 5 5 5 1 5
97 72 74 73 73 98 100 100 100 40 97 56 100 100 91 87 100 47 34 38 54 32 9 0 0 0 0 2 12 0 1 1 0 4 3 8 0 3 1 8 6 2 0 5 3 5 13 40 5
100 98 53 95 100 75 98 100 100 46 100 100 100 88 99 83 20 30 46 100 39 15 6 0 0 0 0 1 9 0 0 10 2 5 8 5 50 61 12 16 8 2 5 2 0 2 2 100 100
60 46 63 36 91 100 99 100 100 100 88 74 62 100 97 78 28 45 99 62 57 40 10 0 0 0 0 6 5 0 8 5 15 47 63 100 63 98 100 5 10 4 0 0 1 0 0 0 0
32 58 57 40 38 100 100 100 99 98 100 100 100 63 2 34 31 81 100 94 46 46 23 16 0 0 3 5 0 3 4 59 96 72 99 70 51 46 8 5 75 72 9 22 5 1 0 0 0
8 83 5 5 8 17 100 100 82 100 98 96 47 0 10 17 61 99 100 100 100 83 64 18 11 19 6 0 21 0 4 6 19 8 80 5 40 5 5 7 82 16 39 24 2 0 0 0 0
3 42 1 48 5 24 67 13 12 24 6 34 3 2 20 39 86 100 100 100 100 100 71 24 25 21 12 0 11 8 5 66 46 34 5 5 2 0 0 1 2 3 5 2 0 0 0 0 0
4 0 2 0 7 5 20 9 5 0 0 0 5 3 7 64 100 100 91 100 100 100 84 24 27 31 13 7 16 8 5 10 4 0 0 0 0 0 19 9 0 2 87 0 0 0 0 0 0
0 0 0 0 0 3 16 5 5 2 0 1 5 4 30 56 99 100 78 66 85 98 62 31 30 27 14 2 15 9 3 2 5 0 0 2 0 1 0 0 4 0 3 0 1 0 0 0 0
0 0 8 0 0 3 5 5 5 0 1 0 0 6 43 32 51 62 64 43 45 8 10 15 25 8 1 3 2 7 1 3 5 0 0 0 0 0 0 0 0 0 0 0 1 0 0 2 0
0 0 0 0 0 2 71 2 5 0 0 0 0 22 41 39 22 47 100 0 0 0 0 1 2 0 3 2 4 3 5 4 4 0 0 0 0 1 5 0 0 0 32 0 0 10 65 0 5
0 0 6 2 0 26 8 5 53 0 1 0 27 23 31 14 10 81 91 0 0 0 0 0 0 0 3 1 5 35 4 0 0 0 0 0 0 0 0 1 4 0 0 0 0 0 0 3 11
0 0 0 5 3 35 45 12 5 2 5 5 8 18 14 11 51 96 5 0 0 0 0 0 0 0 4 5 5 5 6 0 0 0 0 0 0 0 0 0 5 0 0 0 0 0 0 3 3
0 0 0 3 2 3 2 3 5 5 5 5 5 4 1 5 17 22 0 0 0 0 0 0 0 0 1 0 12 5 5 0 0 0 0 0 0 0 0 0 0 0 0 0 0 0 0 0 2
0 0 0 0 31 5 5 5 5 5 5 5 14 100 3 5 7 2 2 0 0 0 0 0 0 0 0 0 5 4 0 0 0 0 0 0 0 0 0 0 0 0 0 0 0 47 33 61 0
0 0 0 2 100 5 5 5 5 5 5 58 44 93 100 5 5 0 2 0 0 0 0 0 0 0 0 0 0 0 0 0 0 0 0 0 0 0 0 0 0 0 0 0 0 0 0 0 0
0 0 0 0 98 58 5 0 4 5 5 5 5 8 19 0 0 2 0 0 0 0 0 0 0 0 0 0 0 0 4 3 2 0 0 0 0 0 0 0 0 0 3 7 0 0 0 0 0
0 0 0 0 96 100 54 0 0 3 3 4 5 5 4 0 5 2 2 0 0 0 0 0 0 0 0 0 0 1 4 5 0 0 0 0 0 0 0 0 0 0 0 2 0 0 0 1 2
0 0 0 0 2 14 31 3 0 1 0 0 1 5 0 3 4 5 4 1 0 0 0 0 0 0 0 0 0 0 0 1 0 0 0 0 0 0 0 0 0 0 0 0 0 0 0 5 29
0 0 0 0 23 65 23 4 0 0 3 0 5 5 5 1 7 26 0 5 0 0 0 0 0 0 0 0 0 0 0 0 0 0 0 0 0 0 0 0 0 0 0 0 0 1 5 4 5
0 0 0 0 62 5 5 4 0 0 59 5 5 19 5 3 0 0 3 5 0 4 3 4 0 0 0 0 0 0 0 0 0 0 0 0 0 0 0 0 0 0 0 0 0 5 5 0 0
0 0 0 0 0 5 2 4 0 0 58 45 5 36 10 5 5 0 0 2 2 4 3 5 35 0 0 0 0 0 0 0 0 0 0 0 0 0 0 0 0 0 0 0 0 2 6 0 0
0 0 0 0 0 0 3 0 0 0 3 5 5 0 0 5 12 4 2 97 98 11 5 5 9 62 0 0 0 0 0 0 0 0 0 0 0 0 0 0 0 0 0 0 0 0 0 0 0
0 0 0 0 0 0 0 0 0 0 5 5 5 2 1 5 5 37 15 2 0 0 0 85 4 4 0 0 0 0 0 0 0 0 0 0 0 0 0 0 0 0 0 0 0 0 0 0 0
0 0 0 0 0 0 0 0 0 0 5 24 5 5 4 5 11 45 17 81 0 0 0 3 33 1 3 0 0 0 0 0 0 0 0 0 0 0 0 0 0 0 0 0 0 0 0 0 0
68 0 0 0 0 0 0 0 0 0 0 5 33 86 62 98 5 49 7 7 78 0 0 0 0 2 0 0 0 0 0 0 0 0 0 0 0 0 0 0 0 0 0 0 0 0 0 0 0

GFSSGP_prec_cloud_069.txt.gz
Cloud_Cover
99 87 53 94 89 78 63 98 100 100 76 87 100 75 100 100 86 100 64 92 9 16 29 2 0 0 0 0 0 3 0 0 0 4 3 8 8 0 0 0 0 2 2 12 3 3 1 0 1
81 92 93 100 77 65 54 72 100 100 82 77 100 93 94 100 100 59 86 74 5 8 35 1 0 0 0 0 0 0 2 4 2 4 2 1 21 99 12 0 1 1 11 1 0 0 0 5 5
48 81 100 99 100 74 73 88 100 100 100 100 82 99 86 97 83 66 44 23 4 13 1 20 0 0 0 0 4 10 16 12 0 16 45 5 68 51 61 2 0 0 5 0 2 3 1 6 100
64 82 96 100 98 72 98 19 100 100 100 88 30 52 100 86 56 97 13 6 5 5 0 6 0 2 0 0 17 14 1 0 1 1 1 0 3 0 0 0 2 3 5 5 5 5 4 5 67
57 74 54 43 100 78 78 78 86 86 72 57 53 98 99 72 100 47 4 6 44 0 0 0 0 0 66 0 1 1 7 0 5 0 0 5 5 0 2 0 0 17 86 57 5 5 21 37 80
77 24 42 12 100 98 96 100 30 100 93 92 94 6 94 100 71 76 8 52 0 0 0 0 0 0 0 0 0 11 8 7 4 3 5 36 20 14 26 3 1 1 0 0 1 5 98 57 71
100 31 60 35 100 98 83 100 47 78 88 9 33 16 90 100 86 84 9 2 4 0 0 0 0 0 1 0 0 0 0 5 5 5 95 100 6 5 13 4 6 2 0 3 0 5 5 10 10
62 35 56 50 40 82 92 100 100 40 56 78 52 94 92 87 100 67 36 1 0 1 0 0 0 0 20 15 0 0 0 7 68 66 48 4 0 5 5 94 23 8 6 2 0 0 0 0 0
25 59 47 12 31 57 98 89 65 23 98 6 5 86 74 92 100 68 85 76 86 65 0 0 0 1 15 19 4 2 2 4 6 3 1 5 13 5 34 76 80 72 33 0 0 0 0 4 3
64 74 5 5 25 91 55 48 20 60 62 12 5 44 62 54 86 68 33 60 87 9 0 0 0 1 12 16 22 24 5 0 0 0 0 45 30 5 10 77 5 5 2 0 0 0 0 0 0
8 53 33 5 5 47 5 12 5 7 5 5 5 9 15 27 62 99 21 24 9 1 0 0 17 4 5 2 5 3 5 0 0 0 2 0 0 0 1 2 3 0 0 0 0 0 0 0 0
5 5 5 11 5 100 87 5 5 5 3 0 5 4 5 19 18 91 10 39 20 20 0 0 12 15 17 0 1 1 0 0 0 0 3 0 0 0 5 0 0 0 0 0 0 0 0 0 0
5 5 5 4 5 51 67 5 60 5 1 0 0 5 5 4 19 89 5 47 27 95 0 0 4 2 13 9 0 0 0 0 0 0 0 0 0 0 0 0 0 0 0 0 0 0 0 0 0
1 2 0 0 0 6 5 5 15 11 4 4 5 2 0 0 0 29 50 56 0 12 0 0 0 0 4 0 0 0 0 0 0 0 0 0 0 0 0 1 0 0 0 0 0 0 0 0 0
0 0 0 0 0 0 0 5 72 38 5 0 0 3 1 13 10 60 99 48 0 0 0 0 0 0 0 0 0 0 0 5 0 0 0 0 0 2 4 2 0 0 0 0 0 0 26 0 4
0 0 0 0 0 0 2 5 5 2 0 0 6 33 19 9 5 20 100 0 0 0 0 0 0 0 0 0 0 0 0 0 0 0 0 0 0 0 0 0 0 24 0 0 0 0 0 0 21
0 0 0 0 0 2 0 9 5 4 1 0 13 31 17 15 32 29 44 0 0 0 0 0 0 0 0 0 0 0 0 0 0 0 0 0 0 0 0 1 2 5 1 0 0 0 0 0 4
0 0 0 0 0 0 4 59 40 5 5 4 6 24 33 14 5 71 4 0 0 0 0 0 0 0 0 0 0 0 0 0 0 0 0 0 0 0 0 0 1 0 0 0 0 0 0 0 0
0 0 0 0 0 12 5 25 80 5 5 5 14 5 1 0 5 4 2 0 0 0 0 0 0 0 0 5 1 1 0 0 0 0 0 0 0 0 0 0 0 0 0 0 0 9 0 0 0
0 0 0 0 63 49 4 6 62 5 12 32 100 69 18 12 5 5 0 0 0 0 0 0 0 0 0 4 4 4 0 0 0 0 0 0 0 0 0 0 0 5 4 15 4 0 4 1 1
0 0 0 0 47 45 16 12 5 5 5 9 5 9 82 9 5 0 2 0 0 0 0 0 0 0 0 0 2 0 0 0 0 0 0 0 0 0 0 0 0 9 1 1 0 0 5 5 5
0 0 0 0 0 5 5 67 5 5 5 5 5 6 5 5 5 4 47 1 0 0 0 0 0 0 0 0 0 0 0 0 0 0 0 0 0 0 0 0 0 0 0 8 0 0 3 1 5
0 0 0 0 0 4 19 4 5 5 5 5 69 85 5 4 0 0 5 4 0 0 0 0 0 0 0 0 0 0 0 0 0 0 0 0 0 0 0 0 0 2 0 0 0 5 0 0 0
0 0 0 0 0 0 1 4 0 0 0 33 82 11 5 0 0 0 5 8 3 0 0 0 0 0 0 0 0 0 0 0 0 0 0 0 0 0 0 0 0 0 0 0 0 0 3 0 0
0 0 0 0 0 0 0 4 0 0 0 44 100 64 5 3 0 2 2 5 5 5 0 0 4 0 0 0 0 0 0 0 0 0 0 0 0 0 0 0 0 0 0 0 0 0 0 0 0
0 0 0 0 0 0 0 0 0 0 0 24 100 100 45 5 0 0 4 0 0 4 1 0 5 0 0 0 0 0 0 0 0 0 0 0 0 0 0 0 0 0 0 0 0 0 0 0 0
0 0 0 0 0 0 0 0 0 0 0 6 73 100 12 5 0 0 0 0 0 4 5 2 5 5 4 0 0 0 0 0 0 0 0 0 0 0 0 0 0 0 0 0 0 0 0 0 0
0 0 0 0 0 0 0 0 0 0 0 86 67 87 86 7 2 1 0 0 0 5 5 5 5 5 1 0 0 0 0 0 0 0 0 0 0 0 0 0 0 0 0 0 0 0 0 0 0
0 0 0 0 0 0 0 0 0 0 0 63 95 90 92 97 5 5 0 0 0 0 2 0 0 1 5 0 0 0 0 0 0 0 0 0 0 0 0 0 0 0 0 0 0 0 0 0 0
4 0 4 0 0 0 0 0 0 0 0 3 99 24 43 100 83 5 3 3 5 0 0 0 0 0 5 0 0 0 0 0 0 0 0 0 0 0 0 0 0 0 0 0 0 0 0 0 0

GFSSGP_prec_cloud_075.txt.gz
Cloud_Cover
2 9 100 90 74 100 87 100 100 100 100 100 100 100 100 92 50 60 27 100 93 67 0 0 0 0 0 0 0 0 0 3 5 5 5 18 48 5 5 4 17 23 0 0 0 0 0 4 0
81 71 98 82 71 99 96 99 100 100 99 94 82 35 88 22 64 87 82 100 59 15 14 10 0 0 0 2 0 0 5 7 78 98 100 32 2 2 0 6 2 5 1 0 0 4 2 1 15
92 95 84 96 69 100 99 100 100 94 51 100 100 98 57 100 67 80 35 92 96 30 47 0 0 0 3 4 0 2 2 32 51 19 4 4 6 0 8 36 68 10 16 0 0 0 0 61 25
86 45 61 81 72 100 100 100 98 46 100 100 100 44 100 100 79 86 97 84 100 99 4 0 0 4 5 4 0 0 0 2 1 5 4 5 0 0 14 5 5 6 5 4 4 2 17 51 69
86 38 58 42 96 97 87 100 100 91 98 88 99 87 91 99 100 95 100 66 17 34 0 0 0 4 12 16 7 19 58 35 23 5 10 4 6 22 14 1 2 4 3 6 47 99 98 78 5
100 47 45 82 58 88 88 100 96 100 97 100 71 21 71 76 100 100 100 10 67 2 0 0 3 3 5 25 8 14 2 20 4 4 34 14 88 99 80 93 0 0 0 14 96 62 53 56 80
44 28 62 100 92 100 70 90 100 100 100 64 97 100 32 12 100 91 100 80 75 0 0 17 4 1 5 14 7 14 15 1 1 3 5 5 4 46 100 100 2 0 2 4 5 5 7 4 1
14 21 100 75 59 100 60 99 73 100 100 100 96 52 16 8 99 21 98 17 20 0 2 21 4 5 18 14 1 1 6 4 0 1 5 1 5 5 98 100 5 1 0 0 0 0 0 0 0
5 88 26 81 99 86 46 58 3 100 92 54 59 86 12 47 43 86 46 4 96 0 17 29 16 15 33 20 7 5 2 5 0 2 5 3 7 8 100 35 1 0 0 0 0 0 2 5 0
7 37 100 90 52 100 6 86 100 64 60 29 13 74 15 38 68 99 12 3 2 0 2 17 52 21 34 36 16 38 7 10 26 2 36 12 100 68 6 3 1 0 0 0 0 0 17 94 35
5 15 95 100 25 6 90 40 100 64 51 14 5 14 16 13 56 62 9 2 4 0 1 6 65 1 98 0 58 8 99 99 96 8 60 14 2 81 31 1 1 0 8 1 0 7 75 79 66
5 81 51 19 57 32 77 100 72 85 100 65 0 25 12 16 40 34 9 5 4 0 0 0 5 0 100 3 41 59 38 94 21 19 92 2 85 99 100 100 54 64 100 51 78 97 10 67 100
5 56 5 98 100 82 45 100 100 85 81 4 0 16 19 34 48 41 28 19 0 0 0 0 0 0 11 4 58 90 59 22 62 96 55 89 55 21 99 71 98 100 2 43 70 16 96 31 1
4 5 21 28 100 82 32 95 73 90 2 0 0 2 27 24 55 43 28 100 0 0 0 0 0 0 6 63 0 22 21 96 27 97 100 20 28 20 96 36 100 100 64 55 68 32 79 48 84
0 0 0 4 5 66 5 100 48 66 5 2 1 12 59 96 100 52 38 76 4 0 0 0 0 0 2 39 0 10 100 17 86 95 96 100 47 1 10 87 100 100 66 0 28 0 2 49 91
0 0 0 0 0 0 2 30 96 1 3 5 0 0 63 100 66 56 22 5 0 0 0 0 0 0 0 7 0 26 50 82 98 95 99 100 19 1 14 69 81 2 81 60 69 49 100 1 93
0 0 0 0 0 1 0 70 98 86 9 5 0 0 66 100 100 48 22 4 0 0 0 0 0 0 0 0 0 6 19 96 100 70 99 100 98 6 24 59 12 0 100 70 22 65 78 36 35
0 0 0 0 4 4 38 44 100 100 77 18 0 2 11 57 96 26 22 12 0 0 0 0 0 0 0 5 0 3 4 14 100 100 100 88 100 13 43 52 80 25 36 100 13 78 92 100 99
0 0 0 0 18 5 35 80 4 88 0 57 12 0 0 41 96 54 26 2 0 0 0 0 0 0 0 0 0 0 1 20 78 46 16 0 87 33 71 100 75 13 56 96 0 0 1 40 76
0 0 0 0 0 13 64 30 100 74 0 0 0 0 0 36 100 96 10 15 0 0 0 0 0 0 0 0 0 1 0 11 42 33 0 2 5 5 6 97 100 42 79 7 10 99 17 46 91
0 0 0 0 0 2 67 84 100 42 100 55 20 0 1 5 17 50 25 11 1 0 0 0 0 0 0 0 0 2 0 72 19 67 0 5 14 23 60 4 90 58 28 71 0 0 91 100 5
0 0 0 0 0 1 5 48 40 81 100 35 4 55 8 5 5 30 53 10 0 0 0 0 0 0 0 0 0 0 0 1 15 9 6 18 0 46 4 2 16 19 2 29 16 23 16 16 40
0 0 0 0 0 0 5 4 5 17 3 91 17 96 56 5 4 0 0 3 0 0 0 0 0 0 0 0 4 1 0 0 0 0 6 9 0 0 0 2 4 0 4 4 15 1 0 55 43
0 0 0 0 0 0 0 5 1 96 93 6 78 94 23 5 0 0 0 2 11 21 6 0 0 0 0 1 5 5 0 0 0 0 0 0 0 0 0 0 0 0 26 0 1 0 0 0 17
0 0 0 0 0 0 0 0 25 63 36 35 78 41 37 5 5 0 7 2 0 4 2 0 0 0 0 2 6 5 0 0 0 0 0 0 0 0 0 0 0 0 0 36 0 0 2 0 0
0 0 0 0 0 0 0 0 0 21 99 61 100 45 28 49 5 0 5 0 0 0 0 0 0 0 0 0 0 0 0 0 0 0 0 0 0 0 2 0 0 0 7 0 2 0 0 0 0
2 0 0 0 0 0 0 0 0 0 84 3 100 100 48 96 19 12 5 5 0 0 0 0 0 0 0 0 0 0 0 0 0 0 1 0 0 0 0 0 0 0 0 0 0 0 0 13 0
88 64 2 3 1 1 4 0 0 0 0 5 16 100 35 81 50 38 4 5 0 0 0 0 0 0 0 0 0 0 0 0 0 5 5 3 0 0 23 0 0 0 0 0 0 11 1 0 0
10 5 96 75 5 5 23 33 5 0 0 4 5 3 5 8 7 19 5 5 0 1 4 0 0 0 0 0 0 0 0 0 0 0 0 0 0 0 0 0 0 0 0 0 0 0 7 1 0
1 66 56 100 74 6 90 85 94 42 1 5 5 5 5 5 8 84 86 5 0 0 0 0 0 0 0 0 0 0 0 0 0 0 0 0 0 0 0 0 0 0 0 0 0 0 0 0 0

GFSSGP_prec_cloud_078.txt.gz
Cloud_Cover
4 5 68 100 99 75 100 98 100 100 100 100 99 88 100 100 99 57 5 1 4 22 0 0 4 0 0 0 0 0 0 8 16 61 34 5 11 2 0 9 15 0 0 0 0 0 0 1 5
12 70 94 34 100 95 100 89 100 100 100 83 90 100 100 48 87 42 4 8 13 5 3 13 0 0 0 0 0 0 43 97 28 11 5 10 5 0 52 10 0 0 0 0 2 0 1 6 0
92 100 100 87 99 100 80 100 100 99 61 36 99 100 62 89 41 12 13 6 40 12 16 0 0 2 5 4 1 4 3 4 1 0 1 1 0 9 4 78 26 18 0 0 0 0 1 2 2
98 91 37 79 100 89 100 100 100 88 25 95 80 41 11 100 84 23 32 3 12 27 1 0 3 5 5 5 8 6 3 0 0 0 0 2 5 11 0 4 5 2 0 0 0 0 5 5 68
96 52 87 83 97 99 100 95 100 96 73 82 69 96 37 93 20 13 74 10 50 22 0 0 11 48 21 5 5 5 5 3 4 5 16 69 100 22 76 1 4 0 4 5 62 98 5 8 4
20 23 59 56 88 91 98 60 100 94 98 96 7 54 88 100 0 10 10 10 92 0 0 0 4 27 5 1 1 0 5 0 0 1 2 2 19 8 100 0 0 0 8 11 5 5 5 0 1
1 61 99 65 100 87 100 84 100 100 100 100 29 46 82 100 15 0 5 99 63 0 0 1 4 22 5 0 5 8 3 9 3 0 0 0 5 5 75 0 0 0 4 4 3 1 0 0 0
3 100 100 100 100 100 100 100 100 100 100 100 61 5 54 99 83 0 4 100 5 0 0 2 0 5 5 10 3 0 0 0 0 0 6 8 5 5 5 0 0 0 18 19 0 0 0 0 0
43 66 100 89 100 100 100 100 100 89 99 100 70 5 5 26 12 45 53 100 0 0 0 0 0 5 0 0 4 0 0 0 0 23 100 100 16 5 5 0 0 5 5 77 100 85 75 100 35
20 92 100 100 100 100 100 100 100 40 86 99 100 43 12 17 19 93 44 56 0 0 19 1 0 0 3 9 0 0 0 0 0 66 100 100 81 42 0 0 0 0 0 50 100 51 98 100 100
36 5 67 100 100 100 100 100 100 55 56 100 100 96 55 47 5 20 2 10 6 0 83 2 0 0 86 0 0 3 9 0 0 2 80 78 100 100 4 70 0 5 25 45 100 20 8 94 76
11 10 100 100 100 100 98 94 96 2 6 99 100 100 39 90 12 10 23 11 4 0 89 64 52 0 2 0 0 100 3 6 0 92 100 25 100 94 50 46 95 82 100 69 100 50 0 46 34
0 10 97 100 100 99 100 27 100 100 70 44 100 60 46 6 3 35 29 29 0 14 90 81 0 2 94 20 69 93 7 58 30 77 100 84 88 80 52 81 100 88 100 85 100 74 70 70 82
0 11 90 100 100 99 70 12 100 100 16 0 4 21 22 27 33 36 12 15 4 16 68 0 0 42 7 98 24 100 65 98 49 62 100 22 42 55 60 61 47 100 20 19 100 4 31 24 42
0 0 20 18 81 95 63 43 9 23 38 0 13 24 3 90 56 22 6 0 0 0 32 0 0 0 0 87 1 11 69 12 93 100 100 93 2 1 98 86 33 76 2 3 1 0 74 15 23
0 0 0 5 18 30 53 86 39 88 100 40 16 29 67 73 99 34 27 5 0 6 0 0 0 0 1 62 0 21 98 39 88 100 80 7 0 0 92 92 79 20 84 74 73 38 2 12 100
0 0 0 0 0 1 2 77 100 86 100 100 67 76 65 13 38 84 18 43 0 0 0 0 80 0 0 0 0 9 17 11 8 100 77 0 0 7 14 98 12 0 53 42 72 100 86 3 27
0 0 0 0 0 0 2 75 66 100 100 100 99 44 96 80 67 72 46 44 0 0 0 0 38 0 0 0 0 22 35 83 27 57 77 92 12 99 33 64 1 1 3 18 98 99 26 50 11
0 0 0 0 0 2 2 100 32 28 100 100 100 99 80 90 29 58 73 12 0 0 0 0 1 0 0 0 0 0 0 62 8 6 100 100 5 100 100 17 0 4 100 0 0 0 0 34 72
0 0 0 0 0 0 85 56 4 69 100 100 100 100 98 52 66 68 28 19 0 0 0 0 0 0 0 0 0 0 5 12 72 73 6 1 0 36 100 83 0 42 20 0 89 42 0 0 0
0 0 0 0 0 0 87 99 54 100 100 100 100 40 30 97 36 8 0 7 0 0 0 0 0 0 0 0 0 0 27 58 38 82 2 0 3 0 71 15 0 0 14 14 0 0 1 9 2
0 0 0 0 0 0 0 4 11 94 100 100 83 100 63 20 10 5 0 0 0 0 0 0 0 0 0 0 0 0 0 8 0 95 5 5 1 4 1 0 0 0 1 30 0 8 98 54 0
0 0 0 0 0 0 0 4 75 96 100 46 100 92 100 0 2 0 0 0 0 0 0 0 0 0 0 0 0 0 0 0 69 0 77 0 0 23 83 0 0 0 0 0 0 0 0 99 0
0 0 0 0 0 0 0 0 4 18 5 97 100 100 86 17 0 6 0 0 0 0 0 0 0 0 0 0 0 0 0 0 0 0 92 76 0 0 19 5 0 0 41 0 0 0 0 0 0
0 0 0 0 0 0 0 0 0 92 99 100 100 34 0 4 0 12 20 0 0 0 0 0 0 0 0 0 0 0 0 0 0 0 0 0 0 0 0 0 0 0 0 0 0 0 0 0 0
0 0 0 0 0 0 0 0 0 0 26 100 4 4 47 3 11 57 0 0 0 1 0 0 0 0 0 0 0 0 5 0 0 0 0 0 0 0 0 0 0 0 0 0 0 0 0 0 0
0 23 0 2 0 0 0 0 0 1 61 81 100 100 21 100 8 0 0 0 0 1 1 0 0 0 0 0 0 0 5 0 0 0 0 0 0 32 47 0 0 0 0 0 0 0 0 0 0
3 9 25 3 5 0 0 0 0 0 2 74 20 84 100 100 83 6 1 0 0 0 0 0 0 0 0 0 0 0 0 0 0 0 1 5 4 2 36 0 0 0 0 0 0 0 0 0 0
99 1 97 96 4 2 3 2 5 1 0 0 5 28 100 100 100 98 46 0 0 0 0 0 0 0 0 0 0 0 0 0 0 0 3 2 4 0 0 0 0 0 0 0 0 0 17 0 0
100 99 100 100 28 4 46 6 100 100 19 0 0 5 100 92 100 100 100 4 0 0 0 0 0 0 0 0 0 0 0 0 0 0 0 0 0 0 0 0 0 0 0 0 0 0 0 0 0

GFSSGP_prec_cloud_081.txt.gz
Cloud_Cover
5 5 64 89 99 100 100 100 100 100 100 100 100 98 31 97 51 4 0 0 0 0 0 0 5 0 0 0 0 6 8 5 38 1 2 5 2 9 13 3 0 0 0 0 1 0 0 0 4
5 7 85 90 100 100 100 100 100 73 87 100 90 26 100 58 39 5 0 0 0 0 0 0 5 0 0 0 5 2 0 4 4 5 5 4 0 4 58 2 0 0 0 0 0 0 0 4 2
0 96 98 96 100 100 100 98 74 99 100 54 94 12 7 31 3 4 0 0 0 0 0 0 5 4 0 1 1 0 1 0 3 5 18 2 5 0 73 92 4 0 0 1 0 0 0 0 0
97 74 80 96 97 100 100 100 100 52 100 99 35 32 16 3 1 2 0 0 0 0 0 0 4 5 0 7 0 0 0 8 5 5 35 6 73 22 5 5 0 0 0 0 0 0 0 0 5
34 45 79 97 100 79 58 83 59 92 96 76 65 100 30 0 1 0 0 0 0 0 0 0 1 5 5 0 1 3 6 0 0 1 5 93 95 36 4 0 0 0 4 5 5 0 0 2 0
55 9 65 44 100 99 100 100 100 100 100 100 100 100 15 5 4 0 36 0 0 0 2 0 2 2 0 2 2 5 0 6 0 2 4 100 72 5 1 0 0 0 2 5 0 0 0 0 0
2 30 70 97 100 100 100 100 100 100 100 100 100 100 68 2 0 0 0 0 0 0 0 0 0 2 0 0 0 3 72 100 100 55 5 5 63 53 51 10 0 0 0 0 0 15 61 12 0
8 66 93 100 100 100 100 100 100 100 100 100 100 32 55 1 0 12 33 0 0 0 0 0 0 0 0 0 1 0 100 100 100 78 4 0 17 2 11 4 1 0 2 7 99 99 99 81 0
35 100 84 100 100 100 100 100 100 100 100 100 100 100 65 1 0 85 96 34 0 0 0 0 0 0 0 0 0 35 100 100 92 100 97 4 4 2 5 4 46 99 88 31 92 98 100 60 0
33 62 100 100 100 100 100 100 100 100 96 100 100 69 91 4 2 100 43 0 0 0 0 0 0 0 0 0 0 76 100 100 85 100 99 25 6 94 100 100 92 68 61 82 55 72 100 90 10
0 4 33 100 100 100 100 100 100 100 100 100 59 13 7 5 0 100 100 0 0 0 0 0 0 0 0 0 1 85 100 60 78 100 14 43 15 82 100 100 100 100 100 100 19 48 100 2 1
0 1 97 100 100 100 100 100 100 100 100 100 100 100 7 5 2 14 93 0 0 0 0 0 0 0 0 0 1 100 100 73 1 94 65 94 14 100 100 86 100 100 99 32 3 0 4 5 0
0 3 96 97 84 100 100 99 100 100 100 100 100 74 0 0 0 64 16 0 0 58 11 0 5 0 0 0 18 39 95 80 2 4 10 84 84 100 100 41 28 87 100 100 10 10 2 0 0
0 2 100 99 100 95 100 99 55 97 100 100 100 12 0 0 0 94 0 0 0 7 0 0 0 57 19 6 100 24 63 100 5 2 3 10 48 100 100 20 48 18 68 90 9 3 0 10 6
0 0 7 97 89 100 100 100 84 26 100 100 100 88 88 0 21 84 0 0 0 10 0 0 0 0 0 0 89 80 5 100 20 0 0 1 0 18 11 87 47 14 0 0 0 23 0 2 22
0 0 0 5 74 100 52 100 80 59 99 100 95 97 100 98 31 92 0 0 0 28 0 0 0 0 0 0 75 4 8 56 4 0 0 0 4 9 8 27 1 3 48 0 0 55 0 51 72
0 0 0 0 5 93 33 92 15 86 98 97 100 100 100 100 95 74 0 0 0 0 0 0 0 0 0 0 0 8 78 10 21 5 0 0 2 0 100 85 3 25 0 1 23 17 4 0 0
0 0 0 0 0 0 6 5 4 8 95 62 100 94 84 100 65 60 6 0 0 0 0 0 0 0 0 0 0 16 19 3 5 6 2 5 6 12 0 20 0 0 0 97 36 17 47 11 81
0 0 0 0 0 0 0 1 0 3 1 5 100 100 100 94 100 100 20 0 0 0 0 0 0 0 0 0 0 1 3 34 55 8 64 6 6 5 0 0 0 0 0 0 0 0 20 34 8
0 0 0 0 0 0 0 0 1 14 26 71 100 100 100 100 93 30 100 33 0 0 0 0 0 0 0 0 0 0 0 21 4 89 18 0 5 5 0 0 0 0 0 0 0 0 0 0 0
0 0 0 0 0 0 0 0 5 39 0 96 100 100 100 100 98 71 100 3 0 0 0 0 0 0 0 0 0 0 0 0 0 6 5 0 3 0 0 0 0 0 0 0 0 0 0 0 0
0 0 0 0 0 0 0 0 4 94 33 100 100 100 100 100 30 3 99 3 0 0 0 0 0 0 0 0 0 0 0 0 0 0 0 5 0 0 38 0 0 0 28 0 0 2 0 0 0
0 0 0 0 0 0 0 0 0 2 100 100 100 100 100 100 100 0 5 0 1 0 0 0 0 0 0 0 0 0 0 0 0 0 1 0 0 0 0 0 0 0 0 0 0 0 0 0 0
0 0 0 0 0 0 0 0 0 13 100 71 100 100 100 100 26 0 0 0 0 0 0 0 0 0 0 0 0 0 0 0 0 0 0 0 0 0 0 0 0 0 0 0 0 0 0 0 0
0 0 0 0 0 0 0 0 0 4 100 42 100 100 100 100 5 0 0 0 0 0 0 0 0 0 0 0 0 0 0 0 0 0 0 0 0 0 0 0 0 0 0 0 0 0 0 0 0
0 0 0 0 0 0 0 0 0 0 93 100 98 26 51 100 98 0 1 0 0 0 0 0 0 0 0 0 0 0 0 0 0 0 0 0 0 0 0 0 0 0 0 0 0 0 0 0 0
0 0 0 0 0 0 0 0 0 0 2 100 100 100 92 100 98 1 0 5 0 0 0 0 0 0 0 0 0 0 0 0 0 0 0 0 0 0 0 0 0 0 0 0 0 0 0 0 0
0 0 3 0 0 0 0 0 0 0 0 57 100 100 99 70 21 100 2 4 3 0 0 0 0 0 0 0 0 0 0 0 0 0 0 0 0 0 0 0 0 0 0 0 0 0 0 0 0
15 10 58 93 32 0 0 0 0 66 0 2 0 96 96 91 89 49 93 53 98 27 2 0 0 0 0 0 0 0 0 0 0 0 0 0 0 0 0 0 0 0 0 0 0 0 0 0 0
54 9 56 100 70 68 12 0 41 22 15 0 0 75 50 100 100 94 100 99 100 100 54 0 0 0 0 0 0 0 0 0 0 0 0 0 0 0 0 0 0 0 0 0 0 0 0 0 0

GFSSGP_prec_cloud_084.txt.gz
Cloud_Cover
5 6 100 98 100 100 100 100 100 100 100 98 98 44 100 100 5 1 1 0 0 0 0 0 0 0 0 0 0 0 0 0 1 2 5 0 13 23 3 0 0 0 4 3 4 4 85 100 100
5 16 89 100 100 100 100 100 100 100 100 100 88 84 92 81 38 1 0 0 0 0 0 0 0 0 0 0 2 0 4 4 36 69 12 1 8 2 3 0 0 2 0 6 0 1 5 4 5
4 9 94 100 100 100 100 100 100 100 100 100 99 97 99 56 5 0 0 0 0 0 0 0 0 0 0 0 1 7 9 5 95 100 100 86 62 3 15 4 0 12 1 0 2 0 0 2 5
100 54 56 100 100 100 100 100 100 100 100 100 100 93 100 14 5 1 0 0 0 0 0 0 0 0 0 0 0 1 2 0 5 6 100 100 90 4 5 0 0 0 0 0 0 0 0 4 5
19 56 100 100 100 100 100 100 100 100 100 100 74 90 100 30 0 0 0 0 0 0 0 0 0 3 3 6 100 5 0 1 4 1 17 100 56 1 0 0 0 3 1 0 0 0 0 5 0
52 30 96 100 100 100 100 100 100 100 97 100 88 100 100 67 1 0 0 0 0 0 0 0 0 0 1 100 100 4 1 0 5 5 4 5 4 0 2 1 0 1 3 0 0 0 0 19 13
46 31 99 100 100 100 100 100 100 100 100 100 100 100 67 23 5 1 0 0 0 4 0 0 0 1 1 47 100 19 9 1 10 30 65 9 72 5 5 9 11 39 5 41 95 100 5 0 0
2 19 21 100 100 100 100 100 100 100 100 100 100 100 72 49 5 21 0 0 0 0 0 0 1 0 0 5 96 100 100 96 6 99 100 94 100 80 59 41 54 30 99 100 100 92 66 1 0
4 53 81 100 100 100 100 100 100 100 100 100 100 100 100 96 1 0 0 0 0 0 0 0 0 0 0 91 85 89 100 100 50 100 100 94 97 100 100 100 100 37 4 5 5 27 5 0 3
50 3 3 100 100 100 100 100 100 100 100 100 100 100 100 85 0 0 0 0 0 5 0 0 0 0 0 5 55 63 100 93 72 51 22 100 100 100 100 100 100 100 11 72 6 5 1 0 10
92 15 86 5 100 100 100 100 100 100 100 100 100 100 79 100 0 0 0 0 0 0 0 0 0 0 0 5 15 97 100 97 37 62 100 22 100 100 100 100 100 100 84 5 3 0 0 2 77
0 100 100 97 100 100 100 100 100 100 100 100 100 99 38 100 8 4 0 0 0 0 0 0 0 0 0 0 37 51 68 89 91 100 87 96 100 96 91 100 100 100 6 5 0 4 0 1 31
0 0 2 86 100 100 100 100 100 100 100 100 100 100 100 100 93 0 9 0 0 0 0 0 0 0 0 4 3 9 1 1 7 95 100 100 100 59 14 16 64 99 34 1 0 0 0 0 0
0 0 5 100 100 91 100 100 100 98 100 94 100 88 100 100 98 3 78 0 0 0 0 0 0 0 0 1 5 5 0 2 5 48 100 94 1 8 0 16 22 77 0 0 0 0 0 0 72
0 0 4 39 33 29 100 100 100 100 100 100 100 55 100 100 100 59 0 0 0 0 0 0 0 0 0 1 5 5 0 0 2 0 4 46 81 2 12 3 26 4 0 0 0 0 0 0 2
0 0 0 5 82 67 87 100 100 100 100 76 16 45 99 100 100 95 0 0 0 0 0 0 0 0 0 0 19 0 88 0 8 1 2 2 14 0 4 4 0 7 3 0 0 0 0 0 0
0 0 0 3 6 86 67 100 100 100 97 100 99 99 73 100 96 96 16 0 0 0 0 0 0 0 0 3 69 0 4 1 4 5 4 0 0 0 26 17 0 4 0 0 0 0 0 0 0
0 0 0 0 96 12 48 63 24 11 11 80 63 96 100 100 100 90 37 4 0 0 0 0 0 0 0 0 5 0 0 0 0 0 5 0 0 0 68 5 0 0 0 0 0 58 0 0 0
0 0 0 0 2 5 3 45 5 5 0 3 89 65 100 100 100 100 100 0 0 0 0 0 0 0 0 0 0 0 0 5 4 5 4 2 0 0 0 0 0 10 0 0 0 11 31 0 0
0 0 0 0 0 0 0 32 35 0 0 3 2 92 41 22 100 100 82 100 0 0 0 0 0 0 0 0 0 0 0 5 92 12 0 0 0 0 0 0 0 0 0 0 0 0 0 0 52
0 0 0 0 0 0 0 100 100 22 0 2 4 98 100 100 100 100 100 81 0 0 0 0 0 0 0 0 0 0 0 12 2 0 0 0 0 0 0 0 0 0 0 0 0 0 0 0 0
0 0 0 0 0 0 0 1 38 97 34 3 5 100 100 100 100 100 82 12 0 0 0 0 0 0 0 0 0 0 0 0 0 0 0 0 0 0 0 0 0 0 0 0 0 0 0 0 0
0 0 0 0 0 0 0 0 0 23 22 0 28 100 100 100 100 100 97 0 0 0 0 0 0 0 0 0 0 0 0 0 0 0 0 0 0 0 0 0 0 0 0 0 0 0 0 0 0
0 0 0 0 0 0 0 0 0 0 0 0 2 100 94 100 100 100 43 0 5 0 0 0 0 0 0 0 0 0 0 0 0 0 0 0 0 0 0 0 0 0 0 0 0 0 0 0 0
0 0 0 0 0 0 0 0 0 0 0 0 0 100 95 100 100 100 47 4 0 0 0 0 0 0 0 0 0 0 0 0 0 0 0 0 0 0 0 0 0 0 0 0 0 0 0 0 0
0 0 0 0 0 0 0 0 0 0 0 0 1 100 84 94 100 98 3 5 0 0 0 0 0 0 0 0 0 0 0 0 0 0 0 0 0 0 0 0 0 0 0 0 0 0 0 0 0
0 0 0 0 0 0 0 0 0 0 0 0 0 100 100 94 100 98 67 4 0 0 0 0 0 0 0 0 0 0 0 0 0 0 0 0 0 0 0 0 0 0 0 0 0 0 0 0 0
0 0 0 0 0 0 0 0 0 0 0 0 1 99 100 99 96 48 97 8 1 0 0 0 0 0 0 0 0 0 0 0 0 0 0 0 0 0 0 0 0 0 0 0 0 0 0 0 0
2 0 0 0 0 0 0 0 0 0 0 0 3 100 100 100 87 30 100 93 5 18 1 1 0 0 0 0 0 0 0 0 0 0 0 0 0 0 0 0 0 0 0 0 0 0 0 0 0
0 5 1 0 2 24 4 0 0 0 0 0 0 41 22 100 100 100 100 65 9 8 4 0 0 0 0 0 0 0 0 0 0 0 0 0 0 0 0 0 0 0 0 0 0 0 0 0 0

GFSSGP_prec_cloud_087.txt.gz
Cloud_Cover
93 15 60 76 100 100 100 100 100 100 100 100 100 100 100 97 0 1 0 0 0 0 5 5 0 0 0 0 0 4 32 99 98 72 4 4 4 1 0 2 5 10 7 5 5 96 100 78 100
36 66 100 100 100 100 100 100 100 100 100 94 100 100 100 100 97 0 17 0 0 0 5 0 0 1 0 0 0 4 4 17 100 100 70 58 9 4 5 3 0 0 16 0 2 6 72 100 100
5 68 100 100 100 100 100 100 100 100 100 100 100 100 100 100 90 0 0 0 0 0 0 0 1 3 3 0 2 1 0 6 21 86 95 69 6 6 5 3 12 2 0 0 5 4 1 3 34
97 100 75 100 100 100 100 100 100 100 100 100 100 100 100 98 6 0 0 0 0 0 0 0 0 5 0 2 6 5 5 16 45 93 65 92 6 2 0 1 11 0 2 10 0 0 2 94 42
21 100 100 100 100 100 100 100 100 100 100 100 100 100 99 100 4 0 0 0 0 0 0 0 3 97 3 0 5 6 10 19 77 62 82 52 7 2 1 0 0 0 0 0 3 5 27 5 4
58 86 100 100 100 100 100 100 100 100 100 96 100 100 100 100 20 0 0 0 0 0 0 0 7 100 21 3 2 59 100 99 17 11 6 5 5 5 3 10 4 30 38 18 2 5 66 19 72
9 73 100 100 100 100 100 100 100 100 100 100 99 100 100 100 85 0 0 0 0 0 0 0 0 5 5 15 96 100 100 100 100 100 100 76 75 13 5 28 39 44 24 6 66 19 2 1 2
5 69 95 64 100 100 100 100 100 100 100 100 100 100 100 100 100 0 0 0 10 4 6 0 19 6 5 13 37 100 100 100 100 100 100 100 100 38 23 55 40 60 18 36 100 10 5 5 6
32 70 100 51 100 100 100 100 100 100 100 100 65 100 100 96 100 81 6 56 68 31 22 1 8 3 4 5 5 100 82 100 100 100 98 100 100 96 81 86 100 34 4 0 17 9 0 0 5
10 4 100 40 99 100 100 100 100 100 100 100 100 100 99 65 100 100 42 90 100 88 43 7 2 4 5 4 17 86 80 100 100 100 100 91 87 100 100 92 43 56 5 2 0 0 0 0 5
5 70 100 100 99 100 100 100 100 100 100 100 100 100 98 97 100 94 0 2 5 45 31 4 13 2 0 4 48 26 14 67 100 100 58 29 83 48 5 97 4 20 4 2 1 0 0 0 0
4 63 84 100 100 100 100 100 100 100 100 100 100 100 86 100 100 100 100 0 0 7 0 0 0 1 0 20 26 10 99 100 100 60 9 92 7 5 5 94 86 30 42 0 0 0 0 1 4
2 4 100 100 100 100 100 100 100 100 100 100 100 36 25 100 100 100 100 5 0 0 0 0 0 0 0 3 13 34 47 100 100 8 9 29 5 5 25 5 15 0 0 0 0 0 0 0 0
2 4 66 100 100 100 100 100 100 100 100 100 99 5 88 80 93 65 100 32 0 0 0 0 0 0 2 0 1 2 5 9 34 59 4 0 0 9 5 5 0 0 0 0 0 0 0 0 17
0 85 5 92 100 100 60 100 100 100 100 100 100 77 86 43 28 76 100 74 0 0 0 0 0 0 0 0 0 0 0 5 4 0 0 0 0 6 0 3 4 0 0 0 18 0 0 0 81
0 0 0 2 5 35 9 100 100 100 100 100 100 92 13 7 26 94 100 82 0 0 0 0 5 0 0 0 0 0 0 5 5 0 1 5 0 0 0 0 0 0 0 0 0 0 0 1 0
0 0 0 0 27 23 60 98 100 99 100 100 100 100 66 98 57 91 98 81 25 0 0 0 0 0 0 0 22 0 0 7 5 3 0 0 0 0 6 2 0 0 0 0 0 12 0 0 0
0 0 0 0 21 7 86 82 100 100 99 100 100 100 19 87 86 29 67 74 98 0 0 0 0 0 0 0 20 0 0 0 0 5 4 0 0 0 0 0 0 0 0 0 0 0 0 0 11
0 0 0 4 5 3 2 5 34 100 100 100 100 93 79 99 76 25 86 9 100 0 0 0 0 0 0 0 0 0 0 2 0 1 0 3 3 1 0 0 0 4 0 0 0 0 0 0 0
0 0 0 5 5 0 0 0 0 2 93 100 100 96 37 5 5 0 16 5 95 8 0 0 0 0 0 0 0 0 0 0 5 0 0 0 0 0 0 0 0 0 0 0 0 0 0 0 0
0 0 0 4 5 2 0 2 2 0 0 7 12 8 5 5 5 4 100 53 48 75 0 0 0 0 0 0 0 0 0 5 2 0 0 0 0 0 0 0 0 0 0 0 0 0 0 0 0
0 0 0 0 0 0 0 0 0 0 0 0 4 0 18 70 16 5 16 86 81 100 0 0 0 0 0 0 0 0 0 0 0 0 0 0 0 0 0 0 0 0 0 0 0 0 0 0 0
0 0 0 0 0 0 0 0 0 0 0 0 3 5 99 99 72 89 41 92 99 39 0 0 0 0 0 0 0 0 0 0 0 0 0 0 0 0 0 0 0 0 0 0 0 0 0 0 0
0 0 0 0 0 0 0 0 0 34 0 0 0 5 42 97 77 72 10 30 89 54 0 0 0 0 0 0 0 0 0 0 0 0 0 0 0 0 6 0 0 0 1 0 0 0 0 0 0
0 0 0 0 0 0 0 0 0 0 0 0 0 1 40 86 32 98 100 73 86 0 0 0 0 0 0 0 0 0 0 0 0 0 0 0 0 0 0 0 0 0 0 0 0 0 0 0 0
0 0 0 0 0 0 0 0 0 0 0 0 0 0 13 57 100 100 100 45 6 0 0 0 0 0 0 0 0 0 0 0 0 0 0 0 0 0 0 0 0 0 0 0 0 0 0 0 0
0 0 0 0 0 0 0 0 0 0 0 0 0 0 0 100 92 96 45 5 4 0 0 0 0 0 0 0 0 0 0 0 0 0 0 0 0 0 0 0 0 0 0 0 0 0 0 0 0
0 0 0 0 0 0 0 0 15 35 20 13 35 0 0 100 100 99 94 65 5 0 0 0 1 0 0 0 0 0 0 0 0 0 0 0 0 0 0 0 0 0 0 0 0 0 0 0 0
0 0 0 0 0 0 0 1 0 100 92 51 25 48 0 34 100 100 42 63 12 5 1 0 1 0 0 0 0 0 0 0 0 0 0 0 0 0 0 0 0 0 0 0 0 0 0 0 0
0 0 0 0 0 0 0 0 0 46 98 0 0 0 1 1 100 100 100 54 99 79 60 1 0 0 0 0 0 0 0 0 0 0 0 0 0 0 0 0 0 0 0 0 0 0 0 0 0

GFSSGP_prec_cloud_090.txt.gz
Cloud_Cover
38 5 80 100 100 100 100 100 100 100 100 100 100 100 100 100 5 0 0 0 0 0 0 0 0 0 0 3 0 1 5 94 99 40 2 22 0 0 0 6 1 0 1 5 33 100 100 100 100
29 75 75 100 100 100 100 100 100 100 100 97 100 90 99 100 34 4 16 0 0 0 0 5 1 0 0 1 5 4 33 100 100 100 86 95 1 2 7 1 3 2 1 0 0 34 95 55 100
4 78 100 100 100 100 100 100 100 100 97 100 100 88 100 100 81 1 0 0 0 4 2 10 0 3 0 5 4 11 13 22 14 71 100 18 4 2 5 2 0 12 0 0 8 2 2 16 100
53 100 100 100 100 100 100 100 100 100 100 100 100 98 100 100 74 12 0 0 1 3 1 6 0 0 5 22 8 5 20 8 32 5 61 5 5 0 12 46 0 0 10 0 0 0 5 54 5
95 96 100 100 100 100 100 100 100 100 100 65 100 69 100 100 80 100 1 0 4 1 0 4 0 4 13 11 14 68 14 31 7 57 6 4 5 6 5 14 18 6 2 3 1 5 10 5 5
97 100 100 100 100 99 100 100 95 100 92 100 100 86 98 99 74 100 0 0 0 0 1 0 5 18 76 83 5 28 15 71 99 5 1 17 4 10 5 5 17 5 5 5 6 5 5 38 89
61 100 98 100 100 100 100 100 100 100 99 100 46 97 100 98 76 100 0 0 0 2 5 0 0 12 79 67 5 42 100 79 99 87 96 12 6 5 26 5 20 2 5 5 6 9 5 4 25
7 100 100 100 100 100 100 100 100 100 100 100 100 57 100 100 80 98 36 30 36 28 18 11 0 1 0 5 5 5 97 27 100 56 17 12 20 51 100 3 5 1 5 5 5 5 5 6 5
82 92 100 100 100 100 100 100 100 100 100 100 100 100 100 100 72 100 100 69 77 60 26 13 20 2 3 0 5 76 95 100 99 14 87 6 42 100 100 4 33 0 5 4 0 0 5 5 9
13 54 95 100 100 100 100 100 100 100 100 100 100 100 93 100 63 99 100 44 100 100 74 19 4 0 0 5 4 9 5 69 80 47 5 17 37 100 96 14 50 6 1 0 0 0 0 2 13
5 15 100 100 98 100 98 100 100 100 100 100 92 97 68 100 97 36 100 98 6 85 68 24 6 8 1 45 8 10 5 43 85 5 5 31 16 100 95 97 24 14 1 0 0 0 6 0 0
4 0 70 100 59 100 100 100 100 100 100 100 99 61 55 30 7 6 63 100 74 100 61 18 10 24 5 18 13 36 36 6 7 34 30 12 84 4 2 4 3 1 0 0 0 0 0 0 0
0 1 27 59 100 100 100 100 100 100 100 100 100 26 18 5 5 13 5 100 22 50 14 9 10 18 4 20 24 18 4 4 0 1 5 5 5 62 5 1 1 1 0 0 0 0 0 0 0
0 0 5 82 100 100 93 100 100 100 93 67 100 90 52 5 5 73 80 67 37 0 0 0 0 2 0 13 13 10 4 3 0 1 1 5 10 6 5 3 0 0 0 0 0 0 0 7 8
0 0 5 62 100 100 100 100 100 100 100 52 80 97 91 62 86 19 48 20 3 3 0 0 0 0 0 0 0 0 5 2 6 5 0 4 2 7 5 4 0 0 0 0 0 0 0 35 0
0 0 5 6 100 100 100 100 100 100 100 100 66 100 97 82 91 28 13 2 2 4 0 0 0 0 0 0 0 0 5 4 12 5 0 0 0 8 0 0 0 0 0 0 0 0 0 61 4
0 0 1 43 79 100 100 100 100 100 100 100 96 74 89 100 100 75 6 0 5 32 1 0 0 0 0 0 0 0 4 4 4 9 0 0 0 0 0 0 0 0 0 0 0 0 0 0 0
0 0 0 29 7 100 100 100 86 95 82 100 63 55 85 100 100 39 4 0 0 4 5 0 0 0 0 0 0 0 0 0 0 0 0 0 0 0 2 0 0 0 0 0 0 0 0 0 0
0 0 0 0 72 83 100 86 6 17 100 100 54 7 74 62 97 91 5 0 0 0 9 1 0 0 0 0 0 0 0 10 0 0 0 0 1 4 2 0 0 0 0 0 0 0 0 0 0
0 0 0 0 5 1 57 58 5 5 100 89 98 5 52 98 77 35 5 0 0 2 1 39 0 0 0 0 0 0 0 0 0 0 0 0 0 0 1 0 0 0 0 0 0 0 0 0 0
0 0 0 0 0 0 3 3 2 4 0 52 28 47 8 46 13 59 5 0 0 5 0 77 2 0 0 0 0 0 0 1 0 0 0 0 2 0 0 0 0 0 0 0 0 0 0 0 0
0 0 0 0 0 0 0 0 0 0 0 0 5 5 19 58 6 5 0 1 4 4 4 0 0 0 0 0 0 0 0 0 0 0 0 0 0 0 0 0 0 0 0 0 0 0 0 0 0
0 0 0 0 0 0 0 0 0 0 0 2 0 34 92 97 14 0 0 0 5 2 16 0 0 0 0 0 0 0 0 0 0 0 0 0 0 0 0 0 0 0 0 0 0 0 0 0 0
0 0 0 0 0 0 0 0 0 10 0 0 0 4 22 83 99 11 4 4 0 5 18 7 0 0 0 0 0 0 0 0 0 0 0 0 0 0 1 0 0 0 0 0 0 0 0 0 0
0 0 0 0 0 0 0 0 0 0 0 0 0 0 1 5 78 75 11 37 7 1 49 9 0 0 0 0 0 0 0 0 0 0 0 0 0 0 0 0 0 0 0 0 0 0 0 0 0
0 0 0 0 0 0 0 0 0 0 0 0 0 0 4 55 16 80 67 77 4 22 2 0 0 0 0 0 0 0 0 0 0 0 0 0 0 0 0 0 0 0 0 0 0 0 0 0 0
0 0 0 0 0 0 0 0 0 0 0 1 10 21 18 80 53 96 45 85 10 5 0 0 0 0 0 0 0 0 0 0 0 0 0 0 0 0 0 1 0 0 0 0 0 0 0 0 0
0 0 0 0 0 0 0 0 62 17 57 64 88 100 99 5 5 93 76 32 26 5 1 0 1 0 0 0 0 0 0 0 0 0 0 0 0 0 0 0 0 0 0 0 0 0 0 0 0
0 0 0 0 0 0 0 34 1 71 100 99 100 100 100 100 68 20 93 59 100 100 74 15 0 1 0 0 0 0 0 0 0 0 0 0 0 0 0 0 0 0 0 0 0 0 0 0 0
0 0 0 0 0 0 0 0 0 96 100 100 100 100 100 100 100 98 76 94 100 100 100 100 29 72 24 0 3 11 8 0 0 0 0 0 0 0 0 0 0 0 0 0 0 0 0 0 0

GFSSGP_prec_cloud_093.txt.gz
Cloud_Cover
91 93 100 100 100 98 100 100 100 100 99 95 100 99 100 100 70 0 0 0 1 1 0 0 1 15 0 0 2 0 0 12 10 5 0 0 0 0 0 2 1 5 4 5 31 97 100 100 100
6 100 100 100 100 100 90 100 100 100 98 99 100 99 67 100 86 0 0 0 4 0 0 0 0 1 11 8 5 4 5 5 4 58 12 1 0 0 0 8 0 3 3 6 4 44 95 100 100
1 31 100 58 100 100 84 99 100 100 100 96 100 100 100 100 37 0 0 0 0 0 0 1 5 4 5 5 5 9 11 2 5 5 5 0 1 8 2 1 0 1 14 4 4 5 68 100 100
26 71 100 100 91 90 100 100 99 100 100 96 100 75 100 100 100 8 0 0 0 0 0 5 35 14 5 5 12 5 11 4 32 54 5 4 0 5 79 68 0 5 8 12 0 5 6 18 90
91 100 100 80 100 95 86 98 94 100 100 96 100 97 98 77 100 54 0 0 0 0 0 6 5 5 26 5 8 5 10 5 2 3 1 5 4 6 14 5 6 2 13 2 3 5 8 19 5
100 100 100 100 100 61 84 100 100 100 100 99 99 98 86 53 100 96 0 0 0 0 0 1 0 11 23 9 16 80 6 1 8 1 5 18 13 6 5 4 5 1 5 5 16 5 5 8 99
83 100 100 100 83 100 100 100 100 100 100 100 91 64 100 94 49 100 20 0 0 0 0 0 0 6 44 5 10 34 5 5 5 5 20 6 52 10 3 2 3 2 5 3 1 11 43 28 84
45 100 100 100 100 100 100 100 100 99 100 100 60 99 99 91 14 73 68 2 0 0 0 11 34 24 22 11 17 49 100 5 3 0 1 97 16 5 5 0 1 0 0 2 4 5 20 61 98
1 100 100 79 100 100 77 100 100 100 100 100 100 73 19 97 5 7 97 36 38 22 1 18 31 21 16 15 15 17 18 5 6 6 2 61 39 10 46 5 2 0 0 0 0 0 5 86 100
0 97 100 100 72 97 84 99 100 100 100 100 100 74 5 100 2 9 55 28 28 30 17 29 34 24 24 33 26 24 10 10 5 3 8 50 34 5 7 1 0 0 0 0 1 0 0 0 46
3 1 100 100 59 100 99 96 100 100 100 100 100 33 4 53 5 9 29 37 1 76 40 20 29 0 28 37 25 28 6 5 5 5 1 8 0 2 7 8 3 0 0 0 0 1 0 0 0
0 0 2 100 100 100 100 98 100 100 100 100 100 71 2 10 49 90 23 40 0 35 28 0 8 0 26 48 22 8 4 4 5 5 18 35 0 0 0 0 0 0 0 0 0 0 0 0 0
53 1 2 99 85 100 100 100 100 97 97 100 86 6 4 10 99 84 0 4 4 4 0 0 1 1 0 31 13 3 5 0 5 33 57 5 5 0 0 0 0 0 0 0 0 0 0 0 1
7 0 1 6 100 100 100 100 97 100 100 93 62 38 2 19 88 6 5 1 0 5 4 0 0 12 11 1 5 3 0 0 2 5 72 5 5 5 5 0 0 0 0 0 0 0 0 0 3
0 0 0 3 73 99 92 100 100 100 100 100 30 5 5 6 7 34 15 3 0 0 6 0 0 0 5 0 0 2 5 2 2 1 6 5 3 5 0 0 0 0 0 0 0 0 0 1 0
0 0 4 5 5 92 100 100 100 100 100 66 33 31 5 5 52 97 66 3 0 0 7 2 0 0 0 0 0 0 0 0 2 0 0 0 0 0 0 0 0 0 0 0 0 0 0 0 0
0 0 1 4 81 34 100 100 100 100 100 100 88 12 5 5 5 9 18 1 5 0 6 4 0 0 0 0 0 0 0 0 0 0 0 0 2 0 0 0 0 0 0 0 0 0 1 0 0
0 0 2 5 59 67 100 100 100 100 100 95 100 20 6 5 44 8 22 40 17 0 3 5 14 0 0 0 0 3 0 0 0 0 0 0 0 0 0 0 0 0 0 0 0 0 0 0 0
0 0 0 3 45 97 100 100 100 100 100 100 100 98 5 5 6 5 20 17 70 1 4 5 30 0 0 0 0 0 0 0 1 0 0 0 0 0 0 0 0 0 0 0 0 0 0 0 0
0 0 0 0 4 34 100 100 100 100 100 100 95 96 38 7 5 5 93 8 100 9 0 5 5 0 0 0 0 0 0 0 0 0 0 4 0 0 0 0 0 0 0 0 0 0 0 0 0
0 0 0 0 0 5 89 96 100 92 69 43 54 64 38 24 4 3 5 28 68 32 0 0 56 0 0 0 0 0 0 0 0 0 0 5 1 0 0 0 0 0 0 0 0 0 0 0 0
0 0 0 0 0 1 28 81 91 47 44 95 99 87 92 53 72 8 85 7 5 2 0 0 37 0 0 0 0 0 0 0 0 0 0 0 0 1 0 0 0 0 0 0 0 0 0 0 0
0 0 0 0 0 0 11 58 7 56 93 65 53 68 91 100 79 16 4 0 0 0 0 4 21 3 0 0 0 0 0 0 0 0 0 0 0 0 0 0 0 0 0 0 0 0 0 0 0
0 0 0 0 0 0 0 4 0 2 12 5 4 5 5 35 100 80 1 0 0 0 0 0 19 3 0 0 0 0 0 0 0 0 0 0 0 0 0 0 0 0 0 0 0 0 0 0 0
0 0 0 0 0 0 0 0 27 62 73 99 27 2 5 11 66 63 5 0 0 0 0 0 17 3 0 0 0 0 0 0 0 0 0 0 0 0 0 0 0 0 0 0 0 0 0 0 0
0 0 0 0 0 0 0 0 89 24 56 62 61 46 7 70 88 97 14 18 3 25 5 15 23 5 0 0 0 0 0 0 0 0 0 0 0 0 0 0 0 0 0 0 0 0 0 0 0
0 0 0 0 0 0 0 0 0 0 1 36 100 100 100 73 94 100 100 53 28 77 5 1 45 6 0 14 9 0 0 0 0 0 0 0 0 0 0 0 0 0 0 0 0 0 0 0 0
0 0 0 0 0 0 0 0 45 50 31 41 94 100 100 99 62 97 99 15 5 21 44 4 52 5 1 22 53 11 0 0 0 0 0 0 0 0 0 0 0 0 0 0 0 0 0 1 0
0 0 0 0 0 0 0 16 100 100 100 100 100 100 100 100 100 100 100 60 16 100 84 65 99 85 10 3 81 70 0 0 0 0 0 0 0 0 0 0 0 0 0 0 4 0 0 0 0
0 0 0 0 0 0 0 17 100 100 100 100 100 100 100 100 100 100 100 100 90 99 100 100 100 100 39 55 100 100 87 34 0 0 0 0 0 0 0 0 0 0 0 0 0 0 0 0 0

GFSSGP_prec_cloud_096.txt.gz
Cloud_Cover
100 100 100 100 98 92 74 100 100 100 97 97 94 100 100 94 10 23 0 0 0 2 5 2 3 5 2 5 7 4 17 6 4 3 0 0 0 0 0 1 1 4 4 5 16 100 100 86 92
93 100 87 41 89 37 36 96 100 95 90 97 100 99 100 45 0 0 0 0 0 0 5 5 3 0 2 0 0 13 28 12 7 8 1 0 0 4 1 5 5 10 10 16 100 98 99 63 100
31 100 96 98 29 100 99 83 100 51 38 100 34 98 100 57 0 0 0 0 0 1 11 5 4 4 5 3 0 1 0 5 20 5 1 1 44 5 4 0 5 5 1 4 80 100 100 100 100
90 77 92 99 64 60 100 79 100 100 37 91 74 100 100 62 6 5 0 0 0 0 4 5 5 5 5 5 4 5 5 5 5 7 3 0 6 43 41 2 4 2 5 5 7 13 100 100 97
42 67 100 100 73 32 62 100 100 100 54 97 66 99 96 77 17 20 0 0 0 9 8 0 5 63 5 22 75 86 5 3 1 0 12 3 8 3 4 0 0 6 3 6 5 12 5 57 100
84 76 100 100 99 99 59 74 100 100 100 100 98 100 86 30 16 14 1 0 33 18 42 12 1 4 6 84 100 44 0 3 5 8 86 78 8 4 10 0 1 5 5 5 52 98 98 55 97
100 100 100 100 100 50 79 97 99 100 100 100 100 100 99 64 18 4 2 0 35 39 39 34 10 2 4 8 96 4 0 4 1 45 66 100 5 4 1 5 0 5 6 5 11 20 73 98 100
93 100 100 100 100 99 100 100 100 100 100 100 100 100 88 99 16 0 5 0 38 46 35 15 14 72 89 20 5 2 0 0 5 10 100 99 2 3 0 0 1 2 4 3 5 37 94 100 97
11 87 100 100 100 85 48 77 88 92 100 100 100 100 65 100 32 3 0 3 35 70 13 33 60 69 98 80 8 6 4 5 0 0 57 100 44 59 64 0 2 0 0 0 12 6 36 82 60
44 100 100 100 99 99 49 83 96 98 100 100 100 82 24 91 5 4 0 0 4 5 7 82 89 47 68 84 25 22 48 30 40 16 15 52 45 54 6 0 0 0 2 3 8 2 46 100 60
10 99 44 100 100 30 92 99 100 89 100 100 100 72 5 6 2 5 5 0 2 0 28 43 99 100 100 9 8 24 92 38 32 39 30 87 53 62 26 4 0 0 10 53 45 45 77 30 22
28 4 13 100 100 82 100 98 100 100 100 100 85 23 5 6 1 5 0 0 0 4 2 35 19 86 65 44 26 36 82 52 61 21 36 14 52 79 41 19 0 0 10 0 2 15 1 21 7
0 0 5 75 100 100 100 98 100 100 99 99 100 30 5 0 0 0 5 0 0 1 0 0 0 2 66 44 15 40 41 82 32 7 24 4 8 16 5 4 12 0 0 0 0 2 27 24 8
0 0 4 5 60 100 100 100 100 100 100 100 11 3 5 0 0 5 4 2 1 0 1 0 0 0 25 35 11 32 37 10 70 5 5 5 4 0 0 0 0 0 0 0 0 0 66 42 17
0 0 3 5 27 100 100 100 100 100 99 99 5 5 4 0 5 12 5 3 0 0 0 5 0 0 18 28 7 51 10 32 73 25 5 5 5 5 3 2 1 0 0 0 0 0 0 43 20
0 0 11 3 26 14 100 100 100 100 100 92 10 5 5 4 4 11 6 6 6 2 0 5 4 0 0 2 0 36 75 30 38 48 3 4 1 0 0 13 0 0 0 0 0 22 64 27 9
0 4 3 4 16 55 87 100 100 100 100 100 46 7 5 1 0 3 5 17 22 4 0 1 0 0 0 0 1 17 8 1 0 19 62 5 1 0 0 43 22 0 0 0 23 14 72 1 31
2 18 0 3 23 69 87 100 100 100 100 100 100 87 40 3 0 0 4 5 5 5 0 0 0 0 0 2 1 9 32 98 11 0 80 0 0 0 0 3 1 0 0 0 45 13 3 14 8
5 5 4 5 31 68 100 100 100 100 100 98 90 100 100 42 1 0 0 33 11 8 4 0 4 0 0 0 0 5 34 63 0 0 0 0 27 1 0 5 0 0 4 32 0 0 1 4 0
0 0 2 4 11 79 100 99 100 65 100 100 86 100 100 100 39 2 0 2 5 6 5 1 0 0 0 1 31 34 2 1 49 16 2 0 0 0 0 0 1 2 14 0 0 0 9 0 0
0 4 1 3 6 89 100 99 84 82 93 100 100 100 100 100 87 3 0 2 5 5 5 0 0 5 0 11 9 17 4 2 8 0 5 0 2 6 2 0 3 0 43 2 0 0 2 29 0
0 2 2 0 2 61 83 100 99 88 96 99 99 100 100 100 100 93 29 5 2 5 1 0 0 2 0 0 5 0 18 48 98 56 7 2 0 22 0 0 0 0 71 2 0 0 5 6 7
35 0 0 0 0 0 48 100 100 70 97 89 69 74 96 98 93 100 56 23 0 0 0 0 0 0 0 0 0 0 7 0 0 89 1 16 1 0 10 0 0 0 37 0 1 0 0 0 24
1 0 0 0 0 0 15 92 5 55 98 99 100 84 100 26 34 44 100 90 0 0 0 0 0 0 0 0 0 0 10 2 2 32 5 18 3 4 0 0 0 0 2 0 0 0 0 0 4
0 0 0 0 0 0 0 77 64 79 80 72 94 73 32 19 84 90 82 81 26 0 0 0 0 1 2 0 0 0 0 5 0 6 1 99 54 35 2 4 1 3 0 0 0 0 0 0 0
0 0 0 0 0 0 0 7 72 20 34 65 100 100 90 90 16 100 96 4 0 0 0 0 0 0 0 0 0 0 0 0 0 0 8 1 52 12 1 0 0 0 0 0 0 0 0 0 0
0 0 2 4 5 2 0 1 21 37 37 28 100 100 100 99 98 80 94 76 18 0 0 0 1 0 0 0 0 0 0 0 0 0 0 0 18 48 0 0 0 0 0 0 0 10 0 0 0
0 0 0 0 2 1 1 0 23 72 83 100 100 100 100 100 75 97 84 99 92 20 0 0 32 87 59 88 29 44 1 0 0 0 0 0 0 0 2 0 0 0 0 1 12 21 0 0 0
0 0 0 0 0 0 5 15 91 84 100 100 100 100 100 100 94 93 98 100 100 95 35 15 61 83 86 100 75 17 72 2 0 0 0 0 0 0 0 0 0 7 0 6 21 5 5 0 0
0 0 0 0 2 0 23 83 98 55 98 100 100 100 100 100 100 100 83 100 90 83 99 100 89 35 88 51 70 45 69 64 45 0 0 0 0 0 0 0 0 0 1 0 0 3 5 6 2

GFSSGP_prec_cloud_099.txt.gz
Cloud_Cover
100 100 94 100 100 90 99 90 100 72 92 77 100 85 64 56 78 15 2 24 34 5 5 5 3 0 4 1 4 6 3 1 0 0 0 0 3 5 6 4 5 5 32 100 100 100 100 59 100
100 95 98 99 99 86 93 73 100 74 63 87 100 68 24 2 1 0 12 13 5 12 6 5 20 5 5 5 2 4 4 13 11 1 0 0 0 0 2 2 2 0 2 4 16 87 37 5 100
100 84 98 78 99 100 95 100 100 75 23 96 100 76 17 16 1 1 2 6 70 41 4 5 49 49 12 87 5 4 4 15 9 1 3 20 1 2 0 4 1 4 5 6 62 99 90 100 100
100 100 83 97 100 97 91 100 100 100 40 100 100 100 60 4 0 2 0 80 67 76 10 64 20 6 51 100 2 5 5 5 5 9 2 1 17 9 0 1 6 0 1 8 100 82 100 95 100
100 36 94 98 100 69 83 88 100 91 95 64 100 100 89 4 0 0 7 63 87 97 0 4 4 5 78 66 6 3 44 9 88 100 5 5 7 23 0 0 1 0 5 5 58 88 98 100 97
35 91 100 100 98 80 89 99 100 100 53 69 57 98 61 8 10 5 21 78 100 80 80 7 1 5 66 8 5 0 4 6 76 96 52 9 5 6 0 0 5 5 5 6 80 38 100 94 98
84 34 100 100 96 91 88 100 95 100 33 100 35 22 74 10 42 2 67 67 91 88 51 10 12 5 5 5 1 4 3 80 100 87 54 0 0 0 2 0 1 5 5 83 100 100 98 99 90
98 100 100 100 100 95 78 100 100 100 100 100 93 9 19 5 6 20 47 93 100 59 47 52 19 91 39 15 4 4 5 60 100 100 100 7 0 1 0 0 2 5 12 100 68 100 99 83 17
53 100 100 100 100 91 100 100 100 100 98 100 98 50 5 5 4 34 29 93 23 100 99 81 53 68 49 10 5 5 4 0 1 100 92 2 100 49 57 0 0 0 4 5 5 5 57 5 5
72 100 83 100 100 100 98 69 100 100 100 100 88 86 3 5 32 15 20 55 75 100 100 100 100 11 84 78 41 92 86 54 64 79 46 39 24 83 0 0 0 3 4 3 5 52 98 99 44
89 100 72 80 100 100 93 97 97 100 100 100 100 85 4 0 5 30 9 29 77 44 99 6 91 100 100 5 11 95 100 38 22 25 100 62 58 0 2 0 0 0 0 41 29 100 93 95 51
90 14 100 6 100 100 100 43 95 100 100 100 100 59 2 2 1 5 19 50 11 38 100 8 31 82 70 5 100 79 80 100 80 17 13 68 93 85 97 39 0 51 100 36 100 54 100 19 14
90 71 68 87 100 100 100 100 100 82 100 100 100 11 5 2 0 0 10 22 0 31 38 2 33 5 7 62 31 100 33 100 8 51 100 100 93 58 100 52 30 43 32 64 82 74 26 85 28
14 69 100 84 100 100 100 100 100 100 100 100 63 5 0 0 0 0 14 16 5 5 1 2 0 9 31 75 73 58 100 53 95 98 29 37 79 100 0 50 31 56 87 100 49 97 98 57 61
48 48 23 93 100 100 100 100 100 100 100 71 100 5 0 0 0 0 4 59 4 1 0 0 0 0 62 5 5 99 70 99 66 61 95 7 26 17 26 100 100 100 27 0 1 5 94 83 19
0 8 25 12 100 94 100 100 100 100 100 43 13 10 1 1 1 4 0 4 24 4 0 0 9 6 1 12 99 100 93 67 100 22 100 43 22 1 83 28 73 7 1 98 82 75 48 75 42
0 36 94 18 36 99 84 100 100 100 100 74 90 26 4 48 41 1 0 0 19 69 5 0 0 13 10 2 25 100 27 46 61 84 98 31 19 2 90 100 16 0 100 99 100 54 66 40 32
5 28 100 62 45 100 89 100 100 100 100 100 80 86 51 97 99 3 0 0 48 64 8 2 0 6 10 1 26 97 40 42 70 42 100 3 86 40 4 95 4 0 100 22 98 26 48 76 31
81 70 100 100 12 13 97 100 100 94 100 100 67 96 100 100 100 43 37 0 1 6 14 0 0 3 7 0 5 100 98 1 93 42 12 39 12 12 0 59 0 41 99 98 0 0 1 56 0
63 96 100 80 49 100 100 99 100 100 100 100 100 100 90 100 100 68 100 5 0 3 9 3 0 0 5 0 74 82 47 36 100 58 17 90 8 0 1 52 1 71 46 0 0 4 31 42 43
24 98 52 4 89 100 100 53 100 100 100 100 100 100 98 100 100 98 100 25 0 0 42 5 0 1 1 96 84 39 20 31 15 10 41 29 45 4 55 1 88 14 54 4 0 0 54 57 0
4 11 86 69 5 69 59 100 100 55 58 81 97 100 100 100 100 100 100 42 12 0 0 0 0 2 0 18 20 1 0 30 99 7 7 7 79 88 12 1 0 0 100 96 4 0 58 26 30
8 48 26 4 2 72 88 96 100 95 52 93 74 96 100 100 69 100 100 100 38 8 0 0 0 0 4 0 55 0 93 95 100 97 23 10 2 71 33 0 0 0 12 2 98 16 0 50 46
89 94 7 5 5 80 16 12 88 100 100 100 95 89 62 92 54 44 100 100 92 17 4 0 0 0 0 0 0 0 52 100 92 31 14 0 0 6 78 36 0 0 91 0 1 0 0 0 81
98 23 5 1 0 4 22 17 100 97 55 17 37 88 100 99 100 100 9 100 98 30 0 2 0 0 0 0 0 0 0 1 21 15 23 96 49 88 5 48 0 8 1 0 23 0 43 0 29
5 5 2 2 0 0 83 100 97 100 94 100 47 40 33 13 94 86 84 47 99 100 13 0 0 0 0 0 0 0 0 0 0 20 97 25 100 95 0 0 1 4 9 23 6 0 0 0 0
26 1 8 94 13 6 48 6 98 84 55 97 100 100 100 49 82 46 27 28 100 76 25 0 0 0 0 0 0 0 0 0 0 30 4 15 0 100 2 0 18 1 0 7 19 28 0 73 0
0 3 36 16 99 86 69 0 1 99 72 96 100 100 100 100 13 36 99 82 100 97 60 94 1 0 1 2 6 1 0 2 0 0 0 0 9 0 98 11 0 0 1 29 21 30 4 0 0
0 0 8 85 94 100 100 70 21 2 10 96 100 100 100 100 100 99 74 94 98 65 83 37 45 18 13 2 14 9 100 13 4 0 0 0 0 0 20 21 18 20 4 7 5 5 78 7 3
0 3 5 5 5 79 100 86 100 90 32 36 100 100 100 100 100 83 74 34 90 27 100 100 92 13 90 0 94 14 20 81 14 7 2 0 0 0 0 14 21 16 17 0 1 5 25 27 18

GFSSGP_prec_cloud_105.txt.gz
Cloud_Cover
100 100 100 100 100 100 100 100 100 100 100 100 81 65 20 31 0 0 0 0 0 0 0 0 3 1 0 1 0 0 0 0 0 8 0 3 99 15 46 74 100 100 100 96 94 100 88 92 65
100 100 100 100 100 100 100 100 97 100 99 58 50 5 51 19 0 32 24 0 0 0 0 0 4 5 2 14 1 8 5 2 0 0 0 0 1 0 0 5 39 100 89 44 96 88 96 39 91
87 100 100 100 100 100 100 79 100 98 65 100 99 16 8 0 0 3 0 0 0 0 0 1 5 38 14 0 1 30 9 5 5 0 0 0 0 0 0 1 3 96 12 100 100 100 28 62 96
100 95 100 100 100 100 100 97 100 100 45 100 100 18 94 0 0 0 0 0 0 0 0 2 3 15 2 4 5 4 5 0 4 0 0 0 4 0 0 0 0 5 5 92 100 30 77 59 100
100 100 100 100 100 100 90 93 97 78 100 100 100 52 4 0 0 0 0 0 0 0 0 0 1 0 0 0 0 5 2 4 13 0 4 12 3 2 0 0 30 5 5 5 79 100 60 97 91
100 100 100 100 100 78 100 100 100 12 100 100 100 90 93 5 2 0 0 0 0 0 0 0 49 0 0 0 0 0 0 0 2 0 0 1 3 0 0 0 4 5 5 6 68 48 21 89 94
100 100 100 100 100 96 73 96 78 63 100 100 100 100 100 48 61 0 0 0 0 0 0 0 99 9 4 1 0 0 0 0 1 0 0 0 0 4 0 0 5 5 4 48 61 50 13 6 7
100 100 100 100 100 100 99 90 100 100 71 100 53 100 48 100 40 37 0 0 0 0 0 20 97 96 72 4 1 0 3 0 0 0 2 71 0 0 0 0 0 5 5 3 68 8 26 66 41
100 100 100 100 90 100 100 85 100 98 95 38 100 100 74 25 97 84 0 3 0 0 0 81 100 97 100 71 0 0 2 1 3 5 0 0 0 0 0 0 0 0 5 5 4 75 100 100 12
100 100 100 61 95 68 100 72 40 90 100 100 100 99 41 5 11 46 63 0 0 0 6 75 100 100 96 100 13 0 0 0 0 0 0 0 0 0 0 0 0 0 0 2 3 3 61 66 6
92 100 100 100 100 91 100 100 100 75 98 71 100 74 96 12 96 3 7 3 0 0 22 100 100 100 100 90 93 24 0 4 0 0 0 0 0 0 0 0 0 0 0 3 1 28 1 6 5
81 94 100 100 100 98 100 100 100 32 100 93 93 100 69 36 8 16 86 2 2 17 0 99 100 100 100 69 100 100 1 0 0 0 23 0 66 0 0 0 1 0 3 5 5 3 63 90 29
97 98 95 100 42 100 100 100 100 67 97 100 81 100 83 16 36 14 2 2 9 67 0 52 100 100 96 100 100 98 55 0 0 0 14 0 12 0 0 6 58 0 100 6 40 52 5 12 31
100 84 100 69 4 28 96 99 52 75 100 100 100 99 40 17 100 10 1 4 0 0 0 0 1 60 100 99 100 100 99 29 38 24 90 0 4 0 96 3 91 0 2 3 21 98 11 3 5
98 54 63 2 2 59 98 100 100 100 79 100 100 94 5 15 95 5 0 0 0 0 0 0 0 0 13 100 99 93 100 99 68 3 7 30 8 0 0 4 44 2 5 0 5 0 0 4 0
11 41 100 44 0 5 35 100 100 100 96 100 100 66 30 93 38 84 11 3 0 2 0 0 0 4 5 88 78 12 5 94 30 11 0 0 0 22 44 1 23 0 0 0 0 0 1 61 0
5 92 37 38 57 5 5 100 100 100 100 100 100 4 96 100 96 5 5 0 0 0 0 0 0 0 14 50 8 5 12 90 14 0 0 2 0 0 0 35 20 0 5 0 0 5 14 51 19
0 0 6 58 22 1 6 97 100 99 100 100 100 74 97 100 76 24 1 0 76 0 0 0 0 0 0 38 95 7 43 73 39 0 0 5 0 0 0 1 0 0 0 0 0 0 72 1 18
0 7 90 100 41 6 54 13 95 88 63 100 100 100 84 100 94 19 2 0 11 96 0 43 4 1 1 16 55 1 93 3 1 0 68 0 19 1 0 0 0 0 0 0 0 0 90 0 0
2 100 44 90 100 100 100 25 83 98 100 100 100 100 96 78 81 1 5 3 2 21 90 0 0 2 0 23 100 51 100 6 3 5 5 0 0 0 0 0 0 80 0 0 0 0 0 0 0
4 91 12 100 92 100 100 76 77 98 100 100 100 100 100 100 100 85 20 4 5 5 41 1 0 0 0 0 26 100 100 95 33 15 5 0 0 0 0 0 0 0 0 0 0 0 0 0 0
5 73 31 94 69 100 100 25 24 100 100 100 100 100 100 100 100 100 74 3 6 5 5 5 2 0 0 0 1 100 100 100 59 25 79 4 0 0 0 0 2 13 0 0 0 0 0 0 0
5 29 82 29 49 100 100 18 4 91 100 100 100 100 100 100 100 100 35 5 73 38 5 0 2 0 0 0 1 5 82 46 70 98 50 4 0 0 0 0 0 0 0 0 0 0 0 0 0
47 100 34 23 36 89 100 4 84 76 64 100 100 100 100 100 100 88 29 7 4 3 5 5 5 0 0 0 0 0 35 12 73 98 100 3 0 54 10 4 0 17 72 0 1 0 0 0 0
29 100 100 97 39 100 94 5 94 97 70 100 100 100 100 100 97 100 97 90 3 3 5 5 1 24 6 3 36 5 0 88 100 100 81 16 4 100 98 100 24 2 0 0 0 0 0 0 0
64 99 64 28 62 100 94 94 61 95 99 100 100 100 100 100 100 94 86 100 99 74 5 4 56 100 100 100 100 89 1 42 100 94 1 82 11 100 95 99 100 43 0 0 0 0 0 0 0
74 17 39 64 97 96 2 99 100 100 100 100 100 100 100 100 100 96 68 100 100 52 21 28 93 100 100 100 100 99 6 0 0 0 0 0 100 100 100 98 97 100 5 0 0 0 0 0 0
0 4 86 27 2 90 5 40 72 99 100 98 100 100 100 100 100 84 100 100 100 100 86 94 60 100 100 100 100 91 20 3 1 0 0 0 22 100 100 100 93 100 23 0 2 0 0 0 0
3 0 4 5 5 4 58 75 6 41 100 100 100 100 100 100 100 100 100 100 100 100 100 100 96 100 100 100 100 100 100 90 18 5 2 0 0 15 100 100 97 100 14 4 1 3 0 0 0
5 4 0 0 5 77 100 93 100 54 12 99 100 100 100 100 100 100 100 100 100 100 100 100 100 100 100 100 100 99 100 100 98 94 2 5 0 0 36 22 100 51 9 13 0 0 0 0 0

GFSSGP_prec_cloud_108.txt.gz
Cloud_Cover
100 100 100 100 100 100 100 100 100 100 100 100 14 86 4 0 0 3 0 0 0 0 0 5 21 5 2 4 3 0 10 15 1 4 11 94 100 100 100 100 100 100 100 100 100 81 41 34 71
100 100 100 100 100 100 100 100 100 100 100 100 67 56 5 8 0 38 16 0 0 1 1 5 18 5 0 5 4 5 1 1 0 0 0 28 31 100 100 100 100 100 100 100 100 100 100 100 100
99 100 100 100 100 100 100 100 100 98 100 100 100 100 58 77 2 8 0 0 1 13 5 5 5 6 1 5 76 5 5 3 0 2 0 0 0 0 1 15 43 100 98 32 85 93 100 100 100
100 100 100 100 100 100 100 100 92 14 56 100 100 100 21 0 0 0 0 0 1 97 54 16 0 12 0 4 5 4 3 11 0 7 0 0 0 0 0 5 5 42 5 5 6 100 41 31 80
100 100 100 100 100 100 100 100 100 100 89 100 100 100 8 0 0 0 0 0 0 80 91 100 0 1 0 0 0 2 0 0 1 0 0 1 0 0 0 9 5 20 5 33 59 64 100 91 76
100 100 100 98 100 100 100 98 98 100 92 100 100 100 24 52 2 0 0 0 50 88 97 100 45 0 0 0 0 0 0 12 7 2 9 5 4 0 4 5 4 4 6 10 98 56 100 100 100
100 100 100 100 100 100 100 100 100 100 95 100 100 98 0 13 4 0 0 0 40 98 100 100 80 79 2 5 0 0 0 0 0 0 1 2 0 0 1 1 8 2 60 100 76 53 59 73 100
100 100 100 100 100 100 100 72 88 100 99 98 100 91 66 0 0 4 0 0 68 89 100 77 76 100 86 0 0 0 0 5 0 0 5 6 1 0 0 0 2 0 4 99 97 33 7 27 16
99 100 100 100 98 100 98 90 100 100 100 100 42 100 100 0 0 3 0 0 70 100 100 100 42 100 100 37 2 3 1 5 0 0 0 0 0 0 0 0 0 3 5 87 100 78 87 54 5
100 92 100 100 51 91 100 100 69 100 100 100 67 100 24 16 42 1 16 0 100 100 100 100 100 95 91 100 20 0 0 0 0 0 0 0 0 0 0 0 0 4 2 2 55 83 100 100 10
100 92 92 100 100 82 65 100 100 100 100 100 63 100 41 7 0 5 5 0 0 100 100 86 84 100 100 100 4 3 0 0 0 0 0 0 0 0 0 0 0 0 4 5 2 12 100 100 29
5 94 97 99 100 100 100 85 100 100 99 94 99 40 37 97 12 0 5 0 100 18 93 42 31 35 44 100 99 2 7 0 0 0 0 0 0 0 0 0 0 2 4 5 5 2 28 79 8
26 10 100 95 100 91 100 98 100 100 100 100 96 57 96 53 0 74 4 0 44 0 2 8 54 48 46 90 99 28 0 0 0 0 17 0 0 0 0 0 1 21 5 32 35 2 0 5 8
1 5 100 100 99 68 75 96 100 100 100 100 100 49 99 25 0 3 5 0 0 0 0 0 12 93 98 56 79 59 5 0 0 50 2 0 0 0 0 0 38 5 4 16 6 5 0 5 5
0 3 100 95 69 36 14 93 100 100 97 100 100 100 34 96 95 7 6 3 0 0 0 0 0 98 53 31 5 41 10 0 2 100 5 24 0 0 0 0 0 0 0 2 1 0 0 4 1
0 0 58 100 100 100 100 62 78 100 100 100 100 100 86 18 73 50 5 0 0 0 0 0 0 86 9 14 5 25 99 13 0 0 0 0 0 0 0 0 0 0 0 0 0 0 0 0 1
0 0 5 74 99 92 90 24 97 82 100 100 100 93 100 96 60 18 99 3 50 0 0 0 0 2 8 5 5 97 38 3 0 0 0 0 0 0 0 26 0 0 2 0 0 0 0 0 0
0 27 91 97 100 100 9 7 8 42 100 100 100 100 100 85 98 63 4 3 11 22 0 0 0 2 63 60 35 14 5 0 5 0 0 0 0 0 0 61 0 0 0 0 0 7 0 0 0
9 85 8 60 96 100 64 14 21 99 100 100 100 100 100 93 61 5 5 5 5 47 45 0 0 0 5 31 100 15 28 5 5 5 0 0 0 0 0 0 0 0 0 0 0 16 0 0 0
5 16 15 19 20 84 91 30 45 100 93 100 100 100 100 100 99 46 55 100 5 4 78 82 5 0 0 17 100 50 61 9 9 42 1 4 4 0 0 0 0 0 0 0 2 84 0 0 0
5 5 5 5 94 98 100 100 56 95 97 100 100 100 100 100 100 99 88 100 0 6 5 62 22 0 0 8 100 100 99 48 61 68 91 0 2 0 0 0 3 0 0 0 0 4 0 0 0
0 6 74 38 5 100 100 23 100 32 48 99 100 100 100 100 39 83 100 84 53 38 22 5 3 0 0 0 34 16 76 77 97 100 100 1 16 5 3 0 0 0 0 0 0 0 0 0 0
5 97 87 83 30 100 100 66 93 5 77 100 100 100 100 100 89 94 100 87 65 29 17 3 1 5 3 5 30 75 100 70 100 100 99 1 86 5 5 14 5 0 0 0 0 0 0 0 0
87 100 78 31 60 100 100 23 100 10 98 100 100 100 99 100 100 100 98 75 80 60 2 0 3 95 100 100 100 5 98 89 100 75 17 3 28 27 86 82 49 3 0 0 2 0 0 0 0
10 98 21 10 3 58 21 96 100 48 12 97 100 100 100 100 97 100 100 100 98 7 5 3 5 80 100 100 100 88 49 98 100 62 8 20 11 11 66 3 67 97 94 4 0 3 0 0 0
5 90 99 2 5 39 24 99 99 32 12 64 83 100 100 100 100 100 100 100 95 56 100 99 52 5 98 100 100 100 100 80 75 96 7 4 4 66 93 97 19 65 100 20 18 0 5 0 0
93 100 22 5 62 94 19 100 100 67 10 55 99 100 100 100 100 100 100 100 5 27 94 100 63 65 36 100 100 100 100 95 66 87 3 2 14 95 76 97 79 21 100 69 18 3 0 0 0
3 48 47 43 99 100 28 66 100 100 66 89 95 100 100 100 100 100 100 100 90 31 100 100 99 98 93 20 97 100 100 100 100 100 88 100 58 98 69 95 100 18 100 63 35 0 5 0 0
0 2 97 81 91 100 96 98 100 100 74 100 100 100 100 100 100 100 100 100 100 100 100 100 100 32 68 100 60 84 100 100 100 100 100 100 81 74 90 100 100 74 93 34 6 5 0 5 1
4 0 84 100 100 100 84 97 100 100 99 100 100 100 100 100 100 100 100 100 100 100 100 100 100 100 100 100 100 99 100 99 100 100 100 100 100 74 91 100 100 100 96 2 0 4 0 0 2

GFSSGP_prec_cloud_111.txt.gz
Cloud_Cover
100 100 100 100 99 100 100 100 57 100 100 100 93 18 0 0 0 1 5 24 5 4 5 5 19 2 5 2 1 1 4 5 6 100 100 100 83 100 100 100 100 100 100 100 100 100 100 93 22
100 100 100 100 98 100 100 100 70 100 100 100 100 6 0 23 19 73 45 6 3 4 2 4 4 1 0 4 11 18 1 2 2 100 100 100 100 100 100 100 100 100 100 100 100 100 100 100 93
100 100 100 100 100 100 100 100 80 100 100 84 100 4 1 83 93 47 1 5 2 39 0 2 2 0 3 5 5 5 3 0 0 0 1 50 89 100 100 100 100 100 100 100 100 100 100 100 100
100 100 100 100 100 100 100 100 99 73 58 100 79 9 1 2 0 1 5 5 5 61 3 0 4 1 5 5 5 4 0 2 3 0 3 0 1 5 7 95 100 100 100 100 100 100 100 100 100
100 100 100 100 100 100 100 100 100 100 65 100 99 63 2 0 0 0 5 32 5 5 9 7 1 0 5 5 4 20 23 0 10 1 0 8 0 5 5 23 100 99 76 98 100 100 100 100 100
100 100 100 100 98 100 100 60 6 100 60 100 47 100 5 0 0 0 5 87 29 5 5 56 4 0 0 0 0 4 4 1 4 10 0 5 2 5 10 10 29 93 7 97 100 100 100 100 100
98 100 100 100 100 100 100 48 81 52 96 88 82 100 82 0 5 0 3 94 85 16 5 81 92 5 0 2 1 7 5 1 43 8 5 90 5 11 24 12 3 34 79 100 100 100 100 100 100
100 100 100 100 100 100 100 95 96 100 92 77 38 56 49 20 4 0 13 100 100 47 5 17 5 3 0 0 2 4 4 0 0 74 41 1 1 9 6 2 2 1 61 100 100 100 100 100 100
100 100 100 100 95 100 100 92 100 76 84 100 78 25 5 99 0 1 40 56 99 81 12 5 4 5 4 0 5 16 89 2 0 0 0 0 1 4 5 5 4 4 4 14 100 19 80 100 51
100 100 100 100 100 100 100 99 100 100 100 77 78 20 27 94 0 7 20 56 62 48 83 5 61 36 5 0 0 1 5 0 0 0 0 0 0 0 0 2 5 4 4 99 86 100 100 98 74
100 100 100 100 100 100 100 100 100 100 99 86 84 17 58 99 0 5 0 2 3 31 14 72 74 77 14 35 9 19 0 0 0 0 0 0 0 0 5 34 28 5 5 2 67 95 100 100 83
100 100 100 79 100 100 100 100 99 100 100 99 58 91 71 34 1 6 0 5 0 3 14 96 43 42 26 71 9 0 1 0 0 0 0 0 0 0 0 3 0 1 2 3 2 5 100 100 100
90 100 100 100 100 100 100 100 100 100 100 100 92 78 81 12 0 4 0 0 0 0 5 44 75 5 5 49 4 0 0 0 0 0 0 0 0 0 4 0 1 5 4 24 0 4 72 47 13
17 100 86 100 100 90 100 100 100 99 100 100 24 44 100 75 1 2 0 0 0 0 0 5 5 19 5 8 2 0 0 0 0 0 0 0 3 7 97 34 48 6 8 5 0 0 0 4 12
0 3 5 100 100 100 100 78 88 100 100 100 100 45 100 56 0 0 2 2 0 0 0 2 5 5 56 84 5 1 0 0 16 1 0 0 0 0 0 2 5 2 46 2 0 0 0 5 15
0 14 49 100 100 100 97 48 75 96 95 100 100 100 100 13 6 0 0 2 1 0 0 1 3 26 8 5 37 0 0 0 24 13 0 0 0 0 0 0 0 0 0 0 0 0 5 14 0
0 1 30 62 100 84 96 17 44 100 96 100 100 100 83 100 58 0 0 6 0 8 1 0 3 5 5 5 5 4 4 1 0 0 0 0 0 0 0 0 0 0 0 0 0 0 0 9 0
0 0 2 34 98 100 100 88 18 8 100 100 100 100 89 99 100 35 0 31 78 58 59 0 0 5 5 11 5 5 4 2 4 1 0 0 0 0 0 0 0 0 0 0 0 0 0 0 0
5 2 3 5 100 100 100 100 100 38 100 100 100 100 100 94 65 4 5 16 72 5 89 1 0 5 28 8 46 5 5 5 11 5 0 0 0 0 0 0 0 0 0 0 0 0 0 0 0
5 0 30 3 40 100 100 100 100 84 96 99 100 100 100 69 100 92 88 87 1 6 5 0 0 3 5 17 8 14 11 61 37 5 5 23 5 1 0 0 0 0 0 0 0 0 0 0 0
5 4 5 2 10 100 100 100 100 100 98 100 100 100 100 100 72 13 88 100 4 5 42 1 1 5 6 48 26 26 23 94 7 4 5 25 32 46 5 0 0 0 0 0 1 0 0 0 1
10 87 26 5 5 69 100 99 100 100 100 100 100 100 81 95 99 56 92 100 90 35 18 1 28 100 100 36 32 11 5 80 5 5 5 5 8 52 47 22 1 0 1 0 0 0 0 5 4
100 100 56 5 86 6 100 44 100 93 93 100 76 100 68 95 50 11 50 100 100 24 5 1 12 100 100 97 52 30 5 6 41 4 22 36 63 18 34 99 99 30 5 0 0 0 0 5 5
3 99 84 73 3 17 90 24 100 89 27 100 100 100 98 14 15 82 100 100 100 67 11 11 5 100 100 100 73 91 5 4 46 3 5 28 87 92 30 88 65 100 96 3 2 2 0 5 5
0 6 15 5 16 0 63 56 100 21 30 54 99 100 99 91 92 20 100 100 100 54 5 62 94 60 100 100 99 100 29 5 5 3 5 5 65 100 100 5 56 100 75 24 5 3 0 0 42
0 0 5 6 36 6 5 24 48 41 92 73 100 100 100 100 20 67 100 100 100 83 13 6 100 5 98 100 94 100 100 100 50 5 34 5 32 44 100 97 6 99 94 79 5 7 5 0 1
0 0 5 5 0 77 5 79 99 69 78 75 70 100 100 100 100 100 73 100 100 100 92 15 5 49 95 11 87 47 100 100 100 100 100 52 53 5 37 100 77 100 65 44 5 0 5 10 23
0 0 1 1 0 50 18 44 70 96 100 100 87 100 100 100 99 91 100 100 90 100 100 97 62 32 5 17 22 100 100 100 100 100 100 100 88 28 18 69 96 100 100 23 1 0 0 5 5
0 0 0 0 5 5 5 9 91 100 100 100 100 100 100 100 100 100 100 100 100 97 100 100 67 54 100 5 5 22 95 100 100 96 100 100 100 100 99 46 68 62 100 79 79 67 1 0 0
0 5 5 5 70 9 56 23 88 67 100 94 99 100 100 100 100 100 100 100 100 100 100 100 94 100 100 98 52 90 100 100 100 100 80 100 100 100 100 98 98 91 80 69 59 92 96 4 0

GFSSGP_prec_cloud_114.txt.gz
Cloud_Cover
100 80 100 100 100 100 100 100 100 76 100 96 0 0 0 0 5 26 17 3 5 5 5 5 5 5 1 1 0 71 5 5 100 100 100 100 100 100 100 100 100 100 100 100 100 100 94 100 100
100 100 97 97 98 100 100 100 43 16 100 100 4 0 0 62 40 66 76 4 0 5 5 5 1 4 7 8 5 2 5 5 25 100 100 100 100 100 100 100 100 100 100 100 100 100 100 100 100
100 100 100 83 100 100 100 100 13 52 91 99 13 4 12 86 99 39 25 5 4 9 4 2 14 7 4 5 13 11 6 1 9 97 100 100 100 100 100 100 100 100 100 100 100 100 100 100 100
100 100 100 100 100 100 100 100 21 71 61 5 98 5 24 92 17 15 48 6 14 6 0 0 0 5 5 0 5 2 4 0 0 0 12 6 33 96 100 100 100 100 100 100 100 100 100 100 100
100 100 100 99 100 100 100 100 97 65 77 78 89 34 80 28 1 20 38 14 15 4 0 1 5 6 5 16 5 3 0 9 7 1 13 3 73 66 100 90 100 100 100 100 100 100 100 100 98
100 100 88 100 100 100 100 95 100 58 21 26 92 19 87 75 8 41 5 6 4 4 2 8 0 1 5 10 7 2 4 22 24 7 4 13 20 64 100 62 92 24 88 100 96 53 100 69 100
100 81 97 100 100 100 100 99 97 65 17 78 2 44 100 58 4 0 4 5 5 4 0 0 0 0 1 11 19 37 4 70 97 24 88 61 29 7 13 4 7 8 5 26 56 86 100 98 96
100 100 100 100 99 100 97 100 100 100 48 6 5 32 100 38 0 0 4 32 12 5 3 0 0 0 5 1 4 6 0 4 2 6 5 14 4 3 4 0 4 5 10 50 9 100 100 100 100
97 100 100 100 100 100 100 98 100 100 95 5 5 5 56 2 3 25 59 59 40 18 5 2 4 0 5 5 5 1 0 0 0 5 2 5 5 4 5 1 2 4 57 83 56 100 100 93 79
95 100 100 100 100 100 98 98 100 86 98 75 5 4 11 34 19 36 92 100 97 81 32 24 4 0 5 5 5 1 0 19 0 0 0 5 0 3 5 5 2 3 19 100 100 99 100 84 74
100 100 100 100 97 99 100 100 100 94 76 85 5 27 51 32 24 45 82 55 55 84 80 16 12 5 5 8 22 21 6 0 0 0 0 4 5 5 5 5 5 5 71 73 90 100 100 42 59
100 100 98 82 100 100 100 100 100 100 100 96 29 3 3 10 21 12 40 32 14 38 60 6 5 5 3 27 17 5 8 0 0 0 0 0 0 4 5 11 6 0 4 97 82 84 100 99 11
97 100 100 79 100 100 100 100 100 100 100 100 80 5 3 5 0 0 0 0 3 15 6 5 5 23 45 5 12 0 0 0 0 0 0 0 0 0 13 5 5 0 0 4 14 97 99 67 5
17 100 100 100 84 99 92 97 100 100 100 94 81 7 59 1 0 0 0 0 1 1 4 5 25 46 52 3 0 0 0 0 0 0 2 11 65 4 0 4 3 3 8 0 5 39 14 5 5
0 1 100 100 100 100 100 100 100 100 100 98 27 5 24 11 0 0 0 0 0 5 5 5 5 5 5 4 0 0 0 0 0 0 0 0 2 1 30 48 7 2 0 0 0 0 0 3 3
0 0 2 2 100 100 100 86 100 100 100 100 88 7 9 93 4 0 3 5 0 4 5 4 5 5 5 5 1 0 0 0 0 0 0 0 0 0 0 0 3 4 0 0 0 0 0 0 0
0 0 2 2 94 100 93 100 32 92 100 100 100 75 14 100 32 2 19 5 1 3 0 0 5 5 5 5 5 4 0 0 0 0 0 0 0 0 0 0 0 0 0 0 0 0 0 0 0
2 4 0 4 49 98 100 93 75 46 100 100 100 100 19 60 23 3 64 12 0 5 4 0 5 5 6 5 4 5 4 4 5 4 0 0 0 0 0 0 0 0 0 0 0 0 0 4 0
5 5 5 1 5 100 79 49 51 13 98 100 100 100 100 91 8 5 59 5 0 0 5 4 86 1 6 6 0 5 47 5 4 18 6 0 0 0 0 0 0 0 0 0 0 0 0 5 3
5 5 40 5 4 60 96 100 97 30 51 99 100 100 40 99 95 26 5 5 0 0 4 8 80 92 5 5 5 5 5 5 51 16 24 20 5 0 0 0 0 0 0 0 0 0 1 0 0
5 7 5 4 22 3 100 100 100 72 94 100 100 100 100 95 96 22 32 6 45 0 4 29 100 100 5 5 12 18 9 6 5 88 65 100 49 5 5 1 0 0 0 0 0 0 1 1 1
6 57 5 0 5 10 99 100 100 100 100 65 79 100 100 100 75 100 32 75 100 18 4 4 100 100 100 77 1 0 0 3 1 7 61 91 95 31 5 3 4 0 0 0 0 2 4 5 0
4 5 5 5 70 5 80 100 100 100 99 49 17 99 100 100 98 79 97 8 94 100 20 0 92 83 100 100 6 5 0 3 3 5 5 93 61 96 48 6 2 2 5 2 0 2 5 5 5
0 4 5 5 97 5 15 56 98 100 90 89 100 100 100 98 84 67 25 35 9 100 24 0 11 4 64 100 94 99 36 14 15 1 0 14 100 61 95 48 4 3 0 4 5 1 4 5 5
0 15 26 43 5 2 34 47 5 100 66 84 93 100 98 99 100 97 24 65 99 100 50 1 5 76 6 100 100 100 100 100 41 4 2 5 13 99 11 99 5 0 0 0 4 0 4 3 5
0 4 5 5 0 0 1 93 99 100 91 86 42 100 100 100 100 94 24 55 74 100 4 4 16 66 26 13 53 89 100 100 100 100 35 19 5 6 100 78 96 52 4 0 2 0 0 0 0
0 0 5 5 0 5 5 32 100 100 96 82 18 8 100 100 99 100 100 76 5 98 9 100 80 5 23 9 25 48 100 100 100 100 100 100 80 5 6 25 98 41 5 8 55 3 0 0 0
0 0 0 0 0 4 53 8 71 97 100 82 76 99 100 100 100 100 100 72 58 94 100 100 100 62 34 5 89 20 70 98 100 100 100 43 100 22 5 5 14 57 35 5 61 100 16 0 0
0 0 0 0 0 0 0 0 21 66 99 100 100 98 48 100 100 100 100 100 100 97 97 100 85 95 20 69 75 5 5 99 100 100 100 100 98 100 7 58 13 7 8 5 14 90 100 60 0
0 0 0 0 0 0 0 7 86 67 100 100 100 99 73 100 100 100 100 100 100 100 100 100 100 91 96 100 97 5 5 8 100 100 100 100 100 100 100 46 28 9 5 5 5 14 87 100 91

GFSSGP_prec_cloud_117.txt.gz
Cloud_Cover
8 95 100 65 100 100 45 97 6 6 86 0 36 0 0 26 47 73 6 0 0 1 11 6 2 0 5 0 14 5 5 64 100 100 100 100 100 100 100 100 100 100 60 74 98 100 100 40 91
21 66 92 41 92 100 100 68 12 5 12 0 73 0 0 62 45 43 5 0 0 0 16 30 5 0 1 0 5 5 5 30 100 100 100 100 100 98 100 100 100 100 87 47 65 53 100 98 99
100 94 60 62 100 100 100 94 72 3 99 19 6 0 23 72 30 26 6 12 1 0 3 8 4 4 2 0 6 7 2 5 100 100 99 100 100 100 100 98 100 97 95 84 100 100 97 83 79
100 96 85 100 100 100 100 96 100 3 99 13 3 22 63 48 6 13 9 17 0 4 10 6 8 2 0 0 16 1 1 1 31 100 98 100 100 100 100 100 100 100 100 100 100 100 85 98 88
100 98 74 100 100 100 100 37 22 5 4 1 2 70 73 34 20 16 28 11 0 22 8 5 3 7 3 5 0 6 11 2 18 2 69 100 100 100 100 100 100 100 100 100 100 100 100 100 100
96 82 67 100 100 100 100 82 12 5 1 5 0 43 63 68 16 48 26 9 5 3 16 20 7 3 4 5 2 5 6 2 0 0 34 100 100 75 44 78 100 100 100 100 100 100 100 100 100
100 74 100 100 100 99 72 97 84 43 5 0 2 7 99 98 54 39 29 4 3 5 29 28 24 1 2 1 4 5 9 5 5 5 5 100 100 100 100 5 30 99 98 100 100 100 100 100 100
100 92 100 100 96 97 41 81 40 58 5 5 1 4 89 100 54 25 3 1 4 5 5 1 16 12 14 1 0 12 4 1 3 5 68 77 23 5 16 5 5 5 11 42 100 68 50 100 100
100 100 100 100 74 100 98 98 64 43 4 5 0 5 0 88 25 0 1 26 5 22 30 19 9 12 4 30 5 0 0 14 0 5 5 6 26 13 0 3 5 16 5 45 100 100 100 96 98
100 100 100 100 100 100 99 75 60 25 22 5 0 0 11 52 0 0 0 4 4 9 16 20 7 12 7 30 24 18 9 6 15 15 14 5 5 5 0 0 5 60 5 48 100 100 100 48 9
100 100 100 100 93 73 94 100 87 54 70 5 0 0 10 0 0 0 0 0 5 4 43 16 17 18 22 17 1 3 20 1 9 15 0 0 4 5 0 0 12 100 80 22 52 63 23 6 5
100 100 100 100 96 94 94 100 100 99 31 35 4 1 1 0 0 0 0 0 8 13 26 29 25 18 33 4 0 0 0 0 0 0 0 1 5 5 0 1 10 91 100 98 100 86 12 44 5
100 100 100 100 99 89 98 94 100 100 100 53 14 0 0 0 0 0 0 0 5 5 9 26 32 32 20 0 0 0 0 0 0 0 0 0 3 5 5 2 2 8 22 9 99 100 65 2 5
96 100 100 100 50 98 99 93 100 100 98 40 20 2 0 5 0 1 0 0 5 5 5 5 23 28 2 0 0 0 0 0 0 3 0 0 0 1 6 4 0 5 4 50 98 100 5 5 0
6 61 100 100 100 100 100 100 100 100 80 70 5 11 3 5 0 4 0 0 0 3 5 5 4 5 2 0 0 0 0 0 0 0 0 0 3 5 5 0 0 0 5 8 20 5 5 0 0
4 5 18 100 100 88 96 100 100 94 82 98 58 5 5 5 4 0 0 0 5 5 5 5 5 3 5 4 1 0 0 0 0 0 0 0 0 3 0 0 0 0 0 0 0 1 0 0 0
2 3 1 71 100 100 100 95 100 87 100 100 90 92 38 18 3 3 0 0 5 38 48 5 5 5 5 5 2 0 0 0 0 0 0 0 0 0 0 0 0 0 0 5 0 0 0 0 0
4 5 4 5 53 100 100 96 89 99 100 100 100 100 11 47 5 53 12 0 0 4 63 43 5 5 5 4 0 0 4 2 0 0 0 0 0 0 0 0 0 0 0 1 1 0 5 0 0
5 5 5 5 5 74 50 83 91 39 99 100 100 84 100 100 42 78 80 3 0 2 5 5 26 5 5 0 1 1 0 5 5 0 0 0 0 0 0 0 0 0 0 0 0 0 0 0 0
5 5 5 12 9 13 94 47 48 86 90 86 100 100 100 99 94 11 69 58 87 0 5 5 15 6 5 4 0 0 0 0 5 5 0 0 0 0 0 0 0 0 0 0 0 0 2 0 0
6 87 16 5 4 3 13 38 100 53 89 77 100 100 100 100 76 70 92 73 70 1 4 6 52 97 7 5 4 0 0 0 3 5 0 0 0 0 0 0 0 0 0 0 3 0 2 4 0
5 64 7 5 5 5 5 6 100 100 75 17 92 100 100 97 99 100 98 8 23 92 5 5 12 100 43 5 24 4 4 5 5 0 3 0 0 0 0 0 0 0 0 0 0 0 0 4 0
2 5 74 17 3 2 5 5 66 100 100 95 76 99 100 100 95 100 97 94 6 80 92 25 3 92 100 88 40 0 2 0 0 16 2 4 0 0 0 0 0 0 0 0 0 0 0 3 0
0 0 2 5 5 1 3 4 57 93 100 100 91 18 95 100 100 96 97 15 69 61 46 6 1 7 94 93 87 15 5 2 0 0 3 5 20 1 0 0 0 0 0 0 0 0 2 3 0
0 0 0 1 0 1 0 0 100 93 100 100 100 65 35 94 82 100 95 31 97 22 91 80 5 5 85 6 96 96 4 2 3 1 3 5 14 8 7 5 5 4 0 0 0 0 1 5 2
0 0 0 0 0 3 0 0 100 100 97 100 100 73 84 100 91 99 81 42 37 79 65 6 5 90 6 4 16 99 94 8 29 16 5 0 4 5 9 5 6 9 18 5 1 0 0 1 1
0 0 0 0 0 0 0 0 0 100 100 100 99 79 68 100 98 92 100 100 100 73 98 70 5 89 12 41 4 19 73 5 3 5 23 0 0 1 0 2 3 5 5 50 6 4 1 0 3
0 0 0 0 5 5 0 0 0 19 100 100 72 62 99 100 100 100 100 100 100 76 100 95 9 26 26 80 74 5 4 5 5 30 5 5 5 4 0 3 2 4 9 5 53 94 63 15 0
0 0 0 0 0 5 2 0 0 0 100 100 19 88 77 100 100 100 100 84 100 82 96 100 7 84 64 73 26 37 4 5 5 22 5 9 17 49 7 3 4 2 2 5 5 8 96 100 99
0 0 0 0 0 0 0 0 0 8 62 100 100 100 99 100 100 100 100 96 72 47 66 85 94 16 59 85 41 43 6 5 5 58 83 100 29 100 66 12 5 25 2 5 6 16 5 41 100

GFSSGP_prec_cloud_120.txt.gz
Cloud_Cover
70 98 68 95 100 99 7 12 5 43 0 50 0 16 5 5 8 4 0 0 9 33 8 5 0 8 1 5 5 49 46 5 99 100 100 100 100 100 100 70 100 100 100 100 100 100 100 100 99
88 86 66 82 100 100 69 19 6 1 0 10 0 9 34 6 3 0 2 3 37 89 96 35 0 0 2 5 5 5 5 25 100 100 100 100 100 100 100 100 71 60 100 100 26 49 100 99 64
100 67 45 46 100 100 94 6 5 0 3 33 2 39 17 5 4 14 5 16 66 96 100 2 0 0 0 5 5 5 5 95 100 100 100 100 100 100 100 100 83 100 100 100 100 100 92 60 93
100 96 45 100 62 100 100 73 5 4 1 25 3 3 10 1 2 4 6 7 13 20 30 0 1 3 0 5 9 0 4 100 100 100 100 100 100 100 100 100 100 100 100 100 100 100 100 100 100
100 85 51 96 95 100 71 100 5 0 2 30 49 6 6 54 17 5 5 5 11 45 9 0 0 0 1 4 12 1 0 25 100 100 100 100 100 100 100 100 100 100 100 100 100 100 99 88 96
100 62 95 28 58 100 66 100 5 4 8 0 0 0 71 49 24 12 5 2 37 24 61 2 2 6 5 2 0 2 0 1 79 100 100 100 100 100 100 100 100 100 100 100 100 100 100 100 100
100 93 65 38 5 72 29 61 17 15 7 13 0 0 93 47 26 10 5 0 0 88 52 4 14 0 2 8 5 8 7 0 3 99 100 100 100 100 100 100 100 100 100 100 100 100 100 100 100
100 94 91 54 98 44 11 5 5 39 29 0 0 0 43 94 19 4 5 0 2 40 40 98 92 52 4 0 0 0 3 56 86 6 100 100 100 100 100 65 53 94 96 100 100 100 100 100 100
100 88 100 94 80 85 8 74 5 17 4 0 0 0 0 4 11 0 2 0 0 19 68 60 45 54 24 76 17 2 0 4 19 9 25 100 100 66 14 35 5 18 100 92 97 78 100 100 100
97 96 100 100 77 45 30 84 5 5 5 2 0 0 2 0 0 0 1 1 0 7 84 100 100 69 54 28 40 95 41 30 39 18 52 100 100 9 5 5 3 5 100 100 100 100 100 23 5
100 98 100 100 100 25 99 92 90 42 5 5 0 0 4 0 0 0 1 5 0 0 22 22 95 39 6 3 14 35 56 21 12 15 54 1 3 8 4 5 5 13 100 100 100 100 75 5 5
100 100 100 100 73 73 24 92 90 98 21 23 5 0 0 0 3 0 2 5 1 1 5 12 36 21 25 18 76 32 31 36 13 6 0 4 0 7 26 74 73 9 45 97 90 19 6 77 53
100 100 100 100 100 91 23 100 98 99 91 8 5 9 4 0 0 0 4 5 7 1 3 5 28 44 36 12 8 10 0 10 2 0 5 24 12 0 3 49 100 63 58 98 47 18 6 5 4
100 100 100 100 97 56 63 54 100 100 92 99 16 5 5 4 0 0 0 3 9 3 1 3 11 3 44 29 29 13 0 2 2 0 3 28 63 24 11 5 13 5 11 100 54 2 3 2 0
7 100 100 100 100 76 56 100 65 100 38 94 37 5 5 5 1 0 3 3 15 5 5 5 6 16 49 28 5 9 0 0 0 0 0 1 23 0 2 0 25 31 16 100 9 0 0 0 0
1 74 100 98 100 97 95 100 100 100 53 33 8 22 52 5 4 8 0 7 22 4 5 1 5 7 30 11 1 3 0 0 0 0 0 0 0 0 1 19 13 5 59 26 0 0 0 0 0
1 68 50 95 100 100 100 100 100 100 95 84 97 50 21 47 6 11 7 18 34 1 5 4 4 5 24 0 0 11 0 0 0 3 16 0 0 0 31 44 0 0 6 0 0 0 0 0 0
28 90 82 57 90 97 100 100 87 100 100 89 73 100 52 72 71 16 2 30 38 7 5 42 43 3 13 5 5 32 2 0 0 0 4 0 0 0 25 1 0 24 3 0 0 0 0 0 5
100 91 94 40 52 76 100 100 99 100 100 100 100 100 100 100 81 22 19 39 29 36 31 14 32 7 0 0 4 5 40 33 28 0 0 0 0 0 0 29 2 0 5 0 0 0 0 0 0
5 74 72 5 4 30 99 100 100 26 99 98 100 87 100 100 100 32 5 14 48 9 28 69 35 33 1 9 21 64 85 74 96 54 0 0 0 0 0 2 35 1 17 2 0 0 0 0 2
93 100 56 48 5 10 73 100 100 99 87 87 100 100 99 100 88 30 73 23 18 48 36 100 33 30 8 12 4 0 0 2 0 11 4 2 0 0 0 0 28 0 20 6 5 2 0 6 3
100 95 74 25 37 99 9 95 99 100 96 70 6 98 100 95 100 63 49 76 27 82 48 97 85 38 72 3 1 4 7 22 31 7 39 14 0 0 0 0 0 0 30 0 4 0 7 0 4
81 5 77 14 5 5 15 99 100 100 100 99 73 77 100 100 99 97 99 99 100 51 82 73 99 100 100 92 7 5 8 0 0 50 0 15 2 0 0 0 0 0 1 0 0 0 0 10 11
0 4 5 5 36 5 71 14 72 85 100 100 100 64 94 99 98 95 87 99 100 79 88 78 10 100 83 100 100 41 11 7 25 10 6 6 7 0 0 0 0 0 0 0 4 3 0 0 0
0 0 5 18 33 28 66 1 81 56 95 100 100 100 44 72 91 82 72 18 98 74 67 100 35 20 31 91 100 83 43 41 5 4 4 7 14 40 5 0 0 0 0 0 0 16 21 0 0
0 2 14 97 100 99 10 4 5 25 99 100 93 100 100 99 100 100 100 52 60 100 5 26 30 39 36 67 100 100 100 57 83 8 69 16 26 35 26 3 1 0 0 0 0 0 3 0 0
0 0 3 97 87 100 84 10 0 6 100 100 100 78 96 74 92 100 97 64 46 49 45 36 22 16 4 4 41 12 70 100 63 100 100 43 8 0 21 3 1 5 5 21 1 3 3 2 0
0 0 0 1 70 80 92 37 85 0 34 98 100 83 99 100 100 100 100 100 41 61 8 6 21 36 9 5 5 5 5 23 5 95 41 100 29 7 4 5 3 5 6 7 48 5 73 66 14
0 0 0 2 0 100 80 94 2 0 0 71 100 81 100 98 100 100 100 72 92 99 65 74 17 7 70 21 68 27 3 2 3 3 72 87 59 49 6 7 2 5 5 5 5 5 20 97 100
0 0 0 0 5 6 79 100 3 0 0 5 100 100 100 72 98 77 100 83 77 61 99 75 6 5 9 49 42 7 5 5 5 36 26 60 41 50 14 5 5 6 5 5 16 37 5 9 32